[[{"header":{"parameterUnit":"m.s-1","parameterCategory":1,"la1":30.6,"la2":29.2853,"lo1":-89.7004,"lo2":-87.6739,"dy":0.0162,"dx":0.0183,"nx":112,"ny":82,"refTime":"2024-08-07T18:00:00:Z","depth":0,"parameterNumber":2,"parameterNumberName":"U-component_of_WINDS"},"data":[0.0,0.0,0.0,0.0,0.0,0.0,0.0,0.0,0.0,0.0,0.0,0.0,0.0,0.0,0.0,0.0,0.0,0.0,0.0,0.0,0.0,0.0,0.0,0.0,0.0,0.0,0.0,0.0,0.0,0.0,0.0,0.0,0.0,0.0,0.0,0.0,0.0,0.0,0.0,0.0,0.0,0.0,0.0,0.0,0.0,0.0,0.0,0.0,0.0,0.0,0.0,0.0,0.0,0.0,0.0,0.0,0.0,0.0,0.0,0.0,0.0,0.0,0.0,0.0,0.0,0.0,0.0,0.0,0.0,0.0,0.0,0.0,0.0,0.0,0.0,0.0,0.0,0.0,0.0,0.0,0.0,0.0,0.0,0.0,0.0,0.0,0.0,0.0,0.0,0.0,2.7764,3.0329,3.3836,3.6348,3.7223,3.5584,3.3163,2.9999,0.0,0.0,0.0,0.0,0.0,0.0,0.0,0.0,0.0,0.0,0.0,0.0,0.0,0.0,0.0,0.0,0.0,0.0,0.0,0.0,0.0,0.0,0.0,0.0,0.0,0.0,0.0,0.0,0.0,0.0,0.0,0.0,0.0,0.0,0.0,0.0,0.0,0.0,0.0,0.0,0.0,0.0,0.0,0.0,0.0,0.0,0.0,0.0,0.0,0.0,0.0,0.0,0.0,0.0,0.0,0.0,0.0,0.0,0.0,0.0,0.0,0.0,0.0,0.0,0.0,0.0,0.0,0.0,0.0,0.0,0.0,0.0,0.0,0.0,0.0,0.0,0.0,0.0,0.0,0.0,0.0,0.0,0.0,0.0,0.0,0.0,0.0,0.0,0.0,0.0,0.0,0.0,0.0,0.0,0.0,0.0,0.0,0.0,0.0,0.0,0.0,0.0,0.0,0.0,2.8239,3.4375,3.5602,3.6357,3.7223,3.5018,3.2773,3.0841,0.0,0.0,0.0,0.0,0.0,0.0,0.0,0.0,0.0,0.0,0.0,0.0,0.0,0.0,0.0,0.0,0.0,0.0,0.0,0.0,0.0,0.0,0.0,0.0,0.0,0.0,0.0,0.0,0.0,0.0,0.0,0.0,0.0,0.0,0.0,0.0,0.0,0.0,0.0,0.0,0.0,0.0,0.0,0.0,0.0,0.0,0.0,0.0,0.0,0.0,0.0,0.0,0.0,0.0,0.0,0.0,0.0,0.0,0.0,0.0,0.0,0.0,0.0,0.0,0.0,0.0,0.0,0.0,0.0,0.0,0.0,0.0,0.0,0.0,0.0,0.0,0.0,0.0,0.0,0.0,0.0,0.0,0.0,0.0,0.0,0.0,0.0,0.0,0.0,0.0,0.0,0.0,0.0,0.0,0.0,0.0,0.0,0.0,0.0,0.0,0.0,0.0,0.0,2.7381,3.0096,3.6074,3.6289,3.6343,3.7226,3.4906,3.2485,3.0328,2.6108,0.0,0.0,0.0,0.0,0.0,0.0,0.0,0.0,0.0,0.0,0.0,0.0,0.0,0.0,0.0,0.0,0.0,0.0,0.0,0.0,0.0,0.0,0.0,0.0,0.0,0.0,0.0,0.0,0.0,0.0,0.0,0.0,0.0,0.0,0.0,0.0,0.0,0.0,0.0,0.0,0.0,0.0,0.0,0.0,0.0,0.0,0.0,0.0,0.0,0.0,0.0,0.0,0.0,0.0,0.0,0.0,0.0,0.0,0.0,0.0,0.0,0.0,0.0,0.0,0.0,0.0,0.0,0.0,0.0,0.0,0.0,0.0,0.0,0.0,0.0,0.0,0.0,0.0,0.0,0.0,0.0,0.0,0.0,0.0,0.0,0.0,0.0,0.0,0.0,0.0,0.0,0.0,0.0,0.0,0.0,0.0,0.0,0.0,0.0,0.0,0.0,0.0,3.0413,3.217,3.6521,3.6406,3.6269,3.694,3.4424,3.1882,2.9737,2.5149,0.0,0.0,0.0,0.0,0.0,0.0,0.0,0.0,0.0,0.0,0.0,0.0,0.0,0.0,0.0,0.0,0.0,0.0,0.0,0.0,0.0,0.0,0.0,0.0,0.0,0.0,0.0,0.0,0.0,0.0,0.0,0.0,0.0,0.0,0.0,0.0,0.0,0.0,0.0,0.0,0.0,0.0,0.0,0.0,0.0,0.0,0.0,0.0,0.0,0.0,0.0,0.0,0.0,0.0,0.0,0.0,0.0,0.0,0.0,0.0,0.0,0.0,0.0,0.0,0.0,0.0,0.0,0.0,0.0,0.0,0.0,0.0,0.0,0.0,0.0,0.0,0.0,0.0,0.0,0.0,0.0,0.0,0.0,0.0,0.0,0.0,0.0,0.0,0.0,0.0,0.0,0.0,0.0,0.0,0.0,0.0,0.0,0.0,0.0,0.0,0.0,0.0,3.1194,3.3883,3.5876,3.6032,3.6016,3.6094,3.3018,3.0657,2.9659,2.4054,0.0,0.0,0.0,0.0,0.0,0.0,0.0,0.0,0.0,0.0,0.0,0.0,0.0,0.0,0.0,0.0,0.0,0.0,0.0,0.0,0.0,0.0,0.0,0.0,0.0,0.0,0.0,0.0,0.0,0.0,0.0,0.0,0.0,0.0,0.0,0.0,0.0,0.0,0.0,0.0,0.0,0.0,0.0,0.0,0.0,0.0,0.0,0.0,0.0,0.0,0.0,0.0,0.0,0.0,0.0,0.0,0.0,0.0,0.0,0.0,0.0,0.0,0.0,0.0,0.0,0.0,0.0,0.0,0.0,0.0,0.0,0.0,0.0,0.0,0.0,0.0,0.0,0.0,0.0,0.0,0.0,0.0,0.0,0.0,0.0,0.0,0.0,0.0,0.0,0.0,0.0,0.0,0.0,0.0,0.0,0.0,0.0,0.0,0.0,0.0,0.0,0.0,3.0372,3.2907,0.0,3.6001,3.5991,3.5996,3.3828,3.1406,2.8942,0.0,0.0,0.0,0.0,0.0,0.0,0.0,0.0,0.0,0.0,0.0,0.0,0.0,0.0,0.0,0.0,0.0,0.0,0.0,0.0,0.0,0.0,0.0,0.0,0.0,0.0,0.0,0.0,0.0,0.0,0.0,0.0,0.0,0.0,0.0,0.0,0.0,0.0,0.0,0.0,0.0,0.0,0.0,0.0,0.0,0.0,0.0,0.0,0.0,0.0,0.0,0.0,0.0,0.0,0.0,0.0,0.0,0.0,0.0,0.0,0.0,0.0,0.0,0.0,0.0,0.0,0.0,0.0,0.0,0.0,0.0,0.0,0.0,0.0,0.0,0.0,0.0,0.0,0.0,0.0,0.0,0.0,0.0,0.0,0.0,0.0,0.0,0.0,0.0,0.0,0.0,0.0,0.0,0.0,0.0,0.0,0.0,0.0,0.0,0.0,0.0,0.0,2.7698,3.0292,3.2809,0.0,3.5991,3.6001,3.5995,3.3665,3.1086,2.8455,0.0,0.0,0.0,0.0,0.0,0.0,0.0,0.0,0.0,0.0,0.0,0.0,0.0,0.0,0.0,0.0,0.0,0.0,0.0,0.0,0.0,0.0,0.0,0.0,0.0,0.0,0.0,0.0,0.0,0.0,0.0,0.0,0.0,0.0,0.0,0.0,0.0,0.0,0.0,0.0,0.0,0.0,0.0,0.0,0.0,0.0,0.0,0.0,0.0,0.0,0.0,0.0,0.0,0.0,0.0,0.0,0.0,0.0,0.0,0.0,0.0,0.0,0.0,0.0,0.0,0.0,0.0,0.0,0.0,0.0,0.0,0.0,0.0,0.0,0.0,0.0,0.0,0.0,0.0,0.0,0.0,0.0,0.0,0.0,0.0,0.0,0.0,0.0,0.0,0.0,0.0,0.0,0.0,0.0,0.0,0.0,0.0,0.0,0.0,0.0,0.0,0.0,2.7854,3.1289,3.4078,3.5815,3.5991,3.5996,3.6005,3.2085,2.9252,0.0,0.0,0.0,0.0,0.0,0.0,0.0,0.0,0.0,0.0,0.0,0.0,0.0,0.0,0.0,0.0,0.0,0.0,0.0,0.0,0.0,0.0,0.0,0.0,0.0,0.0,0.0,0.0,0.0,0.0,0.0,0.0,0.0,0.0,0.0,0.0,0.0,0.0,0.0,0.0,0.0,0.0,0.0,0.0,0.0,0.0,0.0,0.0,0.0,0.0,0.0,0.0,0.0,0.0,0.0,0.0,0.0,0.0,0.0,0.0,0.0,0.0,0.0,0.0,0.0,0.0,0.0,0.0,0.0,0.0,0.0,0.0,0.0,0.0,0.0,0.0,0.0,0.0,0.0,0.0,0.0,0.0,0.0,0.0,0.0,0.0,0.0,0.0,0.0,0.0,0.0,0.0,0.0,0.0,0.0,0.0,0.0,0.0,0.0,0.0,0.0,0.0,0.0,2.7845,3.1282,3.4072,3.5809,3.6007,3.5994,3.5996,3.3149,3.0495,2.8426,0.0,0.0,0.0,0.0,0.0,0.0,0.0,0.0,0.0,0.0,0.0,0.0,0.0,0.0,0.0,0.0,0.0,0.0,0.0,0.0,0.0,0.0,0.0,0.0,0.0,0.0,0.0,0.0,0.0,0.0,0.0,0.0,0.0,0.0,0.0,0.0,0.0,0.0,0.0,0.0,0.0,0.0,0.0,0.0,0.0,0.0,0.0,0.0,0.0,0.0,0.0,0.0,0.0,0.0,0.0,0.0,0.0,0.0,0.0,0.0,0.0,0.0,0.0,0.0,0.0,0.0,0.0,0.0,0.0,0.0,0.0,0.0,0.0,0.0,0.0,0.0,0.0,0.0,0.0,0.0,0.0,0.0,0.0,0.0,0.0,0.0,0.0,0.0,0.0,0.0,0.0,0.0,0.0,0.0,0.0,0.0,0.0,0.0,0.0,0.0,0.0,0.0,2.7855,3.1269,3.4039,3.5802,3.6004,3.6007,3.5991,3.361,3.115,2.8967,0.0,0.0,0.0,0.0,0.0,0.0,0.0,0.0,0.0,0.0,0.0,0.0,0.0,0.0,0.0,0.0,0.0,0.0,0.0,0.0,0.0,0.0,0.0,0.0,0.0,0.0,0.0,0.0,0.0,0.0,0.0,0.0,0.0,0.0,0.0,0.0,0.0,0.0,0.0,0.0,0.0,0.0,0.0,0.0,0.0,0.0,0.0,0.0,0.0,0.0,0.0,0.0,0.0,0.0,0.0,0.0,0.0,0.0,0.0,0.0,0.0,0.0,0.0,0.0,0.0,0.0,0.0,0.0,0.0,0.0,0.0,0.0,0.0,0.0,0.0,0.0,0.0,0.0,0.0,0.0,0.0,0.0,0.0,0.0,0.0,0.0,0.0,0.0,0.0,0.0,0.0,0.0,0.0,0.0,0.0,0.0,0.0,0.0,0.0,0.0,0.0,0.0,2.7947,3.1285,3.3999,3.5798,3.5997,3.6001,3.601,3.3604,3.1412,2.9812,0.0,0.0,0.0,0.0,0.0,0.0,0.0,0.0,0.0,0.0,0.0,0.0,0.0,0.0,0.0,0.0,0.0,0.0,0.0,0.0,0.0,0.0,0.0,0.0,0.0,0.0,0.0,0.0,0.0,0.0,0.0,0.0,0.0,0.0,0.0,0.0,0.0,0.0,0.0,0.0,0.0,0.0,0.0,0.0,0.0,0.0,0.0,0.0,0.0,0.0,0.0,0.0,0.0,0.0,0.0,0.0,0.0,0.0,0.0,0.0,2.6663,2.4592,0.0,0.0,0.0,0.0,0.0,0.0,0.0,0.0,0.0,0.0,0.0,0.0,0.0,0.0,0.0,0.0,0.0,0.0,0.0,0.0,0.0,0.0,0.0,0.0,0.0,0.0,0.0,0.0,0.0,0.0,0.0,0.0,0.0,0.0,0.0,0.0,0.0,0.0,0.0,0.0,2.8712,3.166,3.4038,3.5739,3.5962,3.6009,3.599,3.359,3.1652,3.0618,2.5508,0.0,0.0,0.0,0.0,0.0,0.0,0.0,0.0,0.0,0.0,0.0,0.0,0.0,0.0,0.0,0.0,0.0,0.0,0.0,0.0,0.0,0.0,0.0,0.0,0.0,0.0,0.0,0.0,0.0,0.0,0.0,0.0,0.0,0.0,0.0,0.0,0.0,0.0,0.0,0.0,0.0,0.0,0.0,0.0,0.0,0.0,0.0,0.0,0.0,0.0,0.0,0.0,0.0,0.0,0.0,0.0,0.0,0.0,0.0,3.0837,2.8906,0.0,0.0,0.0,0.0,0.0,0.0,0.0,0.0,0.0,0.0,0.0,0.0,0.0,0.0,0.0,0.0,0.0,0.0,0.0,0.0,0.0,0.0,0.0,0.0,0.0,0.0,0.0,0.0,0.0,0.0,0.0,0.0,0.0,0.0,0.0,0.0,0.0,0.0,0.0,0.0,2.9054,3.2083,3.4426,3.5752,3.5933,3.5943,3.5948,3.4326,3.2747,3.1403,2.7651,0.0,0.0,0.0,0.0,0.0,0.0,0.0,0.0,0.0,0.0,0.0,0.0,0.0,0.0,0.0,0.0,0.0,0.0,0.0,0.0,0.0,0.0,0.0,0.0,0.0,0.0,0.0,0.0,0.0,0.0,0.0,0.0,0.0,0.0,0.0,0.0,0.0,0.0,0.0,0.0,0.0,0.0,0.0,0.0,0.0,0.0,0.0,0.0,0.0,0.0,0.0,0.0,0.0,3.6029,3.6825,3.6822,3.7596,3.7917,3.7687,3.4912,3.3693,3.3434,3.064,0.0,0.0,0.0,0.0,0.0,0.0,0.0,0.0,0.0,0.0,0.0,0.0,0.0,0.0,0.0,0.0,0.0,0.0,0.0,0.0,0.0,0.0,3.0997,3.1581,3.2939,3.2769,2.8019,0.0,0.0,0.0,0.0,0.0,0.0,0.0,0.0,0.0,0.0,0.0,2.9552,3.2594,3.4842,3.5762,3.5866,3.5872,3.5866,3.5074,3.3932,3.2435,2.9904,2.711,0.0,0.0,0.0,0.0,0.0,0.0,0.0,0.0,0.0,0.0,0.0,0.0,0.0,0.0,0.0,0.0,0.0,0.0,0.0,0.0,0.0,0.0,0.0,0.0,0.0,0.0,0.0,0.0,0.0,0.0,0.0,0.0,2.1535,2.3332,0.0,0.0,0.0,0.0,0.0,0.0,0.0,0.0,0.0,0.0,0.0,0.0,0.0,3.4313,3.6043,3.7668,3.8884,3.97,4.1266,4.2008,4.2011,4.2082,4.2067,4.1972,4.1531,0.0,3.6171,3.5607,0.0,0.0,0.0,0.0,0.0,0.0,0.0,0.0,0.0,0.0,0.0,0.0,0.0,0.0,0.0,0.0,0.0,0.0,0.0,0.0,0.0,0.0,3.5229,3.4752,3.5535,3.6031,3.4749,3.2201,2.9796,2.8548,2.6467,2.4334,0.0,0.0,0.0,0.0,0.0,0.0,3.1154,3.3244,3.4748,3.5618,3.5726,3.5726,3.5724,3.493,3.4332,3.409,3.1452,2.967,2.9162,2.545,0.0,0.0,0.0,0.0,0.0,0.0,0.0,0.0,0.0,0.0,0.0,0.0,0.0,0.0,0.0,0.0,0.0,0.0,0.0,0.0,0.0,0.0,0.0,0.0,0.0,0.0,0.0,0.0,0.0,2.1374,2.4224,2.557,2.5805,2.5707,0.0,0.0,0.0,0.0,0.0,0.0,0.0,0.0,0.0,3.604,3.7157,3.8363,3.9667,4.1102,4.2048,4.2469,4.3618,4.4172,4.4172,4.4191,4.4169,4.4149,4.4149,4.3119,4.1303,3.8876,3.6771,3.4894,0.0,0.0,0.0,0.0,3.3182,3.3184,3.5163,3.5251,3.4397,3.367,0.0,0.0,0.0,0.0,0.0,0.0,0.0,3.1754,3.3378,3.5669,3.764,3.7805,3.8617,3.9229,3.8634,3.7069,3.5032,3.2543,3.1155,2.94,2.6293,2.548,0.0,0.0,0.0,3.1003,3.2985,3.4719,3.5916,3.6327,3.594,3.5649,3.564,3.5291,3.4789,3.4109,3.2478,3.0986,2.9712,2.7436,2.4929,0.0,0.0,0.0,0.0,0.0,0.0,0.0,0.0,0.0,0.0,0.0,0.0,0.0,0.0,0.0,0.0,0.0,0.0,0.0,0.0,0.0,0.0,0.0,0.0,0.0,0.0,0.0,0.0,2.4161,2.6644,2.7723,2.8834,2.9159,0.0,0.0,0.0,0.0,0.0,0.0,3.461,3.604,3.7692,3.9625,4.0665,4.1719,4.2829,4.3857,4.4463,4.4668,4.5337,4.5504,4.529,4.5337,4.5247,4.5057,4.5057,4.5057,4.4767,4.1547,3.9719,3.8823,3.7337,3.6407,3.605,3.7472,3.7349,3.684,3.9258,3.9488,3.8524,3.7468,3.5932,3.4005,3.1432,0.0,0.0,0.0,0.0,3.4546,3.6065,3.7766,3.9186,3.9783,4.0611,4.1163,4.0774,4.0453,3.9283,3.5985,3.5114,3.3807,3.0481,2.9718,0.0,2.8815,3.1526,3.3948,3.4833,3.6214,3.7045,3.6895,3.6277,3.5794,3.5601,3.5502,3.5062,3.4146,3.3004,3.1618,2.9948,2.8743,2.6805,2.3989,0.0,0.0,0.0,0.0,0.0,0.0,0.0,0.0,0.0,0.0,0.0,0.0,0.0,0.0,0.0,0.0,0.0,0.0,0.0,0.0,0.0,0.0,0.0,0.0,0.0,0.0,0.0,0.0,0.0,3.0296,3.2309,0.0,0.0,0.0,0.0,3.4489,3.5331,3.6932,3.9506,3.9734,4.0902,4.3348,4.3368,4.4197,4.5959,4.5862,4.6207,4.7038,4.7072,4.6641,4.5772,4.5836,4.5421,4.4632,4.4632,4.4578,4.4476,4.3829,4.3121,4.2347,4.1366,4.0325,3.9402,3.9952,3.9856,3.9571,4.0148,3.977,3.9139,4.0131,3.8556,3.6082,3.5156,3.3949,0.0,0.0,3.5871,3.7009,3.8672,3.9509,3.9962,4.0073,4.0456,4.0873,4.1138,4.1188,4.0663,3.8835,3.7387,3.6174,3.521,0.0,3.3904,3.3921,3.4757,3.5695,3.6562,3.7401,3.7637,3.6889,3.6708,3.6334,3.5565,3.527,3.5049,3.4868,3.2893,3.1678,3.1473,2.9003,2.7262,2.6436,2.3908,0.0,0.0,0.0,0.0,0.0,0.0,0.0,0.0,0.0,0.0,0.0,0.0,0.0,0.0,0.0,0.0,0.0,0.0,0.0,0.0,0.0,0.0,0.0,0.0,0.0,0.0,0.0,0.0,3.3958,3.5768,0.0,3.5438,3.6195,3.7107,3.7943,3.9248,4.0874,4.2863,4.3586,4.4562,4.5969,4.5887,4.6157,4.6859,4.6627,4.6685,4.7005,4.6996,4.6817,4.6515,4.6544,4.6374,4.6083,4.6083,4.6054,4.5998,4.5302,4.4553,4.3832,4.3498,4.2856,4.2117,4.2279,4.2035,4.1577,4.1751,4.1584,4.1199,4.0391,3.8866,3.7217,3.6688,3.6202,3.6028,3.7153,3.7917,3.8735,4.0087,4.087,4.1381,4.1825,4.2104,4.2159,4.1821,4.1856,4.165,4.0523,3.9433,3.8117,3.6462,3.64,3.6223,3.5172,3.6618,3.7928,3.8235,3.8527,3.8604,3.8312,3.7279,3.6431,3.5938,3.5283,3.4528,3.3615,3.2348,3.1278,3.0453,2.8524,2.7071,2.6227,2.4313,2.1996,0.0,0.0,0.0,0.0,0.0,0.0,0.0,0.0,0.0,0.0,0.0,0.0,0.0,0.0,0.0,0.0,0.0,0.0,0.0,0.0,0.0,0.0,0.0,0.0,0.0,0.0,3.4486,3.6382,3.8393,3.9226,3.821,3.9448,4.056,4.1086,4.2621,4.3989,4.5094,4.5772,4.6384,4.6892,4.6821,4.696,4.7252,4.7149,4.7186,4.7466,4.7516,4.7398,4.7137,4.7137,4.6987,4.6756,4.6707,4.6707,4.6719,4.6146,4.5357,4.4482,4.4371,4.3992,4.3505,4.3403,4.3032,4.2548,4.253,4.2251,4.1793,4.0513,3.9307,3.8254,3.8036,3.8001,3.8152,3.8738,3.9177,3.9688,4.0629,4.1286,4.1853,4.2418,4.2747,4.2792,4.2322,4.234,4.2258,4.1548,4.0887,3.9917,3.8328,3.8517,3.8477,3.7236,3.8427,3.9463,3.95,3.9409,3.9221,3.8935,3.7812,3.6787,3.6004,3.515,3.4223,3.3179,3.1869,3.0846,3.0152,2.8327,2.7031,2.6428,2.4391,2.2397,2.0389,0.0,0.0,0.0,0.0,0.0,0.0,0.0,0.0,0.0,0.0,0.0,0.0,0.0,0.0,0.0,0.0,0.0,0.0,0.0,0.0,0.0,0.0,0.0,3.2317,3.5179,3.7294,3.7528,4.0131,4.1314,3.982,4.2294,4.3971,4.3971,4.5389,4.6225,4.6225,4.6262,4.6262,4.6262,4.6262,4.6631,4.7424,4.7424,4.783,4.8587,4.8732,4.8379,4.762,4.762,4.7228,4.6568,4.6431,4.6431,4.6568,4.6394,4.5602,4.4546,4.417,4.3767,4.3437,4.3177,4.2844,4.2463,4.2346,4.164,4.0802,4.0802,4.0087,3.9272,3.9272,3.9379,3.9484,3.9484,3.959,3.9816,4.0319,4.0767,4.1258,4.1796,4.2251,4.2609,4.2609,4.2609,4.2456,4.2012,4.1741,4.1483,4.0985,4.0906,4.0779,4.0368,4.0253,0.0,4.0252,3.9963,3.9453,3.8639,3.8286,3.744,3.5815,3.4895,3.4227,3.3678,3.1488,3.0378,3.0743,2.8496,2.7202,2.7158,2.426,2.2184,2.1063,0.0,0.0,0.0,0.0,0.0,0.0,0.0,0.0,0.0,0.0,0.0,0.0,0.0,0.0,0.0,0.0,0.0,0.0,0.0,0.0,0.0,3.1935,3.4436,3.5355,3.772,3.9835,4.1146,4.3029,4.4042,4.3602,4.4767,4.5558,4.5558,4.65,4.7073,4.7073,4.7627,4.7941,4.7941,4.7941,4.8051,4.8255,4.8255,4.8365,4.8587,4.8642,4.8531,4.8309,4.8309,4.8216,4.8012,4.7994,4.7994,4.7957,4.7003,4.6375,4.6008,4.4926,4.3761,4.2696,4.2598,4.2274,4.1866,4.1977,4.1293,4.0334,4.0334,3.9714,3.8931,3.8931,3.904,3.9148,3.9148,3.9523,4.002,4.0563,4.1111,4.1666,4.2205,4.245,4.2609,4.2609,4.2609,4.2577,4.2423,4.2376,4.2097,4.1322,4.1232,4.1033,4.0321,4.0297,4.0134,3.958,3.9432,3.9357,3.9358,3.8746,3.8019,3.7254,3.5907,3.4356,3.2578,3.1171,3.0184,2.9661,2.8355,2.7236,2.6411,2.478,2.3532,0.0,0.0,0.0,0.0,0.0,0.0,0.0,0.0,0.0,0.0,0.0,0.0,0.0,0.0,0.0,0.0,0.0,0.0,0.0,0.0,0.0,0.0,3.4853,3.722,3.8296,3.99,4.1617,4.3508,4.4513,4.5183,4.5534,4.6225,4.667,4.667,4.7353,4.7795,4.7795,4.8237,4.8476,4.8476,4.8476,4.8476,4.8476,4.8476,4.8476,4.8476,4.8476,4.8476,4.8476,4.8458,4.8458,4.8476,4.8458,4.8307,4.8062,4.731,4.6543,4.5742,0.0,0.0,0.0,0.0,4.1874,4.1604,4.1719,4.1065,4.0186,4.0186,3.9542,3.8805,3.8805,3.9061,3.9365,3.9365,3.98,4.0449,4.0972,4.1338,4.1753,4.2305,4.2468,4.249,4.249,4.249,4.249,4.249,4.249,0.0,4.1794,4.1677,4.1256,4.0251,4.0178,3.99,3.9119,3.8915,3.8906,3.9072,3.8553,3.7978,3.7386,3.5891,0.0,0.0,0.0,2.9982,2.886,2.8312,0.0,0.0,0.0,0.0,0.0,0.0,0.0,0.0,2.389,2.393,0.0,0.0,0.0,0.0,0.0,0.0,0.0,0.0,0.0,0.0,0.0,0.0,0.0,0.0,0.0,0.0,3.7358,3.9598,4.0907,4.1641,4.2777,4.4699,4.5118,4.5524,4.6262,4.6966,4.7408,4.7408,4.7958,4.8306,4.8306,4.8306,0.0,0.0,0.0,4.8267,4.8267,4.8267,4.8267,4.8267,4.8267,4.8267,4.8267,4.813,4.8111,4.8172,4.8072,4.7756,4.7373,4.7263,4.6173,4.4523,4.3472,4.3058,4.2855,4.1939,4.156,4.1515,4.156,0.0,0.0,4.0136,3.9489,3.875,3.875,3.9189,3.9732,3.9732,4.0235,4.0896,4.1293,4.149,4.1622,4.2103,4.2205,4.2246,4.2246,4.2246,4.2287,4.2287,4.2287,4.2287,4.2287,4.2134,4.1537,4.032,4.0025,3.9676,3.8918,3.8486,3.8245,3.8259,3.8034,0.0,3.684,3.5447,3.4447,3.4017,3.187,3.0078,2.8816,2.8784,2.8438,2.7694,2.7635,2.8083,2.899,2.9664,2.9694,2.914,2.7146,2.6862,0.0,0.0,0.0,0.0,0.0,0.0,0.0,0.0,0.0,0.0,0.0,0.0,0.0,0.0,0.0,3.5728,3.8021,4.0097,4.1777,4.2654,4.3438,4.4345,4.5883,4.6911,4.7058,4.7702,4.8124,4.8124,4.8233,4.8306,4.8306,4.8306,4.8286,4.8226,4.8226,4.8169,4.8072,4.8072,4.8072,4.8072,4.8072,0.0,4.8032,4.7591,4.7385,4.7385,4.6955,4.671,4.6553,4.6209,4.5264,4.3958,4.284,4.2068,4.1583,4.1612,4.138,4.1059,4.1226,4.0594,3.9697,3.9697,3.9152,3.8504,3.8504,3.8843,0.0,3.9295,4.0053,4.0802,4.0896,4.1237,4.1587,4.1736,4.1736,4.178,4.1934,4.1977,4.2061,4.2246,4.2287,4.2287,4.2287,4.2342,4.207,4.1157,4.0528,3.9896,3.9153,3.8276,3.7809,3.8029,3.7875,3.7648,3.7434,3.6572,3.556,3.4533,3.3028,3.1998,3.1628,3.1641,3.1355,3.0615,3.0332,3.017,3.0156,3.03,3.0335,3.0312,2.9713,2.9005,0.0,0.0,0.0,0.0,0.0,0.0,0.0,0.0,0.0,0.0,0.0,3.0841,3.2093,0.0,3.5855,3.759,3.9127,4.0475,4.1749,4.2826,4.3816,4.4653,4.5647,4.6398,4.6795,4.7132,4.747,4.7738,4.7738,4.7856,4.8151,4.8151,4.8111,4.809,4.809,4.809,4.7992,4.7733,4.7591,4.7591,4.7273,4.7142,4.7142,4.6791,4.6653,4.6635,4.6371,4.6112,4.5815,4.532,4.4607,4.3676,4.3117,4.2274,4.1423,4.1566,4.1246,4.0662,4.0466,4.0003,3.9454,3.9172,3.8772,3.8391,3.8391,3.8788,3.9295,3.9295,4.0086,4.0896,4.0896,4.1255,4.1604,4.1604,4.1604,4.1648,4.1719,4.1762,4.1805,4.1934,4.1952,4.1952,4.1952,4.2012,4.1872,4.1292,4.081,4.0092,3.895,3.8226,3.7762,3.7504,3.7414,3.734,3.7321,3.6482,3.5407,3.4138,3.3294,3.2681,3.229,3.2105,3.1799,3.1241,3.1085,3.1022,3.1011,3.1011,3.0948,3.077,3.0724,3.0131,0.0,0.0,0.0,0.0,0.0,0.0,0.0,0.0,2.9459,3.1106,3.2602,3.4088,3.5485,3.6715,3.7939,3.9205,4.0038,4.0729,4.1387,4.2478,4.3558,4.4544,4.5135,4.5676,4.636,4.6383,4.6571,4.6999,4.7044,4.7237,4.765,4.7692,4.7692,4.7669,4.7669,4.7669,4.7609,4.7212,4.7017,4.6955,4.6484,4.6262,4.6244,4.6049,4.595,4.595,4.5868,4.5563,4.5125,4.4759,4.4253,4.3786,4.3786,4.2971,4.1732,4.1614,4.1085,4.0254,3.9765,3.9401,3.9098,3.8574,3.8327,3.8221,3.8262,3.8717,3.9226,3.9279,3.9986,4.0737,4.0737,4.099,4.1255,4.1318,4.1272,4.1255,4.1498,4.1453,4.1453,4.156,4.1604,4.1604,4.1604,4.1604,4.1525,4.1227,4.0914,4.0241,3.9045,3.8526,3.7959,3.7246,3.7119,3.7026,3.6788,3.5995,3.4988,3.3812,3.3443,3.2999,3.243,3.2128,3.1787,3.152,3.1454,3.1467,3.1605,3.1536,3.1263,3.0866,3.0999,3.0788,2.3782,2.4828,2.6691,2.9127,2.9471,3.0442,0.0,0.0,3.3876,3.5734,3.7029,3.7789,3.7635,3.8012,3.8556,3.9297,4.004,4.0736,4.131,4.1585,4.1976,4.2632,4.4802,4.6277,4.6365,4.6383,4.6413,4.646,4.6478,4.6524,4.6571,4.6571,4.6542,4.6484,4.6501,4.6436,4.6293,4.6244,4.6244,4.6244,4.6147,4.6098,4.6116,4.5597,4.5407,4.5355,4.4961,4.472,4.4665,4.4626,4.4592,4.4507,4.4507,4.3614,4.2226,4.1782,4.0798,3.9714,3.9594,3.9028,3.8214,3.8157,3.787,3.7594,3.7886,3.8254,3.8684,3.8952,3.9418,3.9749,3.9749,3.98,3.9919,4.032,4.0154,4.0103,4.1053,4.0943,4.0896,4.1498,4.1604,4.1604,4.1604,4.1604,4.1569,4.1525,4.0928,4.0375,4.02,3.9355,3.8512,3.7805,3.7567,3.7016,3.601,3.562,3.5206,3.4692,3.4072,3.3693,3.3593,3.3284,3.3108,3.3056,3.2654,3.2292,3.2023,3.16,3.1086,3.0387,3.0949,3.1099,2.776,2.8277,0.0,0.0,3.2425,3.3906,3.5478,3.6011,3.6469,3.7291,3.8496,3.928,3.8908,3.9298,3.9745,0.0,4.0282,4.072,4.1342,4.1182,4.116,4.1831,4.2489,4.3399,4.4509,4.463,4.4958,4.568,4.5783,4.5915,4.6227,4.6227,4.6227,4.6196,4.6196,4.6165,4.6098,4.58,4.5648,4.5597,4.5337,4.5249,4.5196,4.4998,4.4906,4.4906,4.4682,4.4587,4.4587,4.4587,4.4367,4.3972,4.3972,4.3081,4.1776,4.1572,4.0596,3.9335,3.8593,3.8197,3.7943,3.7551,3.7433,3.7417,3.7594,3.7754,3.7911,3.8286,3.8645,3.9011,3.9206,3.9401,3.9662,3.9833,3.9714,3.9817,4.05,4.0319,4.0203,4.0758,4.0628,4.0449,4.0449,4.0449,4.0449,4.0449,4.0683,4.061,3.9961,3.9359,3.8494,3.707,3.6705,3.6198,3.5287,3.4971,3.464,3.4252,3.3818,3.3355,3.2826,3.2547,3.2231,3.1992,3.1766,3.1465,3.1058,3.1188,3.0953,3.0452,3.1105,3.1523,2.9864,0.0,0.0,3.269,3.4894,3.6529,3.6087,3.7181,3.8196,3.8059,3.9004,3.9714,3.9262,3.9647,4.0031,4.0216,4.0247,4.043,4.1127,4.0522,4.0198,4.0871,4.0204,4.0342,4.2128,4.2635,4.3435,4.4698,4.4606,4.477,4.5338,4.5216,4.5216,4.5407,4.5407,4.5459,4.5597,4.5197,4.5001,4.4947,4.4648,4.4457,4.4457,4.4457,4.4327,4.4179,4.4179,4.4047,4.3856,4.3856,4.3588,4.3075,4.3136,4.2443,4.1369,4.1206,4.0242,3.8932,3.7979,3.7575,3.7417,3.6984,3.6968,3.7194,3.7254,3.7314,3.7373,3.7653,3.7969,3.8238,3.8495,3.8756,3.9011,3.9172,3.9119,3.9172,3.9731,3.9558,3.9454,3.9918,3.9782,3.961,3.961,3.9558,3.9506,3.9506,4.0086,4.0275,3.9617,3.9088,3.8253,3.6771,3.6274,3.5778,3.5136,3.4643,3.4244,3.383,3.3361,3.2772,3.2033,3.1781,3.1495,3.1029,3.1027,3.0875,3.0571,3.1031,3.1105,3.0797,3.1443,3.1977,0.0,0.0,3.2142,3.5263,3.6742,3.7832,3.915,3.9435,3.9247,3.8616,3.9031,3.9308,3.8662,3.8554,3.8785,3.9447,3.9554,3.977,4.0432,3.937,3.8784,3.9393,3.8302,3.803,3.9363,4.0778,4.2108,4.3446,4.2937,4.2876,4.3555,4.2937,4.2937,4.3555,4.3555,4.3823,4.435,4.435,4.4253,4.4155,4.4097,4.4114,4.4114,4.4114,4.3739,4.3059,4.3059,4.2691,4.2062,4.2062,4.2062,4.2062,4.2269,4.1949,4.1217,4.0719,3.9676,3.8444,3.8367,3.7576,3.6554,3.6492,3.6492,3.6616,3.6938,3.6999,3.706,3.7373,3.7401,3.7417,3.7476,3.7476,3.7578,3.8042,3.7812,3.7679,3.858,3.8652,3.8684,3.9135,3.9454,3.961,3.961,3.9401,3.9206,3.9206,3.8978,3.8945,3.9508,3.8667,3.7873,3.7511,3.6852,3.6234,3.5894,3.4968,3.4263,3.3888,3.2974,3.2216,3.1739,3.1667,3.1495,3.1029,3.1163,3.1171,3.1171,3.1395,3.1457,3.1471,3.2089,3.2384,0.0,0.0,3.3902,3.59,3.7343,3.8325,3.8852,3.8652,3.8307,3.7933,3.7496,3.7067,3.6747,3.6778,3.7023,3.7668,3.8147,3.8586,3.9275,3.8359,3.7615,3.7662,3.6978,0.0,3.7231,3.9013,0.0,4.2092,4.1931,4.208,4.2675,4.252,4.2395,4.2504,4.2504,4.2567,4.2769,4.2769,4.2769,4.2724,4.2724,4.2724,4.2724,4.2724,4.2583,4.2316,4.2316,4.2189,4.1997,4.1997,4.1755,4.1311,4.1377,4.1008,4.0339,3.9631,3.8741,3.7933,3.7833,3.7528,3.7092,3.663,3.6492,3.6492,3.6616,3.6693,3.6739,3.7044,3.7165,3.715,3.7358,3.7417,3.7417,3.7594,3.7535,3.7578,3.8181,3.8026,3.7911,3.8383,3.8311,3.8124,3.8124,3.8084,3.8026,3.8026,3.8181,3.8351,3.859,3.8044,3.7367,3.6805,3.6349,3.5862,3.525,3.4415,3.387,3.3783,3.3111,3.2509,3.2032,3.2032,3.1782,3.1354,3.1375,3.1409,3.1409,3.1847,3.2103,3.2117,3.2736,3.3016,3.1558,3.3169,3.4257,3.6084,3.7198,3.7908,3.805,3.7659,3.7102,3.6485,3.5428,3.4545,3.422,3.3828,3.4112,3.5931,3.6314,3.6892,3.8341,3.7725,3.6997,3.6764,3.6216,3.5913,0.0,0.0,0.0,4.0689,4.0927,4.123,4.1788,4.1641,4.1509,4.1625,4.1625,4.1739,4.1869,4.1853,4.1869,4.182,4.182,4.182,4.182,4.182,4.169,4.1494,4.1494,4.1147,4.0644,4.0644,4.0217,3.9531,3.9602,3.9361,3.8914,3.8428,3.8017,3.7551,3.7029,3.6633,3.64,3.5883,3.5737,3.5737,3.5879,3.5958,3.5958,3.6211,3.6274,3.6274,3.6477,3.6523,3.6523,3.6523,3.6523,3.6585,3.6874,3.6829,3.6768,3.7071,3.6995,3.6814,3.6814,3.6768,3.6646,3.6523,3.6753,3.7131,3.7653,3.7433,3.7037,3.6479,3.6057,3.5675,3.5243,3.4303,3.3752,3.3752,3.3092,3.2469,3.2033,3.1823,3.1641,3.1271,3.1481,3.1674,3.1822,3.2138,3.2277,3.2291,3.2382,3.2403,3.2112,3.2825,3.3463,3.5912,3.6507,3.6568,3.6967,3.6562,3.5601,3.4103,3.28,3.1693,3.0969,0.0,3.0208,3.3958,3.4105,3.4695,3.7457,3.7327,3.6819,0.0,0.0,0.0,0.0,0.0,0.0,3.9279,3.9718,4.013,4.0789,4.0231,4.0161,4.0789,4.0774,4.1028,4.1446,4.1446,4.1396,4.1229,4.1229,4.1229,4.1229,4.1229,4.0909,4.0324,4.0324,3.9478,3.8113,3.8113,3.763,3.688,3.7127,3.7204,3.7204,3.7357,3.7434,3.7249,3.5906,3.5067,3.4611,3.438,3.4245,3.4312,3.4728,3.4876,3.4876,3.4876,3.4876,3.4876,3.4876,3.4876,3.4876,3.4876,3.4876,3.4876,3.4876,3.5139,3.54,3.54,3.5597,3.5743,3.5743,3.5548,3.527,3.4942,3.4876,3.535,3.6739,3.6877,3.6754,3.6429,3.5943,3.5623,3.5623,3.451,3.3833,3.3833,3.2911,3.2127,3.1683,3.1285,3.1098,3.0991,3.1544,3.2,3.2303,3.2116,3.2015,3.2001,3.1267,3.0895,3.3025,3.4448,3.5654,3.6308,3.6193,3.5855,3.5568,3.3982,3.2139,3.0471,2.8914,2.734,2.5938,0.0,0.0,2.9012,3.0983,0.0,3.402,3.4539,0.0,3.4445,0.0,3.4979,3.4519,3.5485,0.0,0.0,3.7143,3.7622,3.8132,3.8026,3.7951,3.7907,3.7922,3.7968,3.8088,3.8088,3.8103,3.8043,3.8043,3.8043,3.8043,3.8043,3.7982,3.7785,3.7785,3.7558,3.7204,3.7204,3.7127,3.688,3.6958,3.6958,3.6894,3.636,3.6136,3.5878,3.4052,3.4272,3.5182,3.4166,3.3876,3.3876,3.3959,3.423,3.4447,3.4447,3.4662,3.4876,3.4876,3.4876,3.4876,3.4876,3.4876,3.4876,3.4876,3.4942,3.5008,3.5008,3.5059,3.5109,3.5109,3.5059,3.5008,3.4942,3.4662,3.4662,3.535,3.5415,3.5415,3.535,3.4927,3.4662,3.4662,3.3747,3.3182,3.3182,3.2779,3.257,3.243,3.2612,3.2388,3.1782,3.1932,3.1784,3.1276,3.1188,3.1193,3.118,3.097,3.0895,3.3339,3.4716,3.56,3.5319,3.5008,3.4339,3.2758,3.1128,2.9281,2.6808,2.5122,0.0,2.2565,2.3431,0.0,0.0,0.0,0.0,3.2364,3.3135,3.3462,0.0,3.3566,0.0,3.3322,3.4053,3.4472,0.0,3.5764,3.6759,3.7021,3.7035,3.7035,3.688,3.688,3.688,3.688,3.688,3.688,3.688,3.688,3.688,3.688,3.688,3.688,3.688,3.688,3.6738,3.6346,3.6267,3.6029,3.5789,3.5373,3.5292,3.5292,3.4485,3.4236,3.3996,3.2393,3.2515,3.3351,3.2949,3.255,3.2393,3.2522,3.2593,3.2579,3.2579,3.2721,3.2862,3.2862,3.2862,3.2862,3.2862,3.2862,3.2862,3.2862,3.2862,3.2862,3.2862,3.2862,3.2862,3.2862,3.2862,3.2862,3.2862,3.2721,3.265,3.2947,3.3808,3.4298,3.3984,3.3559,3.3213,3.3073,3.2321,3.1915,3.1988,3.1796,3.1663,3.1663,3.1589,3.1516,3.1341,3.118,3.1044,3.0745,3.0443,3.0215,3.0063,2.9833,2.9691,3.3395,3.4238,3.4499,3.3668,3.3388,3.2528,2.9574,2.8244,2.6739,2.336,0.0,2.0669,2.0001,2.0271,2.164,2.4924,0.0,2.8741,3.1227,3.2189,3.2562,3.2215,3.2227,3.2302,3.2302,3.2302,3.2302,3.2302,3.4762,3.6304,3.6304,3.6304,3.6318,3.6411,3.6318,3.6318,3.6411,3.6318,3.6304,3.6304,3.6304,3.6304,3.6304,3.6304,3.6304,3.6304,3.6304,3.5935,3.5237,3.4979,3.4581,3.405,3.3202,3.3031,3.3215,3.2575,3.2265,3.2056,3.1048,3.0655,3.0666,3.1122,3.0846,3.0456,3.0807,3.0581,3.0203,3.0203,3.0279,3.0266,3.0266,3.0266,3.0266,3.0266,3.0266,3.0266,3.0266,3.0266,3.0266,3.0266,3.0266,3.0266,3.0266,3.0266,3.0266,3.0266,3.0279,3.0279,3.0456,3.2092,3.3073,3.2595,3.2037,3.1629,3.1201,3.0732,3.0532,3.067,3.038,3.0241,3.0241,2.9793,2.9716,3.0165,2.9999,2.9986,3.0228,2.9537,2.9069,2.8755,2.8327,2.8099,3.3734,3.4153,3.4206,3.3065,3.2081,3.07,2.7883,2.574,0.0,0.0,1.9434,1.8246,1.6917,1.8464,2.0079,2.0834,0.0,0.0,0.0,0.0,3.1033,0.0,0.0,0.0,0.0,3.2302,0.0,0.0,3.2796,3.3126,3.3126,3.3126,3.3395,3.3953,3.3407,3.3395,3.4037,3.3395,3.3126,3.3126,3.3126,3.3126,3.3126,3.3126,3.3126,3.3126,3.3126,3.3054,3.2895,3.2809,3.2722,3.2661,3.2488,3.2488,3.2488,3.2314,3.2031,3.1662,3.0925,3.0421,3.0035,2.9683,2.9471,2.9381,2.9459,2.9614,2.9768,2.9768,3.0063,3.0266,3.0266,3.0266,3.0266,3.0266,3.0266,3.0266,3.0266,3.0266,3.0266,3.0266,3.0266,3.0266,3.0266,3.0266,3.0266,3.0266,2.9986,2.9858,2.9845,3.0594,3.1106,3.1018,3.0745,3.0443,3.0063,2.9781,2.9549,2.9381,2.9626,2.9781,2.9781,2.9986,2.9909,2.9316,2.9238,2.8937,2.8339,2.8271,2.7753,2.6964,2.7603,2.7522,3.2188,3.2417,3.2345,3.1474,3.0415,2.8787,2.5534,0.0,0.0,0.0,1.6887,1.6177,1.4949,0.0,0.0,0.0,0.0,0.0,0.0,0.0,0.0,0.0,0.0,0.0,0.0,2.9659,2.9841,3.0429,3.0429,3.0956,3.2215,3.2302,3.2488,3.2846,3.2488,3.2488,3.2846,3.2488,3.2215,3.194,3.194,3.1753,3.1553,3.1553,3.1553,3.1553,3.1553,3.1653,3.194,3.1488,3.1765,3.2215,3.1524,3.1448,3.1713,3.1359,3.0949,3.0438,2.9891,2.9368,2.8869,2.8333,2.8315,2.8633,2.8633,2.8554,2.8383,2.8383,2.853,2.8676,2.8676,2.8676,2.8676,2.8676,2.8323,2.7808,2.7394,2.7302,2.7302,2.7302,2.7302,2.7302,2.7302,2.7302,2.7302,2.7302,2.7082,2.7012,2.7163,2.7383,2.8036,2.9225,2.925,2.9015,2.8609,2.8462,2.8211,2.7787,2.7936,2.8004,2.8004,2.7636,2.7556,2.7775,2.7186,2.6707,2.6246,2.6246,2.5997,2.5484,2.5997,2.6069,3.0552,3.0773,3.0651,2.9971,2.8917,2.7054,2.3375,2.1241,0.0,0.0,1.4888,1.4559,1.373,0.0,0.0,0.0,0.0,0.0,0.0,0.0,0.0,0.0,0.0,0.0,2.7084,2.7189,0.0,2.8143,2.8236,2.9235,3.1689,3.1777,3.1777,3.1952,3.1677,3.1589,3.1777,3.1601,3.1323,3.0956,3.0956,3.0765,3.0371,3.0371,3.0371,3.0371,3.0383,3.0574,3.0956,3.0214,3.0406,3.1134,2.9886,2.9715,3.0158,2.9511,2.8992,2.8511,2.7995,2.7599,2.7139,2.6757,2.7103,2.7672,2.7672,2.7196,2.6633,2.6633,2.6633,2.6633,2.6633,2.6633,2.6633,2.6633,2.6019,2.5326,2.4669,2.4498,2.4498,2.4498,2.4498,2.4498,2.4498,2.4498,2.4402,2.4211,2.4211,2.419,2.4063,2.4245,2.5009,2.6591,2.7221,2.7325,2.6928,2.6928,2.667,2.6069,2.6069,2.6069,2.6069,2.5221,2.5136,2.6069,2.5221,2.4713,2.4713,2.4713,2.4553,2.4231,2.4553,2.4628,2.993,3.0461,3.0569,2.9412,2.7944,2.5858,2.223,0.0,0.0,1.4982,1.4059,1.371,1.3631,1.4153,0.0,0.0,0.0,0.0,0.0,0.0,0.0,0.0,0.0,0.0,2.6884,2.7084,2.7084,2.6672,2.6577,2.7725,3.0295,3.0023,3.0011,3.0633,2.9624,2.9349,2.9988,2.9463,2.9117,2.9024,2.9002,2.8899,2.8899,2.8899,2.8899,2.8899,2.8921,2.9013,2.8899,2.8143,2.7955,2.7945,2.7063,2.6768,2.6812,2.6319,2.589,2.5431,2.5269,2.4912,2.4444,2.468,2.5337,2.5986,2.5986,2.5411,2.4754,2.4754,2.4754,2.4754,2.4754,2.4754,2.4754,2.4754,2.4659,2.4573,2.4498,2.4498,2.4498,2.4498,2.4498,2.4498,2.4498,2.4498,2.4211,2.3268,2.3162,2.2805,2.1891,2.2611,2.2882,2.2224,2.4108,2.5221,2.4829,2.4978,2.4967,2.4659,2.4659,2.4659,2.4659,2.4573,2.4573,2.4659,2.4573,2.4488,2.4488,2.4488,2.4059,2.327,2.4145,2.4049,2.7993,2.8542,2.8492,2.8058,2.6106,2.3694,2.1275,0.0,1.5772,1.3832,1.3183,1.2919,1.2745,1.3115,1.373,0.0,1.5405,1.6576,1.885,0.0,0.0,0.0,0.0,0.0,0.0,0.0,2.508,2.545,2.6108,2.6863,2.7819,2.7735,2.7725,2.7985,2.7537,2.7442,2.7714,2.7453,2.7179,2.6904,2.6894,2.6703,2.6426,2.6426,2.6426,2.6426,2.6426,2.6617,2.6798,2.6234,2.633,2.6788,2.6214,2.6108,2.6335,2.5997,2.5542,2.5098,2.4753,2.4307,2.3943,2.4029,2.3943,2.3943,2.4734,2.4744,2.4498,2.4498,2.4498,2.4498,2.4498,2.4498,2.4317,2.379,2.3617,2.3357,2.2199,2.1933,2.1747,2.1203,2.1114,2.1114,2.1114,2.1114,2.0926,2.0549,2.0451,2.0361,1.9909,2.018,2.0279,1.9909,2.229,2.3517,2.2727,2.3345,2.3181,2.1957,2.2425,2.2513,2.1957,2.1364,2.1364,2.1868,2.1364,2.1114,2.1114,2.1114,2.0845,2.0494,2.0845,2.0845,2.5523,2.6165,2.6265,2.6265,2.4282,2.1682,0.0,1.6828,1.4223,1.2535,1.2169,1.2129,1.2067,1.2353,1.2868,0.0,1.3784,1.4572,1.6769,1.7943,0.0,0.0,0.0,2.2559,0.0,2.2698,2.3129,2.4205,2.4963,2.513,2.4818,2.4818,2.5208,2.6204,2.6011,2.5915,2.5915,2.5915,2.5828,2.546,2.545,2.5256,2.4894,2.4894,2.4688,2.4375,2.4786,2.4973,2.4944,2.4688,2.4973,2.5538,2.4963,2.4963,2.5169,2.4716,2.433,2.3992,2.3541,2.2957,2.2425,2.2522,2.1906,2.1293,2.2259,2.3076,2.3551,2.3551,2.3454,2.326,2.326,2.3076,2.2629,2.2013,2.1836,2.148,2.015,1.9886,1.9613,1.8972,1.8788,1.8788,1.8788,1.8788,1.8703,1.8427,1.8334,1.8241,1.7956,1.8149,1.8241,1.7956,1.9991,2.1123,2.0766,2.1309,2.123,1.9909,2.0378,2.0468,1.9819,1.9131,1.9139,1.9728,1.9131,1.8788,1.8788,1.8788,1.8788,1.8788,1.8788,1.8603,2.2475,2.3448,2.4014,2.4173,2.2585,2.0087,0.0,1.4955,1.3137,1.1224,1.0931,1.1174,1.1769,1.2026,1.2254,1.266,1.4003,1.542,1.6751,1.8575,0.0,0.0,0.0,2.1826,2.0666,2.0772,2.1505,2.2946,2.2745,2.2131,2.0987,2.0987,2.2374,2.5654,2.5178,2.4894,2.4894,2.4894,2.4894,2.4894,2.4894,2.4894,2.4894,2.4894,2.4267,2.3231,2.4375,2.4267,2.3231,2.3601,2.3728,2.3628,2.2937,2.2644,2.255,2.1784,2.1405,2.1397,2.0924,2.0085,1.9239,1.9438,1.8872,1.8033,1.8033,1.9621,2.1392,2.1392,2.0916,2.0339,2.0339,1.9613,1.888,1.888,1.888,1.888,1.8788,1.8788,1.8788,1.8788,1.8788,1.8788,1.8788,1.8788,1.8427,1.7512,1.7326,1.6958,1.592,1.6669,1.6951,1.592,1.6763,1.7785,1.8696,1.888,1.888,1.8788,1.8788,1.8788,1.8788,1.8796,1.8788,1.8788,1.8788,1.8788,1.8788,1.8788,1.8788,1.8788,1.8788,1.8241,1.8319,1.9334,1.9872,1.9726,1.8154,1.6281,1.4899,1.3084,1.1495,1.1046,1.088,1.0998,1.1418,1.1528,1.2044,1.3553,0.0,0.0,0.0,0.0,0.0,1.9299,2.0021,2.0208,0.0,0.0,1.9952,2.0364,2.0364,2.0158,1.9746,1.9746,2.0246,2.1237,2.1041,2.1049,2.1049,2.1049,2.1049,2.1049,2.1049,2.1049,2.1049,2.1049,2.0845,2.0531,2.0845,2.0845,2.0428,2.0554,2.0656,2.0554,2.0364,2.0123,1.9969,1.9413,1.9202,1.8938,1.8474,1.8133,1.794,1.7948,1.7755,1.7483,1.7483,1.8218,1.9063,1.9063,1.8872,1.8772,1.8772,1.8495,1.8226,1.8226,1.8403,1.8311,1.7677,1.7095,1.6525,1.5886,1.5114,1.462,1.462,1.462,1.453,1.416,1.4166,1.407,1.3698,1.3974,1.407,1.3698,1.398,1.4549,1.5609,1.6936,1.6922,1.4721,1.5947,1.6438,1.5798,1.5704,1.6082,1.6756,1.6756,1.6756,1.6756,1.6756,1.6756,1.6756,1.6756,1.6574,0.0,1.6037,1.6606,1.6483,1.5245,1.3777,1.2756,1.1403,1.0346,1.0275,1.0277,1.0387,1.0795,1.0947,1.1425,1.2772,1.3166,0.0,0.0,0.0,0.0,1.8289,0.0,0.0,0.0,1.8844,1.8715,1.9124,1.9228,1.902,1.861,1.861,1.8401,1.7975,1.8812,1.9228,1.9228,1.9228,1.9228,1.9228,1.9228,1.9228,1.9228,1.9228,1.902,1.861,1.902,1.8916,0.0,1.902,1.9228,1.9228,1.9228,1.9038,1.8716,1.8386,1.8162,1.7838,1.7413,1.7016,1.6734,1.6734,1.6156,1.5582,1.5582,1.6619,1.794,1.794,1.7755,1.7475,1.7475,1.6908,1.6337,1.6337,1.623,1.594,1.5298,1.4918,1.4441,1.38,1.3125,1.2727,1.2727,1.2727,1.2727,1.2727,1.2727,1.2727,1.2727,1.2727,1.2727,1.2727,1.2727,1.2829,1.3125,1.4651,1.474,1.2823,1.3866,1.4351,1.3709,1.3709,1.3992,1.4663,1.4663,1.4663,1.4663,1.4663,1.4663,1.4663,1.4663,1.4663,0.0,1.3364,1.3874,1.3978,1.3351,1.225,1.0661,0.998,0.0,0.9116,0.9204,0.9532,1.0104,1.028,1.0517,1.1013,0.0,0.0,0.0,0.0,0.0,0.0,1.726,0.0,1.8622,1.8019,1.7884,1.8916,1.902,1.8506,1.7582,1.7477,1.6948,1.5891,1.7765,1.8916,1.8916,1.902,1.902,1.902,1.902,1.902,1.902,1.902,1.8401,1.7582,1.8506,1.8401,1.7582,1.8506,1.902,1.902,1.902,1.8817,1.8484,1.8074,1.775,1.7515,1.7015,1.6257,1.5507,1.5507,1.4166,1.263,1.263,1.481,1.7267,1.7461,1.6807,1.6156,1.6156,1.474,1.3318,1.3318,1.2829,1.2242,1.2242,1.2436,1.2533,1.2533,1.2533,1.2436,1.2436,1.2436,1.2436,1.2436,1.2436,1.2436,1.2436,1.2436,1.2436,1.2436,1.2436,1.2047,1.1175,1.2047,1.2635,1.2533,1.2533,1.263,1.263,1.263,1.263,1.2727,1.2727,1.2727,1.2727,1.2727,1.2727,1.2727,1.2727,1.2727,0.835,0.0,0.9392,0.9435,0.9285,0.9007,0.0,0.8402,0.8444,0.0,0.0,0.9354,1.0229,1.003,1.0401,1.2365,0.0,0.0,1.5433,0.0,0.0,1.6407,1.6285,1.6243,1.6615,1.648,1.6418,1.6617,1.6723,1.6518,1.6311,1.6311,1.6205,1.5891,1.5553,1.5761,1.6624,1.6723,1.6723,1.6723,1.6723,1.6723,1.6723,1.6723,1.6518,1.6311,1.6518,1.6518,1.6311,1.6518,1.6723,1.6723,1.6723,1.6431,1.5891,1.4987,1.4366,1.3761,1.292,1.2517,1.2231,1.2231,1.1945,1.156,1.156,1.2134,1.27,1.2796,1.2608,1.242,1.242,1.2134,1.1755,1.1755,1.1755,1.1853,1.2052,1.1658,1.1268,1.1268,1.0592,1.001,1.001,0.9809,0.9903,1.0306,1.0002,0.9805,1.001,0.9805,0.9702,0.9702,0.9702,0.9706,0.9719,1.1565,1.2052,1.0404,1.1082,1.156,1.156,1.156,1.195,1.2727,1.2727,1.2727,1.2727,1.2727,1.2727,1.2727,1.2727,1.2727,0.6574,0.7386,0.8081,0.8081,0.822,0.8367,0.8311,0.0,0.0,0.0,0.0,0.0,0.9522,0.0,0.0,0.0,1.1528,0.0,0.0,0.0,1.5834,1.5913,1.5891,1.5891,1.5891,1.5891,1.5891,1.5891,1.5891,1.5678,1.5137,1.5137,1.4917,1.4261,1.3722,1.3943,1.5137,1.4589,1.4261,1.4261,1.4261,1.4261,1.4261,1.4261,1.4261,1.4261,1.4261,1.4261,1.4261,1.4261,1.4261,1.4261,1.4261,1.3968,1.355,1.2931,1.244,1.195,1.1365,1.117,1.117,1.117,1.0877,1.0489,1.0489,1.0096,0.9903,1.0877,1.117,1.117,1.117,1.0877,1.0489,1.0489,1.0293,1.0194,1.0293,1.0096,0.9899,0.9899,0.9418,0.9031,0.9031,0.8928,0.8924,0.9225,0.9027,0.8825,0.9031,0.8928,0.8825,0.8825,0.8825,0.8825,0.9031,0.9694,0.9989,0.9628,1.0109,1.0498,1.0498,1.0498,1.069,1.1277,1.1277,1.1277,1.1277,1.1277,1.1277,1.1277,1.1277,1.1277,0.6,0.7161,0.8202,0.8195,0.863,0.8952,0.8697,0.0,0.0,0.0,0.0,0.0,0.0,0.0,0.0,0.0,0.0,0.0,1.2188,1.3707,1.482,1.5293,1.5345,1.5345,1.5345,1.5345,1.5345,1.5345,1.5345,1.4917,1.3948,1.3948,1.3511,1.2413,1.22,1.2635,1.3619,1.2852,1.2417,1.2417,1.2417,1.2417,1.2309,1.2309,1.2309,1.2309,1.2309,1.2309,1.2417,1.2417,1.2417,1.2417,1.2417,1.2162,1.1794,1.1587,1.1327,1.0979,1.0783,1.0681,1.0681,1.0681,1.0096,0.9312,0.9312,0.8726,0.8333,1.0194,1.0681,1.0681,1.0681,0.9998,0.9312,0.9312,0.8825,0.8333,0.8432,0.8531,0.8726,0.8726,0.8726,0.8726,0.8726,0.8528,0.8425,0.8524,0.8322,0.8223,0.8226,0.8223,0.8223,0.8223,0.8223,0.8223,0.8226,0.7422,0.7524,0.8924,0.9027,0.9027,0.9027,0.9027,0.9126,0.9126,0.9229,0.9229,0.9229,0.9229,0.9327,0.9426,0.9426,0.9529,0.6542,0.7215,0.7638,0.7676,0.8427,0.8951,0.0,0.0,0.0,0.0,0.0,0.0,0.0,0.0,0.0,0.0,0.0,1.141,0.0,0.0,1.2573,1.293,0.0,1.2955,1.2955,1.2955,1.2955,1.2955,1.2955,1.2847,1.2635,1.2635,1.2635,1.2417,1.1433,1.1,1.1219,1.1978,1.2417,1.2417,1.2417,1.2309,1.2087,1.2087,1.2087,1.2087,1.2087,1.22,1.2417,1.2417,1.2417,1.2417,1.2417,1.2162,1.169,1.0759,1.0217,0.9706,0.8825,0.8531,0.8531,0.8531,0.8333,0.8237,0.8237,0.8137,0.8038,0.8432,0.8531,0.8531,0.8531,0.8333,0.8237,0.8237,0.8137,0.8137,0.8333,0.8432,0.8432,0.8432,0.8432,0.8432,0.8432,0.7534,0.6933,0.7425,0.6321,0.5525,0.5727,0.5525,0.5422,0.5422,0.5422,0.5525,0.5727,0.5627,0.5727,0.6224,0.6221,0.6221,0.6221,0.6623,0.6921,0.6921,0.7332,0.7537,0.7537,0.7537,0.7935,0.863,0.863,0.8931,0.532,0.5982,0.659,0.6722,0.7573,0.8414,0.0,0.0,0.0,0.0,0.0,0.0,0.0,0.0,0.0,0.0,0.0,1.1264,1.0769,1.1499,1.2079,0.0,1.2417,1.2417,1.2417,1.2417,1.2417,1.2417,1.2417,1.2087,1.1542,1.1437,1.1219,1.057,1.0025,0.9699,0.9699,1.0127,1.0347,1.046,1.0347,1.0233,1.0123,0.9904,0.9798,0.9798,0.9798,0.9904,1.0014,1.0014,1.0014,1.0006,1.0136,1.0056,0.9704,0.9214,0.8855,0.8627,0.8137,0.8038,0.8038,0.8038,0.8038,0.8038,0.8038,0.8038,0.8038,0.8038,0.8038,0.8038,0.8038,0.8038,0.8038,0.8038,0.8038,0.7839,0.7434,0.7335,0.7132,0.6526,0.6426,0.6426,0.6426,0.5927,0.5627,0.5824,0.5322,0.4824,0.4926,0.4924,0.4824,0.4824,0.4824,0.4824,0.4926,0.4427,0.4526,0.5525,0.5622,0.5622,0.5622,0.5822,0.5922,0.5922,0.6226,0.6429,0.6728,0.6728,0.7129,0.7736,0.7736,0.7935,0.443,0.509,0.5639,0.5987,0.0,0.0,0.0,0.0,0.0,0.0,0.0,0.0,0.0,0.0,0.0,0.846,0.9624,1.038,0.9788,1.0615,1.1331,1.1524,1.1546,1.1546,1.1546,1.1546,1.1546,1.1546,1.1546,1.1219,1.0351,1.0241,0.9805,0.8823,0.8826,0.8826,0.8716,0.8605,0.8716,0.8826,0.8488,0.8374,0.8266,0.8045,0.7934,0.7934,0.7934,0.7916,0.7999,0.7999,0.7978,0.7944,0.8059,0.804,0.7881,0.7935,0.7942,0.7942,0.7942,0.8038,0.8038,0.8038,0.8038,0.8038,0.8038,0.8038,0.7939,0.7739,0.764,0.764,0.7939,0.7839,0.764,0.764,0.7437,0.7033,0.6232,0.6032,0.5832,0.4924,0.4824,0.4824,0.4824,0.4624,0.4425,0.4425,0.4225,0.4024,0.4024,0.4024,0.4024,0.4024,0.4024,0.4024,0.4024,0.3324,0.3324,0.4624,0.4624,0.4624,0.4624,0.4824,0.4924,0.5027,0.5127,0.5527,0.6027,0.6027,0.6329,0.6939,0.6939,0.7039,0.5186,0.5341,0.541,0.6197,0.0,0.0,0.0,0.0,0.0,0.0,0.0,0.0,0.0,0.0,0.9953,1.013,0.9821,0.9203,0.8357,0.0,0.8981,0.9137,0.9158,0.9158,0.9158,0.9158,0.9158,0.9158,0.9158,0.9154,0.9047,0.9047,0.8823,0.8484,0.8823,0.8605,0.8045,0.8624,0.8732,0.8484,0.8156,0.7937,0.7718,0.7607,0.7607,0.7607,0.7607,0.7758,0.7855,0.7855,0.7785,0.7678,0.7775,0.7685,0.7545,0.7601,0.7646,0.7646,0.7942,0.8038,0.8038,0.8038,0.8038,0.8038,0.8038,0.8038,0.7839,0.6836,0.6537,0.6736,0.7739,0.7238,0.6537,0.6537,0.5729,0.5024,0.4924,0.4924,0.4924,0.4824,0.4824,0.4824,0.4824,0.4024,0.3324,0.3324,0.2421,0.1818,0.1818,0.1818,0.1818,0.1818,0.1818,0.1818,0.1818,0.1717,0.1717,0.1918,0.1918,0.1918,0.1918,0.2321,0.2823,0.333,0.3831,0.4332,0.4935,0.4935,0.5336,0.6042,0.6042,0.6439,0.4249,0.4573,0.4991,0.5288,0.0,0.0,0.0,0.0,0.0,0.0,0.0,0.0,0.0,0.0,0.8615,0.9511,0.9153,0.8586,0.824,0.8476,0.8587,0.8648,0.8655,0.8655,0.8655,0.8548,0.8444,0.8655,0.8337,0.8233,0.8444,0.823,0.8126,0.8015,0.8243,0.8249,0.8031,0.8268,0.7609,0.6065,0.7351,0.791,0.7834,0.7504,0.7393,0.7393,0.7393,0.7364,0.7425,0.7313,0.7177,0.7129,0.7157,0.7253,0.733,0.7378,0.7566,0.7769,0.6948,0.6739,0.6639,0.6132,0.6029,0.6029,0.6029,0.6029,0.5929,0.5527,0.5427,0.5527,0.5927,0.5727,0.5427,0.5427,0.5125,0.4624,0.3924,0.3823,0.3624,0.2923,0.2822,0.2822,0.2822,0.2521,0.222,0.222,0.1818,0.1617,0.1617,0.1617,0.1617,0.1617,0.1617,0.1617,0.1617,0.1617,0.1617,0.1617,0.1617,0.1617,0.1617,0.1818,0.212,0.2724,0.2925,0.3428,0.4334,0.4334,0.4636,0.5236,0.5236,0.5436,0.3658,0.4073,0.4539,0.0,0.0,0.0,0.0,0.0,0.0,0.0,0.0,0.0,0.0,0.0,0.0,0.0,0.8421,0.8113,0.8057,0.8247,0.8324,0.8269,0.8276,0.8276,0.8276,0.8065,0.8069,0.8276,0.7858,0.7756,0.7963,0.7868,0.7762,0.7654,0.7883,0.7563,0.6703,0.7696,0.7249,0.5391,0.6211,0.6658,0.6613,0.6184,0.6076,0.6076,0.6076,0.6054,0.6025,0.5917,0.5791,0.5652,0.5684,0.5817,0.5949,0.5947,0.615,0.6353,0.5536,0.5432,0.5432,0.4722,0.452,0.452,0.4724,0.4824,0.4724,0.4423,0.4323,0.4225,0.3925,0.4024,0.4323,0.4323,0.4024,0.3624,0.2822,0.2722,0.2521,0.1717,0.1617,0.1617,0.1617,0.1617,0.1617,0.1617,0.1617,0.1617,0.1617,0.1617,0.1617,0.1617,0.1617,0.1617,0.1617,0.1617,0.1617,0.1617,0.1617,0.1617,0.1617,0.1617,0.1818,0.2422,0.2422,0.2825,0.3732,0.3932,0.4234,0.4533,0.4734,0.4834,0.3778,0.3923,0.0,0.0,0.0,0.0,0.0,0.0,0.0,0.0,0.0,0.0,0.0,0.0,0.0,0.8538,0.7936,0.7594,0.7527,0.7747,0.7798,0.7734,0.7648,0.7648,0.7648,0.7648,0.7648,0.7648,0.7648,0.7648,0.7648,0.7979,0.788,0.7446,0.7566,0.6386,0.361,0.716,0.8295,0.7202,0.4685,0.3562,0.361,0.361,0.361,0.361,0.361,0.3574,0.3514,0.3514,0.3377,0.3123,0.3123,0.3123,0.3122,0.3218,0.3217,0.3217,0.3817,0.4318,0.4622,0.4016,0.3814,0.3915,0.4522,0.4724,0.4524,0.3524,0.3224,0.2923,0.1919,0.2422,0.3224,0.3224,0.2422,0.1617,0.1617,0.1617,0.1617,0.1617,0.1617,0.1617,0.1617,0.1617,0.1617,0.1617,0.1617,0.1617,0.1617,0.1617,0.1617,0.1617,0.1617,0.1617,0.1617,0.1617,0.1617,0.1617,0.1617,0.1617,0.1617,0.1617,0.1818,0.2422,0.2422,0.2623,0.323,0.3732,0.4033,0.4033,0.4533,0.4834,0.3829,0.4298,0.0,0.0,0.0,0.0,0.0,0.0,0.0,0.0,0.0,0.0,0.0,0.0,0.0,0.8575,0.7929,0.7353,0.7293,0.74,0.7415,0.7354,0.736,0.736,0.736,0.716,0.7163,0.7579,0.7074,0.6975,0.7289,0.7091,0.6159,0.4504,0.596,0.6382,0.5553,0.7757,0.8371,0.7181,0.3059,0.1021,0.1025,0.1025,0.1025,0.1025,0.1025,0.1022,0.1119,0.1119,0.1014,0.0908,0.0908,0.0908,0.0908,0.0908,0.0907,0.1008,0.1109,0.131,0.1411,0.1613,0.1916,0.2319,0.2521,0.2521,0.2521,0.212,0.212,0.2019,0.1718,0.1818,0.212,0.212,0.1818,0.1617,0.1617,0.1617,0.1617,0.1617,0.1617,0.1617,0.1617,0.1617,0.1617,0.1617,0.1617,0.1617,0.1617,0.1617,0.1617,0.1617,0.1617,0.1617,0.1617,0.1617,0.1617,0.1617,0.1617,0.1617,0.1617,0.1617,0.1818,0.2422,0.2422,0.2623,0.323,0.3331,0.343,0.343,0.3632,0.3632,0.3971,0.0,0.0,0.0,0.0,0.0,0.0,0.0,0.0,0.0,0.0,0.8311,0.7697,0.7619,0.0,0.799,0.7575,0.7138,0.7042,0.7039,0.7039,0.6936,0.6836,0.6836,0.6836,0.6745,0.6753,0.7062,0.5849,0.5247,0.5553,0.607,0.5768,0.4545,0.4043,0.3843,0.3843,0.4865,0.5069,0.4255,0.1415,-0.0,-0.0,-0.0,-0.0,-0.0,-0.0,-0.0,-0.0,-0.0,-0.0,-0.0,-0.0,-0.0,-0.0,-0.0,-0.0,-0.0,-0.0,-0.0,0.0101,0.0404,0.0707,0.101,0.1516,0.1617,0.1617,0.1617,0.1617,0.1617,0.1617,0.1617,0.1617,0.1617,0.1617,0.1617,0.1617,0.1617,0.1617,0.1617,0.1617,0.1617,0.1617,0.1617,0.1617,0.1617,0.1617,0.1617,0.1617,0.1617,0.1617,0.1617,0.1617,0.1617,0.1617,0.1314,0.1111,0.1111,0.1111,0.1111,0.1111,0.1415,0.1717,0.212,0.212,0.2221,0.2524,0.2826,0.2927,0.2927,0.313,0.323,0.0,0.0,0.0,0.0,0.0,0.0,0.0,0.0,0.0,0.0,0.0,0.757,0.6614,0.7423,0.7962,0.6921,0.6942,0.7039,0.6842,0.6745,0.6642,0.6437,0.6439,0.6439,0.6439,0.6353,0.6364,0.6366,0.4638,0.3325,0.2922,0.4752,0.5778,0.5778,0.202,-0.0,-0.0,-0.0404,-0.0606,-0.0606,-0.0606,-0.0505,-0.0303,-0.0101,-0.0,-0.0,-0.0,-0.0,-0.0,-0.0,-0.0,-0.0,-0.0,-0.0,-0.0,-0.0,-0.0,-0.0,-0.0,-0.0,-0.0,-0.0,-0.0,0.0303,0.1212,0.1516,0.1617,0.1617,0.1617,0.1617,0.1617,0.1617,0.1617,0.1617,0.1617,0.1617,0.1617,0.1617,0.1617,0.1617,0.1617,0.1617,0.1617,0.1617,0.1617,0.1617,0.1617,0.1617,0.1617,0.1516,0.1516,0.1516,0.1516,0.1415,0.1414,0.0808,0.0404,0.0303,0.0303,0.0303,0.0303,0.1111,0.1617,0.1617,0.1617,0.1617,0.1617,0.212,0.2321,0.2321,0.2826,0.3029,0.0,0.0,0.0,0.0,0.0,0.0,0.0,0.0,0.0,0.0,0.7508,0.7006,0.6736,0.6918,0.7105,0.6839,0.6639,0.6537,0.6537,0.645,0.6453,0.6437,0.6356,0.6364,0.6358,0.6366,0.6377,0.6382,0.5977,0.4244,0.0908,0.1111,0.1414,0.1414,0.0505,-0.0,-0.0,-0.334,-0.5067,-0.5061,-0.5061,-0.4142,-0.2418,-0.0807,-0.0,-0.0,-0.0,-0.0,-0.0,-0.0,-0.0,-0.0,-0.0,-0.0,-0.0,-0.0,-0.0,-0.0,-0.0,-0.0,-0.0,-0.0,0.0303,0.0707,0.0909,0.1313,0.1617,0.1617,0.1617,0.1617,0.1617,0.1617,0.1617,0.1617,0.1617,0.1617,0.1617,0.1617,0.1617,0.1617,0.1617,0.1617,0.1617,0.1617,0.1617,0.1617,0.1617,0.1617,0.1617,0.101,0.0707,0.0707,0.0707,0.0404,-0.0202,0.0101,0.0101,-0.0504,-0.0504,-0.0504,-0.0504,0.0808,0.1617,0.1617,0.1617,0.1617,0.1617,0.1718,0.1818,0.1818,0.192,0.192,0.0,0.0,0.0,0.0,0.0,0.0,0.0,0.0,0.0,0.7313,0.7033,0.6639,0.6639,0.6639,0.6639,0.6639,0.6537,0.6439,0.6448,0.6358,0.6055,0.5031,0.5756,0.5967,0.4941,0.5763,0.6385,0.639,0.4452,0.2324,0.0101,-0.0,-0.0,-0.0,-0.0,-0.101,-0.3031,-0.5269,-0.5881,-0.4851,-0.5871,-0.5768,-0.4642,-0.252,-0.1513,-0.1513,-0.1513,-0.1513,-0.1513,-0.1513,-0.1513,-0.1513,-0.1513,-0.1513,-0.1513,-0.1513,-0.1513,-0.1513,-0.1513,-0.1513,-0.1513,-0.1513,-0.131,-0.1109,-0.0806,-0.0806,-0.1008,-0.1008,-0.0504,0.0101,0.0101,0.0504,0.0909,0.0505,0.101,0.1617,0.1617,0.1617,0.1617,0.1617,0.1617,0.1617,0.1617,0.1313,0.1111,0.1516,0.0909,0.0606,0.101,0.0303,-0.0202,-0.0202,-0.0202,-0.0303,-0.0806,-0.0807,-0.0908,-0.131,-0.1411,-0.1411,-0.1411,-0.0202,0.0404,0.0404,0.0404,0.0404,0.0404,0.0404,0.0404,0.0504,0.0808,0.101,0.0,0.0,0.0,0.0,0.0,0.0,0.0,0.0,0.0,0.6385,0.6423,0.6437,0.6437,0.6437,0.6437,0.6439,0.6439,0.6448,0.6364,0.6366,0.5653,0.3425,0.444,0.4849,0.3833,0.4651,0.5267,0.5267,0.202,-0.0,-0.0,-0.0,-0.0303,-0.1111,-0.1111,-0.2626,-0.5773,-0.6183,-0.5464,-0.3728,-0.5553,-0.6369,-0.6369,-0.4535,-0.3728,-0.3729,-0.3729,-0.3729,-0.3729,-0.3729,-0.3729,-0.3729,-0.3729,-0.3729,-0.3729,-0.3729,-0.3729,-0.3729,-0.3729,-0.3729,-0.3729,-0.3729,-0.3527,-0.3224,-0.282,-0.3022,-0.3527,-0.3527,-0.2718,-0.1711,-0.1711,-0.0907,-0.0202,-0.0907,-0.0101,0.101,0.1111,0.1212,0.1212,0.1212,0.1212,0.1212,0.1212,0.0606,0.0404,0.1111,0.0101,-0.0605,0.0101,-0.0504,-0.1008,-0.1008,-0.1008,-0.1109,-0.121,-0.1714,-0.2017,-0.2219,-0.2219,-0.2219,-0.2219,-0.1613,-0.121,-0.121,-0.0907,-0.0806,-0.0806,-0.0806,-0.0806,-0.0806,-0.0101,0.0202,0.0,0.0,0.0,0.0,0.0,0.0,0.0,0.0,0.6252,0.0,0.6369,0.6437,0.6437,0.6437,0.6442,0.6356,0.6358,0.6364,0.6374,0.6382,0.5567,0.3426,0.1815,0.2222,0.567,0.2829,0.0808,0.0808,0.0303,-0.0,-0.0,-0.0,-0.1717,-0.5471,-0.5571,-0.4956,-0.3629,-0.5457,-0.6271,-0.5954,-0.6247,-0.6442,-0.6342,-0.6137,-0.5947,-0.5967,-0.5967,-0.5967,-0.5967,-0.5967,-0.5967,-0.5967,-0.5967,-0.5967,-0.5967,-0.5967,-0.5967,-0.5967,-0.5967,-0.5967,-0.5967,-0.5967,-0.4947,-0.3729,-0.3629,-0.3123,-0.2618,-0.2618,-0.2416,-0.2315,-0.2315,-0.2114,-0.2014,-0.2115,-0.2014,-0.1611,-0.0706,-0.0504,-0.0504,-0.0504,-0.0504,-0.0504,-0.0504,-0.0605,-0.0605,-0.0504,-0.0706,-0.0806,-0.0605,-0.1311,-0.1815,-0.1815,-0.1815,-0.2118,-0.2826,-0.232,-0.232,-0.3027,-0.3029,-0.3029,-0.3029,-0.2927,-0.2927,-0.2927,-0.1513,-0.0806,-0.0806,-0.0806,-0.0806,-0.0806,-0.0706,-0.0605,0.0,0.0,0.0,0.0,0.0,0.0,0.0,0.0,0.5657,0.4797,0.5533,0.6396,0.6429,0.6356,0.6361,0.6369,0.5349,0.5046,0.6279,0.6388,0.5161,0.1816,0.0606,0.0707,0.2626,0.1111,-0.0,-0.0,-0.2223,-0.3539,-0.3539,-0.2422,-0.2622,-0.4545,-0.5768,-0.5967,-0.5041,-0.5959,-0.6361,-0.6448,-0.6439,-0.6437,-0.6437,-0.6437,-0.6442,-0.6353,-0.6353,-0.6353,-0.6353,-0.6353,-0.6353,-0.6353,-0.6353,-0.6353,-0.6353,-0.6353,-0.6353,-0.6353,-0.6353,-0.6353,-0.6353,-0.6353,-0.5844,-0.5233,-0.5233,-0.4929,-0.4626,-0.4626,-0.4425,-0.4225,-0.4225,-0.3623,-0.3219,-0.3624,-0.3422,-0.3019,-0.302,-0.2316,-0.1712,-0.1712,-0.141,-0.1208,-0.1208,-0.1411,-0.131,-0.0907,-0.1613,-0.2017,-0.1513,-0.2219,-0.2623,-0.2623,-0.2623,-0.2826,-0.313,-0.2826,-0.2826,-0.313,-0.323,-0.323,-0.323,-0.323,-0.323,-0.323,-0.2522,-0.2118,-0.2118,-0.2118,-0.2118,-0.2118,-0.1714,-0.1513,0.0,0.0,0.0,0.0,0.0,0.0,0.0,0.0,0.5196,0.0,0.4904,0.6426,0.644,0.6004,0.5722,0.6334,0.5035,0.4241,0.4655,0.4758,0.3539,0.0404,-0.0,-0.0,-0.0,-0.101,-0.1615,-0.1615,-0.4043,-0.5874,-0.6385,-0.4849,-0.4033,-0.4031,-0.5555,-0.6366,-0.6356,-0.6356,-0.645,-0.6437,-0.6437,-0.6437,-0.6437,-0.6437,-0.6437,-0.6437,-0.6437,-0.6437,-0.6437,-0.6437,-0.6437,-0.6437,-0.6437,-0.6437,-0.6437,-0.6437,-0.6437,-0.6437,-0.6437,-0.6437,-0.6437,-0.6437,-0.6437,-0.6437,-0.6437,-0.6437,-0.6437,-0.6437,-0.6137,-0.5834,-0.5834,-0.5029,-0.4425,-0.5033,-0.4728,-0.4425,-0.4732,-0.3827,-0.302,-0.282,-0.2517,-0.2214,-0.2014,-0.2218,-0.2118,-0.1513,-0.2422,-0.3027,-0.2422,-0.2826,-0.323,-0.323,-0.323,-0.323,-0.323,-0.323,-0.323,-0.323,-0.323,-0.323,-0.323,-0.323,-0.323,-0.323,-0.323,-0.323,-0.323,-0.323,-0.323,-0.323,-0.2623,-0.232,0.0,0.0,0.0,0.0,0.0,0.0,0.0,0.0,0.5152,0.3293,0.4762,0.6386,0.6415,0.476,0.4027,0.6116,0.6315,0.4857,0.0909,0.0303,0.0202,-0.0,-0.0,-0.0,-0.0,-0.3639,-0.6083,-0.6083,-0.4342,-0.4237,-0.6276,-0.6274,-0.6268,-0.6261,-0.6364,-0.6356,-0.6437,-0.6437,-0.6437,-0.6437,-0.6437,-0.6437,-0.6437,-0.6437,-0.6437,-0.6437,-0.6437,-0.6437,-0.6437,-0.6437,-0.6437,-0.6437,-0.6437,-0.6437,-0.6437,-0.6437,-0.6437,-0.6437,-0.6437,-0.6437,-0.6437,-0.6437,-0.6437,-0.6437,-0.6437,-0.6437,-0.6437,-0.6437,-0.6337,-0.6337,-0.6337,-0.6337,-0.6234,-0.6337,-0.6234,-0.6034,-0.5035,-0.4734,-0.4533,-0.4033,-0.3932,-0.3731,-0.3229,-0.313,-0.313,-0.313,-0.313,-0.323,-0.313,-0.313,-0.323,-0.323,-0.323,-0.323,-0.323,-0.323,-0.323,-0.323,-0.323,-0.323,-0.323,-0.323,-0.323,-0.323,-0.323,-0.323,-0.323,-0.323,-0.323,-0.323,-0.313,-0.313,0.0,0.0,0.0,0.0,0.0,0.0,0.0,0.1557,0.2243,0.2741,0.2544,0.3141,0.5888,0.3493,0.1444,0.212,0.2326,0.1752,0.0195,-0.0,-0.0978,-0.3767,-0.4072,-0.3589,-0.2215,-0.3429,-0.4951,-0.6279,-0.5658,-0.5553,-0.6369,-0.6356,-0.645,-0.6445,-0.6445,-0.6442,-0.6437,-0.6437,-0.6437,-0.6437,-0.6437,-0.6437,-0.6437,-0.6437,-0.6437,-0.6437,-0.6437,-0.6437,-0.6437,-0.6437,-0.6437,-0.6437,-0.6437,-0.6437,-0.6437,-0.6437,-0.6437,-0.6437,-0.6437,-0.6437,-0.6437,-0.6437,-0.6437,-0.6437,-0.6437,-0.6437,-0.6437,-0.6437,-0.6437,-0.6437,-0.6437,-0.6437,-0.6437,-0.6437,-0.6437,-0.6337,-0.5934,-0.5834,-0.5737,-0.5534,-0.5236,-0.4935,-0.4734,-0.4133,-0.3831,-0.4133,-0.3632,-0.343,-0.4133,-0.3632,-0.3331,-0.3632,-0.343,-0.323,-0.323,-0.323,-0.323,-0.323,-0.323,-0.323,-0.323,-0.323,-0.323,-0.323,-0.323,-0.323,-0.323,-0.323,-0.323,-0.323,-0.323,-0.323,0.0,0.0,0.0,0.0,0.0,0.0,0.0067,0.0,0.0388,0.1696,0.0917,0.0857,0.3692,0.1891,-0.0,-0.0,-0.0,-0.0477,-0.1716,-0.1907,-0.2778,-0.4958,-0.5851,-0.5776,-0.435,-0.4178,-0.4796,-0.6211,-0.6339,-0.6353,-0.6353,-0.6442,-0.6437,-0.6437,-0.6437,-0.6437,-0.6437,-0.6437,-0.6437,-0.6437,-0.6437,-0.6437,-0.6437,-0.6437,-0.6437,-0.6437,-0.6437,-0.6437,-0.6437,-0.6437,-0.6437,-0.6437,-0.6437,-0.6437,-0.6437,-0.6437,-0.6437,-0.6437,-0.6437,-0.6437,-0.6437,-0.6437,-0.6437,-0.6437,-0.6437,-0.6437,-0.6437,-0.6437,-0.6437,-0.6437,-0.6437,-0.6437,-0.6437,-0.6437,-0.6437,-0.6437,-0.6437,-0.6437,-0.6337,-0.6137,-0.5837,-0.5536,-0.5336,-0.4734,-0.4433,-0.4734,-0.4234,-0.4033,-0.4734,-0.4033,-0.3632,-0.3932,-0.3531,-0.323,-0.323,-0.323,-0.323,-0.323,-0.323,-0.323,-0.323,-0.323,-0.323,-0.323,-0.323,-0.323,-0.323,-0.323,-0.323,-0.323,-0.323,-0.323,0.0,0.0,0.0,0.0,0.0,0.0,0.0124,0.0,-0.0,-0.0074,-0.0157,-0.0082,-0.0084,-0.0084,-0.0086,-0.0091,-0.0094,-0.1426,-0.5056,-0.5633,-0.5054,-0.3229,-0.4856,-0.6108,-0.6111,-0.6115,-0.6179,-0.6179,-0.627,-0.6426,-0.6426,-0.6429,-0.6434,-0.6437,-0.6437,-0.6437,-0.6437,-0.6437,-0.6437,-0.6437,-0.6437,-0.6437,-0.6437,-0.6437,-0.6437,-0.6437,-0.6437,-0.6437,-0.6437,-0.6437,-0.6437,-0.6437,-0.6437,-0.6437,-0.6437,-0.6437,-0.6437,-0.6437,-0.6437,-0.6437,-0.6437,-0.6437,-0.6437,-0.6437,-0.6437,-0.6437,-0.6437,-0.6437,-0.6437,-0.6437,-0.6437,-0.6437,-0.6437,-0.6437,-0.6437,-0.6437,-0.6437,-0.6437,-0.6237,-0.5734,-0.5636,-0.5436,-0.4935,-0.4834,-0.4834,-0.4834,-0.4834,-0.4834,-0.4834,-0.4334,-0.3932,-0.4033,-0.3531,-0.323,-0.323,-0.323,-0.323,-0.323,-0.323,-0.323,-0.323,-0.323,-0.323,-0.323,-0.323,-0.323,-0.323,-0.323,-0.323,-0.323,-0.323,-0.323,0.0744,0.0,0.0,0.0,0.0,0.0,0.0,0.0,-0.0566,-0.2674,-0.3083,-0.2765,-0.1742,-0.1701,-0.1813,-0.1847,-0.3138,-0.4045,-0.3734,-0.4845,-0.5519,-0.521,-0.5689,-0.6005,-0.6086,-0.6121,-0.614,-0.614,-0.6168,-0.6181,-0.6181,-0.6268,-0.6352,-0.6434,-0.6437,-0.6437,-0.6437,-0.6437,-0.6437,-0.6437,-0.6437,-0.6437,-0.6437,-0.6437,-0.6437,-0.6437,-0.6437,-0.6437,-0.6437,-0.6437,-0.6437,-0.6437,-0.6437,-0.6437,-0.6437,-0.6437,-0.6437,-0.6437,-0.6437,-0.6437,-0.6437,-0.6437,-0.6437,-0.6437,-0.6437,-0.6437,-0.6437,-0.6437,-0.6437,-0.6437,-0.6437,-0.6437,-0.6437,-0.6437,-0.6437,-0.6437,-0.6437,-0.6437,-0.6337,-0.6234,-0.6137,-0.6134,-0.5934,-0.5636,-0.5534,-0.5934,-0.4935,-0.4533,-0.5236,-0.4234,-0.3531,-0.3934,-0.3531,-0.323,-0.323,-0.323,-0.323,-0.323,-0.323,-0.323,-0.323,-0.323,-0.323,-0.323,-0.323,-0.323,-0.323,-0.323,-0.323,-0.323,-0.323,-0.323,0.0,0.0,0.0,0.0,0.0,0.0,0.0106,-0.0774,-0.1862,0.0,-0.3735,-0.3875,-0.2996,-0.3086,-0.3312,-0.3456,-0.4565,-0.5071,-0.4086,-0.4934,-0.57,-0.5757,-0.5812,-0.5866,-0.5931,-0.5983,-0.601,-0.601,-0.6056,-0.6181,-0.6178,-0.625,-0.6343,-0.6457,-0.6363,-0.6388,-0.6437,-0.6437,-0.6437,-0.6437,-0.6437,-0.6437,-0.6437,-0.6437,-0.6437,-0.6437,-0.6437,-0.6437,-0.6437,-0.6437,-0.6437,-0.6437,-0.6437,-0.6437,-0.6437,-0.6437,-0.6437,-0.6437,-0.6437,-0.6437,-0.6437,-0.6437,-0.6437,-0.6437,-0.6437,-0.6437,-0.6437,-0.6437,-0.6437,-0.6437,-0.6437,-0.6437,-0.6437,-0.6437,-0.6437,-0.6437,-0.6437,-0.6437,-0.6437,-0.6437,-0.6437,-0.6437,-0.6437,-0.6134,-0.6037,-0.6337,-0.5636,-0.5236,-0.5837,-0.4935,-0.4334,-0.4634,-0.4234,-0.3732,-0.3531,-0.3732,-0.3632,-0.323,-0.343,-0.343,-0.323,-0.323,-0.323,-0.323,-0.323,-0.323,-0.323,-0.323,-0.323,-0.323,-0.323,-0.323,0.0,0.0,0.0,0.0,0.0695,0.0,-0.0446,-0.1938,-0.2905,0.0,-0.2968,-0.3824,-0.3878,-0.4069,-0.4362,-0.464,-0.4866,-0.5056,-0.5256,-0.5389,-0.5454,-0.5532,-0.5627,-0.5697,-0.5711,-0.5803,-0.5869,-0.5882,-0.5986,-0.6145,-0.6341,-0.6156,-0.6214,-0.6526,-0.6343,-0.6304,-0.6418,-0.6418,-0.6423,-0.6437,-0.6437,-0.6437,-0.6437,-0.6437,-0.6437,-0.6437,-0.6437,-0.6437,-0.6437,-0.6437,-0.6437,-0.6437,-0.6437,-0.6437,-0.6437,-0.6437,-0.6437,-0.6437,-0.6437,-0.6437,-0.6437,-0.6437,-0.6437,-0.6437,-0.6437,-0.6437,-0.6437,-0.6437,-0.6437,-0.6437,-0.6437,-0.6437,-0.6437,-0.6437,-0.6437,-0.6437,-0.6437,-0.6437,-0.6437,-0.6437,-0.6437,-0.6437,-0.6437,-0.6437,-0.6437,-0.6437,-0.6337,-0.6337,-0.6337,-0.5837,-0.5534,-0.5534,-0.5135,-0.4634,-0.4133,-0.4533,-0.4433,-0.343,-0.3831,-0.3833,-0.3432,-0.3331,-0.3331,-0.3331,-0.323,-0.323,-0.323,-0.323,-0.323,-0.323,-0.323,-0.323,0.0729,0.0762,0.0808,0.0567,0.0643,0.0,-0.0761,-0.0567,-0.069,0.0,-0.3179,-0.342,-0.3629,-0.384,-0.3995,-0.4041,-0.4374,-0.4762,-0.5298,-0.5393,-0.5407,-0.5407,-0.5426,-0.5477,-0.5578,-0.5521,-0.5659,-0.576,-0.5787,-0.5932,-0.6308,-0.6031,-0.6084,-0.6395,-0.6214,-0.6181,-0.6301,-0.6301,-0.6347,-0.6437,-0.6639,-0.6639,-0.6437,-0.6639,-0.6639,-0.6437,-0.6437,-0.6437,-0.6437,-0.6437,-0.6437,-0.6437,-0.6437,-0.6437,-0.6437,-0.6437,-0.6437,-0.6437,-0.6437,-0.6437,-0.6437,-0.6437,-0.6437,-0.6437,-0.6437,-0.6437,-0.6437,-0.6437,-0.6437,-0.6437,-0.6437,-0.6437,-0.6437,-0.6437,-0.6437,-0.6437,-0.6437,-0.6437,-0.6437,-0.6437,-0.6437,-0.6437,-0.6437,-0.6437,-0.6437,-0.6437,-0.6037,-0.5734,-0.5734,-0.5336,-0.4935,-0.4935,-0.4834,-0.4734,-0.4634,-0.4734,-0.4734,-0.4533,-0.4634,-0.4634,-0.4533,-0.4533,-0.4332,-0.3833,-0.343,-0.323,-0.323,-0.323,-0.323,-0.323,-0.323,-0.323,-0.0424,-0.0162,-0.0112,-0.0559,0.0,0.0,0.0,-0.1667,-0.1867,-0.3261,-0.3398,-0.339,-0.3626,-0.3719,-0.3797,-0.3853,-0.4137,-0.4423,-0.4787,-0.4991,-0.5102,-0.5102,-0.5205,-0.5301,-0.5363,-0.551,-0.5658,-0.5723,-0.5872,-0.6019,-0.6263,-0.623,-0.623,-0.6453,-0.6276,-0.6244,-0.6176,-0.6238,-0.6393,-0.6547,-0.6711,-0.6742,-0.6639,-0.6742,-0.6642,-0.6437,-0.6437,-0.6437,-0.6437,-0.6437,-0.6437,-0.6437,-0.6437,-0.6437,-0.6437,-0.6437,-0.6437,-0.6437,-0.6437,-0.6437,-0.6437,-0.6437,-0.6437,-0.6437,-0.6437,-0.6437,-0.6437,-0.6437,-0.6437,-0.6437,-0.6437,-0.6437,-0.6437,-0.6437,-0.6437,-0.6437,-0.6437,-0.6437,-0.6437,-0.6437,-0.6437,-0.6437,-0.6437,-0.6437,-0.6437,-0.6437,-0.6137,-0.6037,-0.6037,-0.5737,-0.5634,-0.5634,-0.5634,-0.5534,-0.5236,-0.5436,-0.5336,-0.4834,-0.5035,-0.5035,-0.4834,-0.4834,-0.4634,-0.4435,-0.4133,-0.4033,-0.4033,-0.4033,-0.3732,-0.323,-0.323,-0.323,0.0,-0.1668,-0.1638,-0.1994,0.0,-0.2395,0.0,0.0,0.0,-0.3682,-0.3501,-0.3428,0.0,0.0,0.0,-0.377,-0.3939,-0.4075,-0.4151,-0.4431,-0.4651,-0.4724,-0.492,-0.5056,-0.508,-0.5336,-0.5519,-0.5702,-0.5901,-0.6129,-0.6322,-0.6337,-0.6456,-0.6593,-0.66,-0.648,-0.633,-0.6623,-0.6891,-0.7036,-0.7245,-0.7313,-0.7338,-0.7534,-0.7431,-0.7126,-0.703,-0.6933,-0.6731,-0.6634,-0.6537,-0.6437,-0.6437,-0.6437,-0.6437,-0.6437,-0.6437,-0.6437,-0.6437,-0.6437,-0.6437,-0.6437,-0.6437,-0.6437,-0.6437,-0.6437,-0.6437,-0.6437,-0.6437,-0.6437,-0.6437,-0.6437,-0.6437,-0.6437,-0.6437,-0.6437,-0.6437,-0.6437,-0.6437,-0.6437,-0.6437,-0.6437,-0.6437,-0.6437,-0.6437,-0.6437,-0.6437,-0.6437,-0.6437,-0.6437,-0.6437,-0.6437,-0.6437,-0.6237,-0.5837,-0.6137,-0.6037,-0.5133,-0.5534,-0.5536,-0.5135,-0.5035,-0.5035,-0.5133,-0.5133,-0.5133,-0.5231,-0.5231,-0.4634,-0.3531,-0.3531,-0.3531,0.0,0.0,0.0,0.0,-0.3702,-0.3883,-0.3386,0.0,-0.3535,-0.3289,0.0,-0.331,0.0,0.0,0.0,0.0,0.0,-0.3823,-0.3678,-0.3786,-0.3996,-0.4322,-0.4474,-0.4594,-0.4776,-0.48,-0.5067,-0.5676,-0.5401,-0.565,-0.655,-0.6337,-0.6409,-0.6723,-0.7337,-0.7499,-0.7207,-0.8037,-0.837,-0.8283,-0.8979,-0.936,-0.9312,-0.9993,-1.0181,-0.9878,-0.9402,-0.8814,-0.8117,-0.7627,-0.7033,-0.6437,-0.6437,-0.6437,-0.6437,-0.6437,-0.6437,-0.6437,-0.6437,-0.6437,-0.6437,-0.6437,-0.6437,-0.6437,-0.6437,-0.6437,-0.6437,-0.6437,-0.6437,-0.6437,-0.6437,-0.6437,-0.6437,-0.6437,-0.6437,-0.6437,-0.6437,-0.6437,-0.6437,-0.6437,-0.6437,-0.6437,-0.6437,-0.6437,-0.6437,-0.6437,-0.6437,-0.6437,-0.6437,-0.6437,-0.6437,-0.6437,-0.6437,-0.6337,-0.6337,-0.6334,-0.6337,-0.6237,-0.6237,-0.6234,-0.6237,-0.5737,-0.5834,-0.6531,-0.6129,-0.6226,-0.6924,-0.6924,-0.6129,-0.4634,-0.4634,-0.4634,0.0,0.0,0.0,0.0,-0.4009,-0.3961,-0.3725,-0.3631,-0.3583,-0.3547,0.0,0.0,0.0,0.0,0.0,0.0,-0.3392,0.0,-0.3379,-0.3411,-0.3604,-0.4037,-0.4129,-0.4301,-0.4631,-0.4651,-0.481,-0.5173,-0.5249,-0.5728,-0.6684,-0.7129,-0.7612,-0.8209,-0.8653,-0.874,-0.8371,-0.8828,-0.9142,-0.9305,-0.969,-0.9879,-0.9862,-1.0363,-1.0408,-1.0114,-1.0134,-0.9694,-0.911,-0.8814,-0.8421,-0.7829,-0.7829,-0.7232,-0.6437,-0.6933,-0.6833,-0.6437,-0.6437,-0.6437,-0.6437,-0.6437,-0.6437,-0.6437,-0.6437,-0.6437,-0.6437,-0.6437,-0.6437,-0.6437,-0.6437,-0.6437,-0.6437,-0.6437,-0.6437,-0.6437,-0.6437,-0.6437,-0.6437,-0.6437,-0.6437,-0.6437,-0.6437,-0.6437,-0.6437,-0.6437,-0.6437,-0.6437,-0.6437,-0.6437,-0.6437,-0.6437,-0.6437,-0.6637,-0.7033,-0.7132,-0.7332,-0.773,-0.7829,-0.7829,-0.7829,-0.7528,-0.7627,-0.7925,-0.7726,-0.7826,-0.812,-0.812,-0.7822,-0.7126,-0.6528,-0.6229,-0.4148,0.0,-0.4232,-0.4102,-0.4026,-0.3958,-0.386,-0.3757,-0.3686,-0.3762,-0.3621,0.0,0.0,0.0,0.0,0.0,0.0,-0.3256,0.0,-0.3191,0.0,0.0,0.0,0.0,-0.4418,-0.4318,-0.4501,-0.5011,-0.5176,-0.583,-0.7163,-0.7798,-0.85,-0.9274,-0.9681,-0.9866,-0.9566,-0.9976,-1.0178,-1.0338,-1.0577,-1.0673,-1.0736,-1.1145,-1.1238,-1.1048,-1.1168,-1.0872,-1.0288,-0.9998,-0.9608,-0.9019,-0.9122,-0.8326,-0.7132,-0.773,-0.7531,-0.7033,-0.7033,-0.6933,-0.6736,-0.6736,-0.6537,-0.6437,-0.6437,-0.6437,-0.6437,-0.6437,-0.6437,-0.6437,-0.6437,-0.6437,-0.6437,-0.6437,-0.6437,-0.6437,-0.6437,-0.6534,-0.6736,-0.6736,-0.6933,-0.7033,-0.7033,-0.6734,-0.6437,-0.6437,-0.6437,-0.6437,-0.6734,-0.6736,-0.6736,-0.6736,-0.6933,-0.7232,-0.7531,-0.7829,-0.8226,-0.8726,-0.8825,-0.8825,-0.8825,-0.8825,-0.8924,-0.9122,-0.9122,-0.9221,-0.9414,-0.9414,-0.9414,-0.9418,-0.8219,-0.7624,-0.4518,-0.4613,-0.4523,-0.4058,-0.4026,-0.402,-0.3675,-0.3765,-0.386,-0.3637,-0.3765,-0.3849,-0.3632,0.0,0.0,0.0,0.0,0.0,0.0,0.0,0.0,0.0,0.0,0.0,0.0,-0.3702,-0.4065,-0.5563,-0.5236,-0.5917,-0.7943,-0.8107,-0.8553,-0.9424,-1.0391,-1.0757,-1.0544,-1.1419,-1.1804,-1.1515,-1.206,-1.2456,-1.2597,-1.3408,-1.3812,-1.3731,-1.3521,-1.2942,-1.2145,-1.117,-1.0293,-0.9608,-0.9817,-0.9422,-0.8726,-0.8726,-0.8726,-0.8722,-0.8722,-0.8226,-0.7531,-0.7531,-0.7033,-0.6437,-0.6437,-0.6437,-0.6437,-0.6437,-0.6437,-0.6437,-0.6437,-0.6437,-0.6437,-0.6437,-0.6437,-0.6437,-0.6437,-0.7033,-0.7531,-0.7531,-0.8226,-0.8722,-0.8722,-0.7431,-0.6437,-0.6437,-0.6437,-0.6634,-0.7431,-0.7531,-0.7531,-0.7531,-0.8226,-0.8425,-0.763,-0.8326,-0.8722,-0.8825,-0.8825,-0.8825,-0.8825,-0.8825,-0.9122,-0.992,-0.992,-1.0314,-1.1096,-1.1096,-1.1096,-1.1096,-0.9513,-0.8726,-0.4684,-0.4681,-0.4678,-0.4276,-0.4208,-0.4143,-0.3781,-0.3819,-0.3868,-0.3634,-0.377,-0.3863,-0.3629,0.0,0.0,0.0,0.0,0.0,0.0,0.0,0.0,0.0,0.0,0.0,0.0,0.0,-0.4498,-0.4997,-0.5567,-0.662,-0.8168,-0.879,-0.9697,-1.0806,-1.1472,-1.1847,-1.2009,-1.2272,-1.2404,-1.2319,-1.2498,-1.2626,-1.2721,-1.3177,-1.3483,-1.3658,-1.3743,-1.3469,-1.3039,-1.236,-1.1775,-1.1189,-1.09,-1.0605,-1.0306,-0.9817,-0.9221,-0.8825,-0.8825,-0.8627,-0.8425,-0.8425,-0.8226,-0.8028,-0.8028,-0.8028,-0.7829,-0.7332,-0.7531,-0.773,-0.6634,-0.6833,-0.7232,-0.7232,-0.7232,-0.7332,-0.7829,-0.8226,-0.8425,-0.8425,-0.8623,-0.8825,-0.8825,-0.8326,-0.8028,-0.8028,-0.8028,-0.8127,-0.8326,-0.8425,-0.8425,-0.8425,-0.8627,-0.8924,-0.9122,-0.9912,-1.0404,-1.0404,-1.0404,-1.0404,-1.0404,-1.0404,-1.0507,-1.0801,-1.0801,-1.09,-1.1194,-1.1194,-1.1194,-1.1194,-1.0605,-1.0404,-0.48,-0.5067,-0.527,-0.4577,-0.4566,-0.4532,-0.3961,-0.3947,-0.4058,-0.4048,-0.4005,-0.4036,-0.4439,0.0,0.0,0.0,0.0,0.0,0.0,-0.3008,0.0,0.0,0.0,0.0,0.0,0.0,-0.4595,-0.5409,-0.5933,0.0,0.0,-0.927,-1.0174,-1.1426,-1.195,-1.2343,-1.2699,-1.2705,-1.2705,-1.2705,-1.2705,-1.2705,-1.2711,-1.2994,-1.3218,-1.3393,-1.3755,-1.3814,-1.3599,-1.321,-1.2861,-1.2467,-1.198,-1.1688,-1.1389,-1.0708,-1.0113,-0.9612,-0.9612,-0.9418,-0.9221,-0.9221,-0.9023,-0.8825,-0.8825,-0.8825,-0.8726,-0.8127,-0.8425,-0.8524,-0.7531,-0.763,-0.8028,-0.8028,-0.8028,-0.8127,-0.8726,-0.9023,-0.9221,-0.9221,-0.9418,-0.9612,-0.9612,-0.9612,-0.9414,-0.8924,-0.8825,-0.8924,-0.9225,-0.9221,-0.9221,-0.9221,-0.9517,-0.9813,-1.0408,-1.09,-1.1194,-1.1194,-1.1194,-1.1194,-1.1194,-1.1194,-1.1194,-1.1194,-1.1194,-1.1194,-1.1194,-1.1194,-1.1194,-1.1194,-1.1194,-1.1194]},{"header":{"parameterUnit":"m.s-1","parameterCategory":1,"la1":30.6,"la2":29.2853,"lo1":-89.7004,"lo2":-87.6739,"dy":0.0162,"dx":0.0183,"nx":112,"ny":82,"refTime":"2024-08-07T18:00:00:Z","depth":0,"parameterNumber":3,"parameterNumberName":"V-component_of_WINDS"},"data":[0.0,0.0,0.0,0.0,0.0,0.0,0.0,0.0,0.0,0.0,0.0,0.0,0.0,0.0,0.0,0.0,0.0,0.0,0.0,0.0,0.0,0.0,0.0,0.0,0.0,0.0,0.0,0.0,0.0,0.0,0.0,0.0,0.0,0.0,0.0,0.0,0.0,0.0,0.0,0.0,0.0,0.0,0.0,0.0,0.0,0.0,0.0,0.0,0.0,0.0,0.0,0.0,0.0,0.0,0.0,0.0,0.0,0.0,0.0,0.0,0.0,0.0,0.0,0.0,0.0,0.0,0.0,0.0,0.0,0.0,0.0,0.0,0.0,0.0,0.0,0.0,0.0,0.0,0.0,0.0,0.0,0.0,0.0,0.0,0.0,0.0,0.0,0.0,0.0,0.0,0.0727,0.0397,0.0886,0.119,0.13,0.1243,0.1158,0.1113,0.0,0.0,0.0,0.0,0.0,0.0,0.0,0.0,0.0,0.0,0.0,0.0,0.0,0.0,0.0,0.0,0.0,0.0,0.0,0.0,0.0,0.0,0.0,0.0,0.0,0.0,0.0,0.0,0.0,0.0,0.0,0.0,0.0,0.0,0.0,0.0,0.0,0.0,0.0,0.0,0.0,0.0,0.0,0.0,0.0,0.0,0.0,0.0,0.0,0.0,0.0,0.0,0.0,0.0,0.0,0.0,0.0,0.0,0.0,0.0,0.0,0.0,0.0,0.0,0.0,0.0,0.0,0.0,0.0,0.0,0.0,0.0,0.0,0.0,0.0,0.0,0.0,0.0,0.0,0.0,0.0,0.0,0.0,0.0,0.0,0.0,0.0,0.0,0.0,0.0,0.0,0.0,0.0,0.0,0.0,0.0,0.0,0.0,0.0,0.0,0.0,0.0,0.0,0.0,0.0431,0.0075,0.0466,0.0873,0.13,0.1223,0.1144,0.1077,0.0,0.0,0.0,0.0,0.0,0.0,0.0,0.0,0.0,0.0,0.0,0.0,0.0,0.0,0.0,0.0,0.0,0.0,0.0,0.0,0.0,0.0,0.0,0.0,0.0,0.0,0.0,0.0,0.0,0.0,0.0,0.0,0.0,0.0,0.0,0.0,0.0,0.0,0.0,0.0,0.0,0.0,0.0,0.0,0.0,0.0,0.0,0.0,0.0,0.0,0.0,0.0,0.0,0.0,0.0,0.0,0.0,0.0,0.0,0.0,0.0,0.0,0.0,0.0,0.0,0.0,0.0,0.0,0.0,0.0,0.0,0.0,0.0,0.0,0.0,0.0,0.0,0.0,0.0,0.0,0.0,0.0,0.0,0.0,0.0,0.0,0.0,0.0,0.0,0.0,0.0,0.0,0.0,0.0,0.0,0.0,0.0,0.0,0.0,0.0,0.0,0.0,0.0,-0.0299,-0.0328,-0.0,0.0158,0.0555,0.1219,0.1066,0.0992,0.1192,0.114,0.0,0.0,0.0,0.0,0.0,0.0,0.0,0.0,0.0,0.0,0.0,0.0,0.0,0.0,0.0,0.0,0.0,0.0,0.0,0.0,0.0,0.0,0.0,0.0,0.0,0.0,0.0,0.0,0.0,0.0,0.0,0.0,0.0,0.0,0.0,0.0,0.0,0.0,0.0,0.0,0.0,0.0,0.0,0.0,0.0,0.0,0.0,0.0,0.0,0.0,0.0,0.0,0.0,0.0,0.0,0.0,0.0,0.0,0.0,0.0,0.0,0.0,0.0,0.0,0.0,0.0,0.0,0.0,0.0,0.0,0.0,0.0,0.0,0.0,0.0,0.0,0.0,0.0,0.0,0.0,0.0,0.0,0.0,0.0,0.0,0.0,0.0,0.0,0.0,0.0,0.0,0.0,0.0,0.0,0.0,0.0,0.0,0.0,0.0,0.0,0.0,0.0,-0.0996,-0.1053,-0.0398,-0.0159,0.0237,0.0967,0.0826,0.0904,0.1298,0.1153,0.0,0.0,0.0,0.0,0.0,0.0,0.0,0.0,0.0,0.0,0.0,0.0,0.0,0.0,0.0,0.0,0.0,0.0,0.0,0.0,0.0,0.0,0.0,0.0,0.0,0.0,0.0,0.0,0.0,0.0,0.0,0.0,0.0,0.0,0.0,0.0,0.0,0.0,0.0,0.0,0.0,0.0,0.0,0.0,0.0,0.0,0.0,0.0,0.0,0.0,0.0,0.0,0.0,0.0,0.0,0.0,0.0,0.0,0.0,0.0,0.0,0.0,0.0,0.0,0.0,0.0,0.0,0.0,0.0,0.0,0.0,0.0,0.0,0.0,0.0,0.0,0.0,0.0,0.0,0.0,0.0,0.0,0.0,0.0,0.0,0.0,0.0,0.0,0.0,0.0,0.0,0.0,0.0,0.0,0.0,0.0,0.0,0.0,0.0,0.0,0.0,0.0,-0.1021,-0.1257,-0.1253,-0.0472,0.0,0.0079,0.0793,0.1272,0.1295,0.1155,0.0,0.0,0.0,0.0,0.0,0.0,0.0,0.0,0.0,0.0,0.0,0.0,0.0,0.0,0.0,0.0,0.0,0.0,0.0,0.0,0.0,0.0,0.0,0.0,0.0,0.0,0.0,0.0,0.0,0.0,0.0,0.0,0.0,0.0,0.0,0.0,0.0,0.0,0.0,0.0,0.0,0.0,0.0,0.0,0.0,0.0,0.0,0.0,0.0,0.0,0.0,0.0,0.0,0.0,0.0,0.0,0.0,0.0,0.0,0.0,0.0,0.0,0.0,0.0,0.0,0.0,0.0,0.0,0.0,0.0,0.0,0.0,0.0,0.0,0.0,0.0,0.0,0.0,0.0,0.0,0.0,0.0,0.0,0.0,0.0,0.0,0.0,0.0,0.0,0.0,0.0,0.0,0.0,0.0,0.0,0.0,0.0,0.0,0.0,0.0,0.0,0.0,-0.1061,-0.1221,0.0,-0.1021,-0.0628,-0.0079,-0.0148,-0.0,0.0442,0.0,0.0,0.0,0.0,0.0,0.0,0.0,0.0,0.0,0.0,0.0,0.0,0.0,0.0,0.0,0.0,0.0,0.0,0.0,0.0,0.0,0.0,0.0,0.0,0.0,0.0,0.0,0.0,0.0,0.0,0.0,0.0,0.0,0.0,0.0,0.0,0.0,0.0,0.0,0.0,0.0,0.0,0.0,0.0,0.0,0.0,0.0,0.0,0.0,0.0,0.0,0.0,0.0,0.0,0.0,0.0,0.0,0.0,0.0,0.0,0.0,0.0,0.0,0.0,0.0,0.0,0.0,0.0,0.0,0.0,0.0,0.0,0.0,0.0,0.0,0.0,0.0,0.0,0.0,0.0,0.0,0.0,0.0,0.0,0.0,0.0,0.0,0.0,0.0,0.0,0.0,0.0,0.0,0.0,0.0,0.0,0.0,0.0,0.0,0.0,0.0,0.0,-0.0967,-0.1124,-0.1217,0.0,-0.1335,-0.1021,-0.0314,-0.0661,-0.0678,-0.031,0.0,0.0,0.0,0.0,0.0,0.0,0.0,0.0,0.0,0.0,0.0,0.0,0.0,0.0,0.0,0.0,0.0,0.0,0.0,0.0,0.0,0.0,0.0,0.0,0.0,0.0,0.0,0.0,0.0,0.0,0.0,0.0,0.0,0.0,0.0,0.0,0.0,0.0,0.0,0.0,0.0,0.0,0.0,0.0,0.0,0.0,0.0,0.0,0.0,0.0,0.0,0.0,0.0,0.0,0.0,0.0,0.0,0.0,0.0,0.0,0.0,0.0,0.0,0.0,0.0,0.0,0.0,0.0,0.0,0.0,0.0,0.0,0.0,0.0,0.0,0.0,0.0,0.0,0.0,0.0,0.0,0.0,0.0,0.0,0.0,0.0,0.0,0.0,0.0,0.0,0.0,0.0,0.0,0.0,0.0,0.0,0.0,0.0,0.0,0.0,0.0,0.0,-0.0973,-0.1093,-0.1264,-0.1329,-0.1335,-0.1178,-0.0864,-0.056,-0.0574,0.0,0.0,0.0,0.0,0.0,0.0,0.0,0.0,0.0,0.0,0.0,0.0,0.0,0.0,0.0,0.0,0.0,0.0,0.0,0.0,0.0,0.0,0.0,0.0,0.0,0.0,0.0,0.0,0.0,0.0,0.0,0.0,0.0,0.0,0.0,0.0,0.0,0.0,0.0,0.0,0.0,0.0,0.0,0.0,0.0,0.0,0.0,0.0,0.0,0.0,0.0,0.0,0.0,0.0,0.0,0.0,0.0,0.0,0.0,0.0,0.0,0.0,0.0,0.0,0.0,0.0,0.0,0.0,0.0,0.0,0.0,0.0,0.0,0.0,0.0,0.0,0.0,0.0,0.0,0.0,0.0,0.0,0.0,0.0,0.0,0.0,0.0,0.0,0.0,0.0,0.0,0.0,0.0,0.0,0.0,0.0,0.0,0.0,0.0,0.0,0.0,0.0,0.0,-0.1216,-0.1297,-0.1413,-0.1485,-0.1415,-0.1257,-0.1178,-0.1013,-0.0865,-0.0806,0.0,0.0,0.0,0.0,0.0,0.0,0.0,0.0,0.0,0.0,0.0,0.0,0.0,0.0,0.0,0.0,0.0,0.0,0.0,0.0,0.0,0.0,0.0,0.0,0.0,0.0,0.0,0.0,0.0,0.0,0.0,0.0,0.0,0.0,0.0,0.0,0.0,0.0,0.0,0.0,0.0,0.0,0.0,0.0,0.0,0.0,0.0,0.0,0.0,0.0,0.0,0.0,0.0,0.0,0.0,0.0,0.0,0.0,0.0,0.0,0.0,0.0,0.0,0.0,0.0,0.0,0.0,0.0,0.0,0.0,0.0,0.0,0.0,0.0,0.0,0.0,0.0,0.0,0.0,0.0,0.0,0.0,0.0,0.0,0.0,0.0,0.0,0.0,0.0,0.0,0.0,0.0,0.0,0.0,0.0,0.0,0.0,0.0,0.0,0.0,0.0,0.0,-0.1399,-0.157,-0.1709,-0.1641,-0.1493,-0.1415,-0.1335,-0.1247,-0.1156,-0.1012,0.0,0.0,0.0,0.0,0.0,0.0,0.0,0.0,0.0,0.0,0.0,0.0,0.0,0.0,0.0,0.0,0.0,0.0,0.0,0.0,0.0,0.0,0.0,0.0,0.0,0.0,0.0,0.0,0.0,0.0,0.0,0.0,0.0,0.0,0.0,0.0,0.0,0.0,0.0,0.0,0.0,0.0,0.0,0.0,0.0,0.0,0.0,0.0,0.0,0.0,0.0,0.0,0.0,0.0,0.0,0.0,0.0,0.0,0.0,0.0,0.0,0.0,0.0,0.0,0.0,0.0,0.0,0.0,0.0,0.0,0.0,0.0,0.0,0.0,0.0,0.0,0.0,0.0,0.0,0.0,0.0,0.0,0.0,0.0,0.0,0.0,0.0,0.0,0.0,0.0,0.0,0.0,0.0,0.0,0.0,0.0,0.0,0.0,0.0,0.0,0.0,0.0,-0.1526,-0.1982,-0.2079,-0.172,-0.165,-0.1572,-0.1336,-0.1394,-0.144,-0.1367,0.0,0.0,0.0,0.0,0.0,0.0,0.0,0.0,0.0,0.0,0.0,0.0,0.0,0.0,0.0,0.0,0.0,0.0,0.0,0.0,0.0,0.0,0.0,0.0,0.0,0.0,0.0,0.0,0.0,0.0,0.0,0.0,0.0,0.0,0.0,0.0,0.0,0.0,0.0,0.0,0.0,0.0,0.0,0.0,0.0,0.0,0.0,0.0,0.0,0.0,0.0,0.0,0.0,0.0,0.0,0.0,0.0,0.0,0.0,0.0,-0.3807,-0.3238,0.0,0.0,0.0,0.0,0.0,0.0,0.0,0.0,0.0,0.0,0.0,0.0,0.0,0.0,0.0,0.0,0.0,0.0,0.0,0.0,0.0,0.0,0.0,0.0,0.0,0.0,0.0,0.0,0.0,0.0,0.0,0.0,0.0,0.0,0.0,0.0,0.0,0.0,0.0,0.0,-0.1819,-0.1936,-0.2082,-0.2108,-0.1963,-0.1808,-0.1807,-0.1687,-0.1728,-0.2007,-0.1728,0.0,0.0,0.0,0.0,0.0,0.0,0.0,0.0,0.0,0.0,0.0,0.0,0.0,0.0,0.0,0.0,0.0,0.0,0.0,0.0,0.0,0.0,0.0,0.0,0.0,0.0,0.0,0.0,0.0,0.0,0.0,0.0,0.0,0.0,0.0,0.0,0.0,0.0,0.0,0.0,0.0,0.0,0.0,0.0,0.0,0.0,0.0,0.0,0.0,0.0,0.0,0.0,0.0,0.0,0.0,0.0,0.0,0.0,0.0,-0.4815,-0.4127,0.0,0.0,0.0,0.0,0.0,0.0,0.0,0.0,0.0,0.0,0.0,0.0,0.0,0.0,0.0,0.0,0.0,0.0,0.0,0.0,0.0,0.0,0.0,0.0,0.0,0.0,0.0,0.0,0.0,0.0,0.0,0.0,0.0,0.0,0.0,0.0,0.0,0.0,0.0,0.0,-0.1968,-0.2595,-0.2936,-0.25,-0.2434,-0.2277,-0.2199,-0.2175,-0.2362,-0.2747,-0.2602,0.0,0.0,0.0,0.0,0.0,0.0,0.0,0.0,0.0,0.0,0.0,0.0,0.0,0.0,0.0,0.0,0.0,0.0,0.0,0.0,0.0,0.0,0.0,0.0,0.0,0.0,0.0,0.0,0.0,0.0,0.0,0.0,0.0,0.0,0.0,0.0,0.0,0.0,0.0,0.0,0.0,0.0,0.0,0.0,0.0,0.0,0.0,0.0,0.0,0.0,0.0,0.0,0.0,-0.5868,-0.6659,-0.8248,-0.7906,-0.78,-0.7753,-0.5921,-0.5261,-0.552,-0.5059,0.0,0.0,0.0,0.0,0.0,0.0,0.0,0.0,0.0,0.0,0.0,0.0,0.0,0.0,0.0,0.0,0.0,0.0,0.0,0.0,0.0,0.0,-0.8888,-0.8758,-0.8903,-0.8475,-0.6084,0.0,0.0,0.0,0.0,0.0,0.0,0.0,0.0,0.0,0.0,0.0,-0.2391,-0.3426,-0.3893,-0.3129,-0.3059,-0.2981,-0.2823,-0.2914,-0.3193,-0.3624,-0.3738,-0.3991,0.0,0.0,0.0,0.0,0.0,0.0,0.0,0.0,0.0,0.0,0.0,0.0,0.0,0.0,0.0,0.0,0.0,0.0,0.0,0.0,0.0,0.0,0.0,0.0,0.0,0.0,0.0,0.0,0.0,0.0,0.0,0.0,-0.1931,-0.1478,0.0,0.0,0.0,0.0,0.0,0.0,0.0,0.0,0.0,0.0,0.0,0.0,0.0,-0.4213,-0.4985,-0.5629,-0.6072,-0.6288,-0.6998,-0.7407,-0.7502,-0.8085,-0.8463,-0.8635,-0.8355,0.0,-0.6541,-0.7002,0.0,0.0,0.0,0.0,0.0,0.0,0.0,0.0,0.0,0.0,0.0,0.0,0.0,0.0,0.0,0.0,0.0,0.0,0.0,0.0,0.0,0.0,-1.2389,-1.1797,-1.1289,-1.0673,-0.9392,-0.6698,-0.4387,-0.4012,-0.3661,-0.3258,0.0,0.0,0.0,0.0,0.0,0.0,-0.3481,-0.3935,-0.419,-0.3979,-0.407,-0.407,-0.3912,-0.398,-0.4215,-0.4564,-0.5052,-0.5499,-0.5867,-0.5934,0.0,0.0,0.0,0.0,0.0,0.0,0.0,0.0,0.0,0.0,0.0,0.0,0.0,0.0,0.0,0.0,0.0,0.0,0.0,0.0,0.0,0.0,0.0,0.0,0.0,0.0,0.0,0.0,0.0,-0.253,-0.2706,-0.1956,-0.2201,-0.2193,0.0,0.0,0.0,0.0,0.0,0.0,0.0,0.0,0.0,-0.3708,-0.5057,-0.599,-0.6371,-0.7803,-0.8459,-0.8448,-0.8973,-0.9188,-0.9087,-0.9192,-0.9388,-0.9485,-0.9485,-0.9165,-0.8497,-0.8175,-0.7648,-0.7179,0.0,0.0,0.0,0.0,-0.9124,-0.983,-1.1425,-1.1966,-1.1928,-1.2338,0.0,0.0,0.0,0.0,0.0,0.0,0.0,-1.211,-1.2563,-1.3071,-1.3421,-1.348,-1.3109,-1.2369,-1.1444,-0.9157,-0.6889,-0.5519,-0.4934,-0.4394,-0.3637,-0.3524,0.0,0.0,0.0,-0.4219,-0.4123,-0.4725,-0.5048,-0.4783,-0.4732,-0.4693,-0.4613,-0.4724,-0.5199,-0.6091,-0.6313,-0.6869,-0.7892,-0.748,-0.709,0.0,0.0,0.0,0.0,0.0,0.0,0.0,0.0,0.0,0.0,0.0,0.0,0.0,0.0,0.0,0.0,0.0,0.0,0.0,0.0,0.0,0.0,0.0,0.0,0.0,0.0,0.0,0.0,-0.3503,-0.3804,-0.2669,-0.3477,-0.371,0.0,0.0,0.0,0.0,0.0,0.0,-0.5947,-0.5547,-0.5465,-0.5745,-0.7262,-0.8109,-0.8131,-0.9723,-1.0572,-1.0724,-1.078,-1.0924,-1.0978,-1.078,-1.0654,-1.0609,-1.0609,-1.0609,-1.0644,-0.9401,-0.8806,-0.8607,-0.8363,-0.8825,-0.9744,-1.0392,-1.1241,-1.2327,-1.3999,-1.4568,-1.4692,-1.5138,-1.5717,-1.6038,-1.4992,0.0,0.0,0.0,0.0,-1.4487,-1.5309,-1.4972,-1.4651,-1.5172,-1.4681,-1.3873,-1.3052,-1.1695,-0.9885,-0.7403,-0.635,-0.5657,-0.4691,-0.464,0.0,-0.3474,-0.4431,-0.5149,-0.4896,-0.5574,-0.595,-0.5514,-0.5422,-0.5349,-0.5321,-0.5702,-0.6419,-0.7414,-0.7771,-0.8398,-0.9587,-0.8994,-0.858,-0.8377,0.0,0.0,0.0,0.0,0.0,0.0,0.0,0.0,0.0,0.0,0.0,0.0,0.0,0.0,0.0,0.0,0.0,0.0,0.0,0.0,0.0,0.0,0.0,0.0,0.0,0.0,0.0,0.0,0.0,-0.3586,-0.5262,0.0,0.0,0.0,0.0,-0.7488,-0.7752,-0.8019,-0.8217,-0.8174,-0.8508,-0.9214,-1.0112,-1.0509,-1.061,-1.1435,-1.2057,-1.2274,-1.2064,-1.2171,-1.2694,-1.2389,-1.2277,-1.2273,-1.2273,-1.2467,-1.2543,-1.1029,-1.0054,-0.9582,-0.9836,-1.0148,-1.0742,-1.2214,-1.3529,-1.4795,-1.6221,-1.6575,-1.6714,-1.8289,-1.8701,-1.8583,-1.8204,-1.7391,0.0,0.0,-1.7787,-1.7951,-1.8549,-1.8005,-1.7272,-1.7113,-1.6345,-1.5383,-1.4366,-1.3981,-1.2821,-0.9503,-0.7947,-0.695,-0.6367,0.0,-0.5902,-0.5448,-0.5661,-0.5973,-0.6118,-0.6427,-0.6552,-0.6173,-0.6308,-0.6407,-0.6271,-0.7096,-0.7851,-0.8291,-0.9432,-1.014,-1.0454,-1.0485,-1.0125,-0.9426,-0.9058,0.0,0.0,0.0,0.0,0.0,0.0,0.0,0.0,0.0,0.0,0.0,0.0,0.0,0.0,0.0,0.0,0.0,0.0,0.0,0.0,0.0,0.0,0.0,0.0,0.0,0.0,0.0,0.0,-0.637,-0.7766,0.0,-0.7049,-0.8273,-0.9166,-0.9285,-0.9786,-1.0286,-1.0786,-1.0464,-1.0493,-1.0824,-1.1654,-1.1937,-1.1792,-1.2603,-1.3057,-1.3146,-1.3033,-1.3093,-1.3228,-1.3127,-1.3079,-1.3105,-1.3105,-1.3206,-1.319,-1.2563,-1.2042,-1.1642,-1.1757,-1.2593,-1.3786,-1.4352,-1.5508,-1.701,-1.7508,-1.7652,-1.7807,-1.9482,-2.034,-2.0843,-2.1182,-2.1007,-2.0801,-2.1235,-2.091,-2.038,-2.0316,-1.9385,-1.8316,-1.7432,-1.6904,-1.6395,-1.5636,-1.5028,-1.4138,-1.268,-1.0474,-0.845,-0.7005,-0.6911,-0.6795,-0.636,-0.6704,-0.703,-0.7087,-0.7228,-0.7242,-0.7101,-0.6993,-0.7164,-0.7721,-0.8146,-0.8849,-0.9957,-1.0355,-1.0846,-1.1462,-1.1093,-1.0732,-1.053,-0.9947,-0.9111,0.0,0.0,0.0,0.0,0.0,0.0,0.0,0.0,0.0,0.0,0.0,0.0,0.0,0.0,0.0,0.0,0.0,0.0,0.0,0.0,0.0,0.0,0.0,0.0,0.0,0.0,-0.9241,-0.8066,-0.9661,-1.0419,-0.9262,-1.057,-1.1535,-1.1684,-1.2423,-1.303,-1.3358,-1.3125,-1.2972,-1.3115,-1.3647,-1.3799,-1.3773,-1.419,-1.4539,-1.4625,-1.4527,-1.4378,-1.4299,-1.4299,-1.4253,-1.4072,-1.4168,-1.4168,-1.4061,-1.3998,-1.3975,-1.4025,-1.346,-1.4082,-1.5406,-1.569,-1.6842,-1.828,-1.8272,-1.8812,-1.9488,-2.0642,-2.1788,-2.2872,-2.3308,-2.3401,-2.338,-2.3507,-2.2962,-2.2226,-2.1603,-2.0584,-1.9405,-1.8334,-1.7707,-1.7289,-1.6885,-1.6359,-1.5695,-1.502,-1.2696,-1.0323,-0.8585,-0.8451,-0.8266,-0.7322,-0.7644,-0.7939,-0.7857,-0.8107,-0.8337,-0.8276,-0.8383,-0.8662,-0.9228,-0.9254,-0.9894,-1.1263,-1.1051,-1.1303,-1.2336,-1.1589,-1.1196,-1.1218,-1.086,-1.0385,-0.9834,0.0,0.0,0.0,0.0,0.0,0.0,0.0,0.0,0.0,0.0,0.0,0.0,0.0,0.0,0.0,0.0,0.0,0.0,0.0,0.0,0.0,0.0,0.0,-0.8584,-0.9673,-1.008,-0.8578,-1.1035,-1.2434,-1.1137,-1.3234,-1.4712,-1.4712,-1.5518,-1.603,-1.603,-1.6042,-1.6042,-1.6042,-1.6042,-1.617,-1.6329,-1.6329,-1.6469,-1.673,-1.6424,-1.6187,-1.5933,-1.5933,-1.5688,-1.5131,-1.5423,-1.5423,-1.5131,-1.5411,-1.6037,-1.6434,-1.4672,-1.4644,-1.5596,-1.6358,-1.7419,-1.8574,-1.8743,-2.0085,-2.1695,-2.1695,-2.3028,-2.454,-2.454,-2.4368,-2.4196,-2.4196,-2.4024,-2.357,-2.258,-2.1676,-2.0683,-1.9712,-1.8812,-1.8087,-1.8087,-1.8087,-1.7695,-1.6232,-1.4475,-1.2683,-1.1174,-1.0865,-1.0262,-0.858,-0.8556,0.0,-0.8372,-0.9318,-0.9928,-0.9723,-1.0528,-1.1002,-1.0779,-1.0585,-1.0956,-1.2258,-1.1538,-1.1661,-1.305,-1.2096,-1.1546,-1.1598,-1.1833,-1.2108,-1.2345,0.0,0.0,0.0,0.0,0.0,0.0,0.0,0.0,0.0,0.0,0.0,0.0,0.0,0.0,0.0,0.0,0.0,0.0,0.0,0.0,0.0,-1.3391,-1.3565,-1.1147,-1.1893,-1.2655,-1.2383,-1.3567,-1.431,-1.3957,-1.4979,-1.5687,-1.5687,-1.6011,-1.6208,-1.6208,-1.6399,-1.6507,-1.6507,-1.6507,-1.6545,-1.6615,-1.6615,-1.6654,-1.673,-1.663,-1.6592,-1.6516,-1.6516,-1.6367,-1.6298,-1.6292,-1.6292,-1.6279,-1.6992,-1.7454,-1.7431,-1.613,-1.647,-1.7576,-1.7863,-1.8711,-1.9745,-1.9463,-2.0701,-2.2473,-2.2473,-2.3627,-2.5041,-2.5041,-2.4871,-2.47,-2.47,-2.3983,-2.3105,-2.2138,-2.106,-1.9985,-1.9012,-1.8458,-1.8087,-1.8087,-1.8087,-1.7963,-1.7572,-1.7014,-1.5844,-1.3327,-1.2704,-1.235,-1.1657,-1.146,-1.1319,-1.0977,-1.1214,-1.1193,-1.0454,-1.0473,-1.0902,-1.1746,-1.1408,-1.1746,-1.3162,-1.2991,-1.2968,-1.3284,-1.2997,-1.2991,-1.3168,-1.3385,-1.3381,0.0,0.0,0.0,0.0,0.0,0.0,0.0,0.0,0.0,0.0,0.0,0.0,0.0,0.0,0.0,0.0,0.0,0.0,0.0,0.0,0.0,0.0,-1.5975,-1.6474,-1.4796,-1.4522,-1.4533,-1.4558,-1.5002,-1.5337,-1.5457,-1.603,-1.6298,-1.6298,-1.6652,-1.6808,-1.6808,-1.6963,-1.7047,-1.7047,-1.7047,-1.7047,-1.7047,-1.7047,-1.7047,-1.7047,-1.7047,-1.7047,-1.7047,-1.716,-1.716,-1.7047,-1.716,-1.7463,-1.785,-1.8398,-1.916,-1.9652,0.0,0.0,0.0,0.0,-1.9637,-2.0292,-2.0011,-2.115,-2.2736,-2.2736,-2.3877,-2.52,-2.52,-2.4765,-2.4241,-2.4241,-2.3444,-2.2306,-2.1329,-2.061,-1.9803,-1.8835,-1.8465,-1.8365,-1.8365,-1.8365,-1.8365,-1.8365,-1.8365,0.0,-1.6148,-1.5066,-1.4205,-1.3273,-1.3055,-1.2964,-1.2522,-1.2832,-1.2923,-1.2413,-1.262,-1.2984,-1.3607,-1.2975,0.0,0.0,0.0,-1.3664,-1.4076,-1.4039,0.0,0.0,0.0,0.0,0.0,0.0,0.0,0.0,-1.6343,-1.7069,0.0,0.0,0.0,0.0,0.0,0.0,0.0,0.0,0.0,0.0,0.0,0.0,0.0,0.0,0.0,0.0,-1.8525,-1.9635,-1.875,-1.7568,-1.6528,-1.5719,-1.5646,-1.5786,-1.6042,-1.6632,-1.6905,-1.6905,-1.7337,-1.7582,-1.7582,-1.7582,0.0,0.0,0.0,-1.7687,-1.7687,-1.7687,-1.7687,-1.7687,-1.7687,-1.7687,-1.7687,-1.8115,-1.8108,-1.7891,-1.8213,-1.8812,-1.9502,-1.9819,-2.1042,-2.232,-2.0735,-1.9964,-1.9984,-2.0229,-2.0382,-2.0473,-2.0382,0.0,0.0,-2.2824,-2.3963,-2.5285,-2.5285,-2.4488,-2.3521,-2.3521,-2.2648,-2.1516,-2.0701,-2.0348,-2.0076,-1.9188,-1.9012,-1.892,-1.892,-1.892,-1.8827,-1.8827,-1.8827,-1.8827,-1.8827,-1.7452,-1.5945,-1.4278,-1.4174,-1.405,-1.3496,-1.4294,-1.4873,-1.4782,-1.556,0.0,-1.5733,-1.4864,-1.4622,-1.5502,-1.4608,-1.4427,-1.5322,-1.5547,-1.6172,-1.7305,-1.7436,-1.815,-1.9646,-2.0009,-2.0792,-2.1661,-1.8744,-1.9249,0.0,0.0,0.0,0.0,0.0,0.0,0.0,0.0,0.0,0.0,0.0,0.0,0.0,0.0,0.0,-2.042,-2.1841,-2.2456,-2.1172,-2.1035,-2.0025,-1.7022,-1.6587,-1.6612,-1.6664,-1.7127,-1.7397,-1.7397,-1.7555,-1.7582,-1.7582,-1.7582,-1.7694,-1.7911,-1.7911,-1.801,-1.8213,-1.8213,-1.8213,-1.8213,-1.8213,0.0,-1.8318,-1.9228,-1.9627,-1.9627,-2.0538,-2.1041,-2.1338,-2.2165,-2.3063,-2.3743,-2.2182,-2.1204,-2.0732,-2.0408,-2.0744,-2.1374,-2.1006,-2.2041,-2.3617,-2.3617,-2.4584,-2.5728,-2.5728,-2.5105,0.0,-2.4317,-2.3008,-2.1695,-2.1516,-2.0898,-2.0283,-2.0019,-2.0019,-1.9928,-1.9554,-1.9463,-1.9279,-1.892,-1.8827,-1.8827,-1.8827,-1.8411,-1.7858,-1.7258,-1.6787,-1.6322,-1.5918,-1.6149,-1.6049,-1.5365,-1.5688,-1.6078,-1.618,-1.5713,-1.5833,-1.6657,-1.6919,-1.7283,-1.7712,-1.9012,-1.9592,-1.941,-1.9886,-2.0446,-2.1018,-2.1118,-2.2344,-2.4546,-2.3006,-2.2865,0.0,0.0,0.0,0.0,0.0,0.0,0.0,0.0,0.0,0.0,0.0,-1.9272,-2.0544,0.0,-2.3396,-2.3948,-2.4807,-2.5046,-2.3741,-2.3374,-2.2205,-1.9416,-1.9024,-1.91,-1.9264,-1.9523,-1.942,-1.8805,-1.8805,-1.861,-1.8003,-1.8003,-1.8108,-1.822,-1.822,-1.822,-1.8422,-1.8923,-1.9228,-1.9228,-1.9945,-2.0254,-2.0254,-2.0955,-2.1261,-2.1253,-2.187,-2.2366,-2.2968,-2.4097,-2.4472,-2.446,-2.3655,-2.2834,-2.2025,-2.1753,-2.1816,-2.2078,-2.2315,-2.3096,-2.4059,-2.4478,-2.5179,-2.5895,-2.5895,-2.5189,-2.4317,-2.4317,-2.2911,-2.1516,-2.1516,-2.0907,-2.0292,-2.0292,-2.0292,-2.0201,-2.0011,-1.992,-1.9828,-1.9554,-1.9563,-1.9563,-1.9563,-1.9479,-1.9082,-1.8277,-1.8063,-1.785,-1.7342,-1.7522,-1.7409,-1.6796,-1.6854,-1.7017,-1.7107,-1.7012,-1.7269,-1.7961,-1.8455,-1.9059,-1.9788,-2.0849,-2.1348,-2.1371,-2.1665,-2.2128,-2.2842,-2.2842,-2.3963,-2.6164,-2.5553,-2.562,0.0,0.0,0.0,0.0,0.0,0.0,0.0,0.0,-1.8053,-2.0201,-2.1375,-2.2456,-2.4161,-2.5234,-2.6075,-2.6819,-2.7261,-2.7214,-2.6239,-2.5398,-2.4269,-2.2452,-2.1649,-2.142,-2.1618,-2.1752,-2.1347,-2.0436,-2.0333,-1.993,-1.9131,-1.9027,-1.9027,-1.9138,-1.9138,-1.9138,-1.9235,-2.004,-2.0444,-2.0538,-2.1676,-2.219,-2.2181,-2.2584,-2.2785,-2.2785,-2.2994,-2.3592,-2.4501,-2.5323,-2.5421,-2.4899,-2.4899,-2.4436,-2.3731,-2.3305,-2.2891,-2.2775,-2.3541,-2.4145,-2.4669,-2.5411,-2.5852,-2.6146,-2.6052,-2.5263,-2.4392,-2.4307,-2.3086,-2.1774,-2.1774,-2.1338,-2.0907,-2.0826,-2.0916,-2.0907,-2.0464,-2.0555,-2.0555,-2.0382,-2.0292,-2.0292,-2.0292,-2.0292,-1.9918,-1.8897,-1.897,-1.8979,-1.8311,-1.8583,-1.8719,-1.8267,-1.8305,-1.836,-1.8442,-1.8538,-1.8898,-1.9521,-1.9995,-2.072,-2.1669,-2.2081,-2.2569,-2.3006,-2.3063,-2.3604,-2.4582,-2.4638,-2.5543,-2.7069,-2.7185,-2.76,-1.373,-1.4918,-1.5566,-1.598,-1.6844,-1.8201,0.0,0.0,-2.2635,-2.4559,-2.6049,-2.7204,-2.7976,-2.8905,-2.9319,-2.8551,-2.8824,-2.879,-2.7995,-2.7655,-2.713,-2.6125,-2.3447,-2.1702,-2.1744,-2.1752,-2.1643,-2.1541,-2.155,-2.1448,-2.1347,-2.1347,-2.1456,-2.1676,-2.1684,-2.1777,-2.208,-2.2181,-2.2181,-2.2181,-2.2383,-2.2484,-2.2492,-2.3484,-2.389,-2.3989,-2.4922,-2.543,-2.5528,-2.5635,-2.5616,-2.5567,-2.5567,-2.5819,-2.6003,-2.388,-2.3318,-2.3627,-2.379,-2.4744,-2.6019,-2.6102,-2.6517,-2.694,-2.6528,-2.5924,-2.5242,-2.4935,-2.4155,-2.3531,-2.3531,-2.3444,-2.328,-2.2696,-2.295,-2.2921,-2.1257,-2.1427,-2.1516,-2.0464,-2.0292,-2.0292,-2.0292,-2.0292,-2.0275,-2.0141,-1.9851,-1.9692,-1.9607,-1.9729,-1.9623,-1.9159,-1.9452,-1.9786,-1.996,-2.0256,-2.0738,-2.1363,-2.2339,-2.2941,-2.3088,-2.3632,-2.3944,-2.4016,-2.4495,-2.5003,-2.5472,-2.5933,-2.6667,-2.7723,-2.8236,-2.8622,-1.7347,-1.8101,0.0,0.0,-2.0459,-2.1914,-2.315,-2.429,-2.5418,-2.7093,-2.8356,-2.9332,-2.9855,-3.0565,-3.0913,0.0,-3.0631,-3.0407,-2.9489,-2.897,-2.8421,-2.7425,-2.591,-2.4554,-2.3791,-2.373,-2.3528,-2.315,-2.3076,-2.2767,-2.2173,-2.2173,-2.2173,-2.2282,-2.2282,-2.2391,-2.2484,-2.3085,-2.3384,-2.3484,-2.4106,-2.4313,-2.4412,-2.4815,-2.502,-2.502,-2.5538,-2.5742,-2.5742,-2.5742,-2.6004,-2.6552,-2.6552,-2.692,-2.7259,-2.535,-2.4999,-2.5423,-2.5665,-2.6008,-2.6445,-2.7033,-2.7196,-2.7185,-2.694,-2.6682,-2.6423,-2.5946,-2.5337,-2.4734,-2.4498,-2.4145,-2.3714,-2.3464,-2.3627,-2.3454,-2.2334,-2.258,-2.2746,-2.19,-2.2059,-2.2306,-2.2306,-2.2306,-2.2306,-2.2306,-2.1291,-2.058,-2.0692,-2.1038,-2.1118,-2.0866,-2.1191,-2.1323,-2.1098,-2.1431,-2.1962,-2.2563,-2.3243,-2.3902,-2.4624,-2.5087,-2.5523,-2.5791,-2.607,-2.6402,-2.6879,-2.7472,-2.8116,-2.8772,-2.9389,-2.9914,-1.9673,0.0,0.0,-2.1843,-2.3536,-2.4988,-2.5386,-2.6644,-2.8006,-2.8941,-2.9794,-3.0474,-3.0675,-3.0975,-3.1276,-3.142,-3.1444,-3.1304,-3.0711,-2.9985,-2.9206,-2.8221,-2.7502,-2.6702,-2.5564,-2.5744,-2.5585,-2.5032,-2.5237,-2.4944,-2.3854,-2.4042,-2.4042,-2.3764,-2.3764,-2.3665,-2.3484,-2.4285,-2.4688,-2.4786,-2.5518,-2.5927,-2.5927,-2.5927,-2.611,-2.6284,-2.6284,-2.6466,-2.6744,-2.6744,-2.7105,-2.784,-2.7746,-2.8093,-2.8565,-2.7273,-2.6889,-2.7008,-2.7341,-2.73,-2.7185,-2.7869,-2.7857,-2.7522,-2.7441,-2.736,-2.7278,-2.6857,-2.634,-2.5913,-2.56,-2.5168,-2.4734,-2.4478,-2.4563,-2.4478,-2.3637,-2.3887,-2.4059,-2.3396,-2.3551,-2.38,-2.38,-2.3887,-2.3973,-2.3973,-2.2911,-2.2095,-2.2073,-2.2454,-2.2645,-2.2644,-2.2777,-2.2793,-2.26,-2.2821,-2.3207,-2.3909,-2.4127,-2.4696,-2.5709,-2.6082,-2.6427,-2.6973,-2.733,-2.7678,-2.8013,-2.8811,-2.9389,-2.974,-3.0364,-3.088,0.0,0.0,-2.2506,-2.3897,-2.5608,-2.711,-2.8054,-2.9582,-3.0663,-3.017,-3.0494,-3.0711,-3.0206,-3.0122,-3.0302,-3.0819,-3.0903,-3.1072,-3.1589,-3.0759,-2.976,-2.8884,-2.7828,-2.7001,-2.6551,-2.7247,-2.7607,-2.7148,-2.8017,-2.8111,-2.7084,-2.8017,-2.8017,-2.7084,-2.7084,-2.6723,-2.5994,-2.5994,-2.6197,-2.64,-2.6496,-2.6506,-2.6506,-2.6506,-2.6935,-2.7829,-2.7829,-2.8391,-2.9315,-2.9315,-2.9315,-2.9315,-2.905,-2.951,-3.036,-2.9584,-2.8694,-2.7931,-2.8004,-2.8187,-2.8431,-2.851,-2.851,-2.8351,-2.7962,-2.7881,-2.78,-2.7278,-2.7174,-2.7185,-2.7103,-2.7103,-2.6928,-2.6268,-2.6599,-2.6753,-2.5294,-2.5221,-2.5242,-2.4573,-2.4059,-2.38,-2.38,-2.4145,-2.4498,-2.4498,-2.4713,-2.4692,-2.3856,-2.3811,-2.4012,-2.436,-2.4047,-2.4097,-2.467,-2.4599,-2.478,-2.5421,-2.5302,-2.5511,-2.6164,-2.622,-2.6427,-2.6973,-2.8059,-2.8688,-2.8688,-2.9793,-3.0378,-3.0391,-3.0988,-3.1273,0.0,0.0,-2.5663,-2.6808,-2.8655,-3.0349,-3.0628,-3.144,-3.1859,-3.0993,-3.0909,-3.0692,-2.9757,-3.0183,-3.0929,-3.1467,-3.1868,-3.2378,-3.2955,-3.2617,-3.1984,-3.1046,-3.0891,0.0,-3.0555,-2.8344,0.0,-2.7597,-2.8017,-2.825,-2.838,-2.868,-2.8866,-2.8669,-2.8669,-2.8577,-2.8308,-2.8308,-2.8308,-2.8412,-2.8412,-2.8412,-2.8412,-2.8412,-2.8588,-2.8947,-2.8947,-2.9131,-2.9407,-2.9407,-2.9784,-3.0429,-3.0339,-3.0902,-3.1801,-3.2093,-3.1794,-3.0993,-2.9426,-2.8927,-2.8979,-2.8619,-2.851,-2.851,-2.8351,-2.8283,-2.8191,-2.7788,-2.7626,-2.7615,-2.7267,-2.7185,-2.7185,-2.694,-2.7021,-2.6928,-2.5997,-2.6257,-2.6423,-2.5768,-2.5841,-2.608,-2.608,-2.6174,-2.6257,-2.6257,-2.5997,-2.5746,-2.5421,-2.5782,-2.6043,-2.5891,-2.5927,-2.5936,-2.5847,-2.6407,-2.6821,-2.6993,-2.7416,-2.7888,-2.8464,-2.8464,-2.8743,-2.9238,-2.9644,-2.9806,-2.9806,-3.062,-3.1002,-3.1015,-3.1612,-3.1884,-2.6015,-2.71,-2.8114,-3.0011,-3.163,-3.2663,-3.2498,-3.2593,-3.2252,-3.075,-3.0125,-2.9504,-2.8587,-2.902,-2.9915,-3.1097,-3.1847,-3.2639,-3.3772,-3.3671,-3.3313,-3.2813,-3.2896,-3.2909,0.0,0.0,0.0,-2.9427,-2.9463,-2.9545,-2.967,-2.9977,-3.0158,-2.9966,-2.9966,-2.9772,-2.959,-2.9579,-2.959,-2.9692,-2.9692,-2.9692,-2.9692,-2.9692,-2.9875,-3.0147,-3.0147,-3.0586,-3.1187,-3.1187,-3.1704,-3.2587,-3.25,-3.2882,-3.353,-3.3998,-3.3931,-3.3368,-3.1347,-3.0603,-3.0273,-2.958,-2.9328,-2.9328,-2.9184,-2.9118,-2.9118,-2.8803,-2.8724,-2.8724,-2.8371,-2.8279,-2.8279,-2.8279,-2.8279,-2.8199,-2.7787,-2.7879,-2.7959,-2.7557,-2.7626,-2.7867,-2.7867,-2.7959,-2.8119,-2.8279,-2.7947,-2.7476,-2.6857,-2.7196,-2.7406,-2.724,-2.7668,-2.7747,-2.7411,-2.8027,-2.8447,-2.8447,-2.8767,-2.9235,-2.9741,-2.9937,-3.0158,-3.0597,-3.0801,-3.0855,-3.073,-3.1582,-3.1997,-3.2011,-3.2666,-3.2974,-2.8285,-2.9041,-2.9999,-3.3342,-3.4193,-3.41,-3.3579,-3.2921,-3.1915,-2.9776,-2.8388,-2.7429,-2.6803,0.0,-2.7802,-2.9912,-3.0979,-3.2213,-3.4173,-3.4054,-3.3886,0.0,0.0,0.0,0.0,0.0,0.0,-3.2523,-3.2451,-3.2064,-3.1158,-3.2001,-3.2089,-3.1158,-3.1146,-3.0777,-3.0112,-3.0112,-3.0214,-3.0508,-3.0508,-3.0508,-3.0508,-3.0508,-3.0968,-3.1789,-3.1789,-3.2834,-3.4468,-3.4468,-3.4937,-3.5615,-3.5386,-3.5305,-3.5305,-3.5142,-3.5061,-3.4887,-3.3777,-3.2988,-3.2275,-3.1228,-3.097,-3.0895,-3.0456,-3.0317,-3.0317,-3.0317,-3.0317,-3.0317,-3.0317,-3.0317,-3.0317,-3.0317,-3.0317,-3.0317,-3.0317,-3.0012,-2.9704,-2.9704,-2.9344,-2.9073,-2.9073,-2.9434,-2.9858,-3.0241,-3.0317,-2.9793,-2.8191,-2.8042,-2.8203,-2.859,-2.9106,-2.9496,-2.9496,-2.9605,-2.967,-2.967,-2.9503,-2.9697,-3.0198,-3.061,-3.0828,-3.0991,-3.1544,-3.1722,-3.1469,-3.2681,-3.3297,-3.3283,-3.3973,-3.4312,-2.9346,-3.1153,-3.3103,-3.4006,-3.4497,-3.4624,-3.4049,-3.3104,-3.1721,-2.9683,-2.8538,-2.746,-2.5713,0.0,0.0,-3.0439,-3.3225,0.0,-3.6642,-3.7039,0.0,-3.6297,0.0,-3.638,-3.5902,-3.564,0.0,0.0,-3.4485,-3.3875,-3.4184,-3.4389,-3.4472,-3.4432,-3.4446,-3.4337,-3.4145,-3.4145,-3.4158,-3.4254,-3.4254,-3.4254,-3.4254,-3.4254,-3.435,-3.4624,-3.4624,-3.487,-3.5305,-3.5305,-3.5386,-3.5615,-3.5534,-3.5534,-3.5628,-3.6201,-3.6452,-3.635,-3.5727,-3.4422,-3.2808,-3.1721,-3.1315,-3.1315,-3.1254,-3.0957,-3.0745,-3.0745,-3.0532,-3.0317,-3.0317,-3.0317,-3.0317,-3.0317,-3.0317,-3.0317,-3.0317,-3.0241,-3.0165,-3.0165,-3.0075,-2.9986,-2.9986,-3.0075,-3.0165,-3.0241,-3.0532,-3.0532,-2.9793,-2.9716,-2.9716,-2.9793,-3.0228,-3.0532,-3.0532,-3.1196,-3.1626,-3.1626,-3.1792,-3.1867,-3.2009,-3.1908,-3.2107,-3.2625,-3.2779,-3.3058,-3.3539,-3.3887,-3.4041,-3.4027,-3.4245,-3.4312,-3.1915,-3.3525,-3.5137,-3.5474,-3.5781,-3.5559,-3.3774,-3.2659,-3.1126,-2.825,-2.694,0.0,-2.4304,-2.6601,0.0,0.0,0.0,0.0,-3.7727,-3.8455,-3.8663,0.0,-3.8443,0.0,-3.8164,-3.7986,-3.7951,0.0,-3.6078,-3.5036,-3.544,-3.5453,-3.5453,-3.5615,-3.5615,-3.5615,-3.5615,-3.5615,-3.5615,-3.5615,-3.5615,-3.5615,-3.5615,-3.5615,-3.5615,-3.5615,-3.5615,-3.5789,-3.6188,-3.6267,-3.6503,-3.6738,-3.7112,-3.719,-3.719,-3.7965,-3.819,-3.809,-3.7264,-3.627,-3.4992,-3.3093,-3.2692,-3.282,-3.2664,-3.2593,-3.2579,-3.2579,-3.2437,-3.2294,-3.2294,-3.2294,-3.2294,-3.2294,-3.2294,-3.2294,-3.2294,-3.2294,-3.2294,-3.2294,-3.2294,-3.2294,-3.2294,-3.2294,-3.2294,-3.2294,-3.2437,-3.2508,-3.2236,-3.1389,-3.0882,-3.114,-3.1569,-3.1933,-3.2078,-3.289,-3.3339,-3.3269,-3.3506,-3.3659,-3.3659,-3.3728,-3.3796,-3.3905,-3.4027,-3.4177,-3.4447,-3.4714,-3.4912,-3.5044,-3.524,-3.5385,-3.4733,-3.5765,-3.6514,-3.7229,-3.7245,-3.6285,-3.3135,-3.1784,-3.009,-2.6404,0.0,-2.3672,-2.2907,-2.47,-2.7084,-2.9441,0.0,-3.5811,-3.822,-3.9048,-3.95,-3.996,-3.9975,-3.9889,-3.9889,-3.9889,-3.9889,-3.9889,-3.7605,-3.6146,-3.6146,-3.6146,-3.616,-3.6094,-3.616,-3.616,-3.6094,-3.616,-3.6146,-3.6146,-3.6146,-3.6146,-3.6146,-3.6146,-3.6146,-3.6146,-3.6146,-3.6568,-3.7295,-3.751,-3.7904,-3.8486,-3.922,-3.9364,-3.9235,-3.9692,-3.9844,-3.9586,-3.8341,-3.7855,-3.7367,-3.4869,-3.4409,-3.4728,-3.4365,-3.4566,-3.4898,-3.4898,-3.4832,-3.4817,-3.4817,-3.4817,-3.4817,-3.4817,-3.4817,-3.4817,-3.4817,-3.4817,-3.4817,-3.4817,-3.4817,-3.4817,-3.4817,-3.4817,-3.4817,-3.4817,-3.4832,-3.4832,-3.4728,-3.3087,-3.2078,-3.2453,-3.3031,-3.3476,-3.3901,-3.4432,-3.4662,-3.4514,-3.4795,-3.4942,-3.4942,-3.535,-3.5415,-3.5008,-3.5124,-3.5109,-3.4927,-3.5514,-3.5897,-3.615,-3.6585,-3.6785,-3.5085,-3.6465,-3.7823,-3.787,-3.7068,-3.5629,-3.323,-3.0949,0.0,0.0,-2.4322,-2.3145,-2.2248,-2.4726,-2.7636,-2.9617,0.0,0.0,0.0,0.0,-3.9899,0.0,0.0,0.0,0.0,-3.9889,0.0,0.0,-3.9433,-3.913,-3.913,-3.913,-3.8928,-3.8546,-3.8942,-3.8928,-3.8472,-3.8928,-3.913,-3.913,-3.913,-3.913,-3.913,-3.913,-3.913,-3.913,-3.913,-3.9218,-3.9376,-3.9448,-3.952,-3.9621,-3.9763,-3.9763,-3.9763,-3.9905,-3.9555,-3.8925,-3.8189,-3.7567,-3.6925,-3.5849,-3.5593,-3.5642,-3.5578,-3.5449,-3.532,-3.532,-3.5044,-3.4817,-3.4817,-3.4817,-3.4817,-3.4817,-3.4817,-3.4817,-3.4817,-3.4817,-3.4817,-3.4817,-3.4817,-3.4817,-3.4817,-3.4817,-3.4817,-3.4817,-3.5109,-3.527,-3.5255,-3.4581,-3.4095,-3.4148,-3.4447,-3.4714,-3.5044,-3.5335,-3.5529,-3.5642,-3.5464,-3.5335,-3.5335,-3.5109,-3.5175,-3.5721,-3.5785,-3.6054,-3.66,-3.6677,-3.6997,-3.7456,-3.7134,-3.7194,-3.5592,-3.6802,-3.7872,-3.7509,-3.6409,-3.4613,-3.1673,0.0,0.0,0.0,-2.3243,-2.2575,-2.1956,0.0,0.0,0.0,0.0,0.0,0.0,0.0,0.0,0.0,0.0,0.0,0.0,-4.1772,-4.1642,-4.1311,-4.1311,-4.0894,-3.996,-3.9889,-3.9763,-3.9493,-3.9763,-3.9763,-3.9493,-3.9763,-3.996,-4.0154,-4.0154,-4.0278,-4.0385,-4.0385,-4.0385,-4.0385,-4.0385,-4.0332,-4.0154,-4.0485,-4.0293,-3.996,-4.0531,-4.0615,-4.0409,-4.0684,-4.0334,-3.9668,-3.8955,-3.8273,-3.7622,-3.6925,-3.6569,-3.6321,-3.6321,-3.6383,-3.6492,-3.6492,-3.6352,-3.6212,-3.6212,-3.6212,-3.6212,-3.6212,-3.6415,-3.6736,-3.7021,-3.7065,-3.7065,-3.7065,-3.7065,-3.7065,-3.7065,-3.7065,-3.7065,-3.7065,-3.7275,-3.735,-3.7216,-3.7006,-3.6538,-3.577,-3.58,-3.5991,-3.629,-3.643,-3.66,-3.6874,-3.6737,-3.6661,-3.6661,-3.6841,-3.6901,-3.6859,-3.7247,-3.7616,-3.801,-3.801,-3.8181,-3.8502,-3.8181,-3.8108,-3.6089,-3.7,-3.7682,-3.7177,-3.5869,-3.3859,-3.0463,-2.8575,0.0,0.0,-2.2281,-2.21,-2.1867,0.0,0.0,0.0,0.0,0.0,0.0,0.0,0.0,0.0,0.0,0.0,-4.3555,-4.3512,0.0,-4.2925,-4.2863,-4.2141,-4.0378,-4.0309,-4.0309,-4.017,-4.0363,-4.0432,-4.0309,-4.0447,-4.0638,-4.0894,-4.0894,-4.1013,-4.1233,-4.1233,-4.1233,-4.1233,-4.1248,-4.1131,-4.0894,-4.1396,-4.128,-4.0758,-4.1706,-4.1852,-4.1509,-4.1757,-4.1405,-4.0718,-3.9982,-3.9233,-3.8579,-3.8035,-3.7476,-3.7058,-3.7058,-3.7433,-3.786,-3.786,-3.786,-3.786,-3.786,-3.786,-3.786,-3.786,-3.8214,-3.8629,-3.9098,-3.9206,-3.9206,-3.9206,-3.9206,-3.9206,-3.9206,-3.9206,-3.9242,-3.9315,-3.9315,-3.9282,-3.9268,-3.9179,-3.8696,-3.7626,-3.7294,-3.7266,-3.7578,-3.7578,-3.7738,-3.8108,-3.8108,-3.8108,-3.8108,-3.8652,-3.8707,-3.8108,-3.8652,-3.8978,-3.8978,-3.8978,-3.9102,-3.9348,-3.9102,-3.9032,-3.6632,-3.7283,-3.7749,-3.7646,-3.6091,-3.3851,-3.1165,0.0,0.0,-2.3293,-2.2283,-2.1834,-2.1814,-2.2432,0.0,0.0,0.0,0.0,0.0,0.0,0.0,0.0,0.0,0.0,-4.3656,-4.3555,-4.3555,-4.3739,-4.3797,-4.3103,-4.1507,-4.1704,-4.1688,-4.1209,-4.1917,-4.211,-4.1656,-4.2077,-4.2365,-4.2429,-4.2396,-4.2443,-4.2443,-4.2443,-4.2443,-4.2443,-4.2476,-4.2412,-4.2443,-4.2925,-4.3047,-4.3031,-4.3522,-4.3681,-4.3539,-4.2948,-4.2249,-4.1499,-4.0636,-3.9868,-3.9309,-3.9115,-3.8645,-3.8165,-3.8165,-3.8574,-3.9044,-3.9044,-3.9044,-3.9044,-3.9044,-3.9044,-3.9044,-3.9044,-3.9082,-3.9135,-3.9206,-3.9206,-3.9206,-3.9206,-3.9206,-3.9206,-3.9206,-3.9206,-3.9315,-3.9699,-3.9716,-3.99,-4.0319,-3.9965,-3.9833,-4.0092,-3.9149,-3.8652,-3.8974,-3.8832,-3.8816,-3.9082,-3.9082,-3.9082,-3.9082,-3.9135,-3.9135,-3.9082,-3.9135,-3.9189,-3.9189,-3.9189,-3.9454,-3.9902,-3.9401,-3.9437,-3.583,-3.6863,-3.7639,-3.7574,-3.5932,-3.3527,-3.0667,0.0,-2.5863,-2.302,-2.2269,-2.2153,-2.2298,-2.2377,-2.3194,0.0,-2.6152,-2.8,-3.2486,0.0,0.0,0.0,0.0,0.0,0.0,0.0,-4.4783,-4.4529,-4.4102,-4.3623,-4.3043,-4.312,-4.3103,-4.2888,-4.3224,-4.3284,-4.3087,-4.33,-4.3495,-4.3689,-4.3672,-4.3789,-4.398,-4.398,-4.398,-4.398,-4.398,-4.3864,-4.3731,-4.4095,-4.4037,-4.3714,-4.4061,-4.4102,-4.3829,-4.3053,-4.23,-4.1565,-4.0792,-4.0057,-3.9456,-3.9404,-3.9456,-3.9456,-3.9011,-3.9028,-3.9206,-3.9206,-3.9206,-3.9206,-3.9206,-3.9206,-3.9295,-3.9594,-3.9697,-3.9851,-4.0463,-4.0607,-4.0685,-4.0949,-4.0995,-4.0995,-4.0995,-4.0995,-4.107,-4.1216,-4.1243,-4.1288,-4.1507,-4.1376,-4.1349,-4.1507,-4.0212,-3.9529,-3.9966,-3.9631,-3.975,-4.0439,-4.0248,-4.0199,-4.0439,-4.0822,-4.0822,-4.0487,-4.0822,-4.0995,-4.0995,-4.0995,-4.1133,-4.1331,-4.1133,-4.1133,-3.4809,-3.6178,-3.7163,-3.7163,-3.5331,-3.2914,0.0,-2.8146,-2.5791,-2.3086,-2.2529,-2.2573,-2.2694,-2.2517,-2.2745,0.0,-2.4739,-2.6424,-3.0097,-3.2706,0.0,0.0,0.0,-4.3568,0.0,-4.5775,-4.5887,-4.5284,-4.4804,-4.4644,-4.4773,-4.4773,-4.4555,-4.4044,-4.4158,-4.4215,-4.4215,-4.4215,-4.4288,-4.4546,-4.4529,-4.464,-4.491,-4.491,-4.5001,-4.5127,-4.4947,-4.4821,-4.477,-4.5001,-4.4821,-4.4456,-4.4804,-4.4804,-4.4487,-4.3464,-4.2785,-4.2191,-4.1188,-4.0577,-4.0248,-4.0217,-4.0556,-4.0903,-4.0363,-3.9969,-3.9782,-3.9782,-3.9817,-3.9885,-3.9885,-3.9969,-4.0201,-4.0542,-4.0638,-4.0827,-4.1543,-4.1692,-4.1821,-4.2115,-4.2198,-4.2198,-4.2198,-4.2198,-4.2257,-4.2378,-4.2418,-4.2458,-4.2559,-4.2498,-4.2458,-4.2559,-4.1446,-4.0793,-4.0976,-4.0718,-4.0782,-4.1507,-4.1323,-4.1278,-4.1551,-4.1979,-4.1997,-4.1594,-4.1979,-4.2198,-4.2198,-4.2198,-4.2198,-4.2198,-4.2198,-4.2279,-3.3795,-3.5259,-3.6453,-3.6348,-3.4284,-3.199,0.0,-2.8127,-2.5507,-2.3664,-2.3177,-2.3038,-2.285,-2.2738,-2.2926,-2.3684,-2.4751,-2.6979,-3.1175,-3.3339,0.0,0.0,0.0,-4.2606,-4.4067,-4.5846,-4.6649,-4.6023,-4.6122,-4.6398,-4.6863,-4.6863,-4.613,-4.4434,-4.4729,-4.491,-4.491,-4.491,-4.491,-4.491,-4.491,-4.491,-4.491,-4.491,-4.5163,-4.5594,-4.5127,-4.5163,-4.5594,-4.558,-4.558,-4.5632,-4.6005,-4.6172,-4.5979,-4.4418,-4.3886,-4.3629,-4.1967,-4.164,-4.1973,-4.1924,-4.2139,-4.2483,-4.2483,-4.1839,-4.1093,-4.1093,-4.1272,-4.1472,-4.1472,-4.1821,-4.2157,-4.2157,-4.2157,-4.2157,-4.2198,-4.2198,-4.2198,-4.2198,-4.2198,-4.2198,-4.2198,-4.2198,-4.2378,-4.2806,-4.2882,-4.305,-4.3444,-4.3142,-4.3032,-4.3444,-4.3105,-4.2673,-4.2239,-4.2157,-4.2157,-4.2198,-4.2198,-4.2198,-4.2198,-4.2216,-4.2198,-4.2198,-4.2198,-4.2198,-4.2198,-4.2198,-4.2198,-4.2198,-4.2198,-4.2458,-3.1099,-3.2337,-3.3403,-3.283,-3.1602,-3.0142,-2.862,-2.7126,-2.5519,-2.3554,-2.32,-2.3188,-2.3028,-2.2995,-2.3894,-2.6742,0.0,0.0,0.0,0.0,0.0,-3.935,-4.3182,-4.5926,0.0,0.0,-4.7291,-4.7115,-4.7115,-4.7204,-4.7378,-4.7378,-4.7124,-4.66,-4.671,-4.6728,-4.6728,-4.6728,-4.6728,-4.6728,-4.6728,-4.6728,-4.6728,-4.6728,-4.6819,-4.6937,-4.6819,-4.6819,-4.6981,-4.699,-4.6945,-4.699,-4.7115,-4.6837,-4.6201,-4.5186,-4.4426,-4.3817,-4.2741,-4.2462,-4.2523,-4.2541,-4.26,-4.2734,-4.2734,-4.2404,-4.2074,-4.2074,-4.2139,-4.2162,-4.2162,-4.2284,-4.2422,-4.2422,-4.2324,-4.2364,-4.2675,-4.2848,-4.305,-4.3353,-4.3586,-4.3693,-4.3693,-4.3693,-4.3743,-4.3906,-4.3924,-4.3955,-4.4114,-4.3986,-4.3955,-4.4114,-4.4004,-4.3799,-4.3474,-4.2995,-4.2959,-4.368,-4.3226,-4.3105,-4.3406,-4.344,-4.3301,-4.3087,-4.3087,-4.3087,-4.3087,-4.3087,-4.3087,-4.3087,-4.3087,-4.3178,0.0,-3.0162,-3.1231,-3.0676,-2.976,-2.8722,-2.767,-2.6541,-2.529,-2.3773,-2.3495,-2.3468,-2.3283,-2.3212,-2.4088,-2.6778,-2.7759,0.0,0.0,0.0,0.0,-4.0838,0.0,0.0,0.0,-4.7534,-4.7816,-4.7632,-4.7591,-4.7674,-4.7856,-4.7856,-4.7937,-4.8078,-4.7756,-4.7591,-4.7591,-4.7591,-4.7591,-4.7591,-4.7591,-4.7591,-4.7591,-4.7591,-4.7674,-4.7856,-4.7674,-4.7715,0.0,-4.7674,-4.7591,-4.7591,-4.7591,-4.712,-4.6323,-4.5508,-4.4672,-4.3876,-4.3099,-4.2922,-4.3032,-4.3032,-4.3211,-4.3401,-4.3401,-4.3014,-4.2523,-4.2523,-4.26,-4.2716,-4.2716,-4.2923,-4.3122,-4.3122,-4.3121,-4.3208,-4.3502,-4.3634,-4.3794,-4.4102,-4.4308,-4.4383,-4.4383,-4.4383,-4.4383,-4.4383,-4.4383,-4.4383,-4.4383,-4.4383,-4.4383,-4.4383,-4.4383,-4.4374,-4.4308,-4.3786,-4.3735,-4.4355,-4.3979,-4.3844,-4.4151,-4.4151,-4.4042,-4.3823,-4.3823,-4.3823,-4.3823,-4.3823,-4.3823,-4.3823,-4.3823,-4.3823,0.0,-2.8335,-2.9584,-2.947,-2.847,-2.7513,-2.7414,-2.6169,0.0,-2.422,-2.3978,-2.3891,-2.3804,-2.3643,-2.3902,-2.5028,0.0,0.0,0.0,0.0,0.0,0.0,-4.5258,0.0,-4.6382,-4.756,-4.8153,-4.7715,-4.7674,-4.7897,-4.8306,-4.8344,-4.8532,-4.8909,-4.8155,-4.7715,-4.7715,-4.7674,-4.7674,-4.7674,-4.7674,-4.7674,-4.7674,-4.7674,-4.7937,-4.8306,-4.7897,-4.7937,-4.8306,-4.7897,-4.7674,-4.7674,-4.7674,-4.7166,-4.6332,-4.5591,-4.4774,-4.3901,-4.3195,-4.3194,-4.349,-4.349,-4.3924,-4.4411,-4.4411,-4.3629,-4.2737,-4.268,-4.2941,-4.3211,-4.3211,-4.3735,-4.425,-4.425,-4.4374,-4.4519,-4.4519,-4.4465,-4.4438,-4.4438,-4.4438,-4.4465,-4.4465,-4.4465,-4.4465,-4.4465,-4.4465,-4.4465,-4.4465,-4.4465,-4.4465,-4.4465,-4.4465,-4.4572,-4.4819,-4.4572,-4.443,-4.4438,-4.4438,-4.4411,-4.4411,-4.4411,-4.4411,-4.4383,-4.4383,-4.4383,-4.4383,-4.4383,-4.4383,-4.4383,-4.4383,-4.4383,-2.2942,0.0,-2.5805,-2.5748,-2.5511,-2.5259,0.0,-2.4931,-2.4524,0.0,0.0,-2.4527,-2.6304,-2.5627,-2.6236,-3.0604,0.0,0.0,-3.6139,0.0,0.0,-4.7314,-4.7975,-4.8196,-4.8255,-4.8549,-4.8714,-4.8605,-4.8569,-4.866,-4.875,-4.875,-4.8785,-4.8909,-4.8956,-4.8869,-4.8623,-4.8569,-4.8569,-4.8569,-4.8569,-4.8569,-4.8569,-4.8569,-4.866,-4.875,-4.866,-4.866,-4.875,-4.866,-4.8569,-4.8569,-4.8569,-4.7719,-4.648,-4.6471,-4.5562,-4.4319,-4.4327,-4.4382,-4.4482,-4.4482,-4.458,-4.4701,-4.4701,-4.4508,-4.4289,-4.4261,-4.4336,-4.4409,-4.4409,-4.4508,-4.465,-4.465,-4.465,-4.4624,-4.4591,-4.4676,-4.4776,-4.4776,-4.4981,-4.5154,-4.5154,-4.5178,-4.5137,-4.5087,-4.5115,-4.5159,-4.5154,-4.5159,-4.5161,-4.5161,-4.5161,-4.518,-4.5237,-4.472,-4.4591,-4.5065,-4.4862,-4.4701,-4.4701,-4.4701,-4.4599,-4.4383,-4.4383,-4.4383,-4.4383,-4.4383,-4.4383,-4.4383,-4.4383,-4.4383,-2.1334,-2.3249,-2.5057,-2.5057,-2.53,-2.556,-2.5578,0.0,0.0,0.0,0.0,0.0,-2.634,0.0,0.0,0.0,-3.3481,0.0,0.0,0.0,-4.6313,-4.8614,-4.8909,-4.8909,-4.8909,-4.8909,-4.8909,-4.8909,-4.8909,-4.8978,-4.9127,-4.9127,-4.9174,-4.9327,-4.948,-4.9439,-4.9127,-4.9252,-4.9327,-4.9327,-4.9327,-4.9327,-4.9327,-4.9327,-4.9327,-4.9327,-4.9327,-4.9327,-4.9327,-4.9327,-4.9327,-4.9327,-4.9327,-4.8314,-4.6869,-4.7024,-4.6024,-4.4599,-4.4751,-4.48,-4.48,-4.48,-4.4872,-4.4985,-4.4985,-4.5074,-4.5137,-4.4872,-4.48,-4.48,-4.48,-4.4872,-4.4985,-4.4985,-4.503,-4.5052,-4.503,-4.5074,-4.5118,-4.5118,-4.5281,-4.54,-4.54,-4.54,-4.5381,-4.5341,-4.538,-4.54,-4.54,-4.54,-4.54,-4.54,-4.54,-4.54,-4.54,-4.5123,-4.5058,-4.5297,-4.5132,-4.5023,-4.5023,-4.5023,-4.4957,-4.4814,-4.4814,-4.4814,-4.4814,-4.4814,-4.4814,-4.4814,-4.4814,-4.4814,-2.1097,-2.3606,-2.5818,-2.541,-2.6172,-2.695,-2.6767,0.0,0.0,0.0,0.0,0.0,0.0,0.0,0.0,0.0,0.0,0.0,-4.3947,-4.5907,-4.7364,-4.8874,-4.9042,-4.9042,-4.9042,-4.9042,-4.9042,-4.9042,-4.9042,-4.9174,-4.9457,-4.9457,-4.9558,-4.9784,-4.9857,-4.9749,-4.9529,-4.9693,-4.9803,-4.9803,-4.9803,-4.9803,-4.983,-4.983,-4.983,-4.983,-4.983,-4.983,-4.9803,-4.9803,-4.9803,-4.9803,-4.9803,-4.878,-4.7302,-4.7353,-4.629,-4.4868,-4.4915,-4.4919,-4.4919,-4.4919,-4.5074,-4.5263,-4.5263,-4.5419,-4.5513,-4.5052,-4.4919,-4.4919,-4.4919,-4.5096,-4.5263,-4.5263,-4.54,-4.5513,-4.5495,-4.5476,-4.5419,-4.5419,-4.5419,-4.5419,-4.5419,-4.5457,-4.5456,-4.5438,-4.5455,-4.5473,-4.5493,-4.5473,-4.5473,-4.5473,-4.5473,-4.5473,-4.5493,-4.5571,-4.5574,-4.5381,-4.538,-4.538,-4.538,-4.538,-4.5361,-4.5361,-4.536,-4.536,-4.536,-4.536,-4.5339,-4.5319,-4.5319,-4.5317,-2.2445,-2.4955,-2.6418,-2.4161,-2.5746,-2.7547,0.0,0.0,0.0,0.0,0.0,0.0,0.0,0.0,0.0,0.0,0.0,-4.2215,0.0,0.0,-4.8615,-4.9552,0.0,-4.9646,-4.9646,-4.9646,-4.9646,-4.9646,-4.9646,-4.9674,-4.9749,-4.9749,-4.9749,-4.9803,-5.0019,-5.0135,-5.0087,-4.9891,-4.9803,-4.9803,-4.9803,-4.983,-4.9865,-4.9865,-4.9865,-4.9865,-4.9865,-4.9857,-4.9803,-4.9803,-4.9803,-4.9803,-4.9803,-4.878,-4.7327,-4.7548,-4.6568,-4.518,-4.54,-4.5476,-4.5476,-4.5476,-4.5513,-4.555,-4.555,-4.5568,-4.5586,-4.5495,-4.5476,-4.5476,-4.5476,-4.5513,-4.555,-4.555,-4.5568,-4.5568,-4.5513,-4.5495,-4.5495,-4.5495,-4.5495,-4.5495,-4.5495,-4.5632,-4.5708,-4.5591,-4.5698,-4.582,-4.5815,-4.582,-4.5813,-4.5813,-4.5813,-4.582,-4.5815,-4.5828,-4.5815,-4.5731,-4.5711,-4.5711,-4.5711,-4.5675,-4.563,-4.563,-4.5645,-4.5651,-4.5651,-4.5651,-4.5584,-4.5457,-4.5457,-4.5419,-2.1339,-2.3771,-2.5712,-2.4444,-2.7309,-3.0339,0.0,0.0,0.0,0.0,0.0,0.0,0.0,0.0,0.0,0.0,0.0,-4.4354,-4.6644,-4.7897,-4.8901,0.0,-4.9803,-4.9803,-4.9803,-4.9803,-4.9803,-4.9803,-4.9803,-4.9865,-4.9993,-5.0038,-5.0087,-5.0268,-5.0399,-5.0483,-5.0483,-5.0339,-5.0294,-5.0291,-5.0294,-5.0298,-5.032,-5.0363,-5.0404,-5.0404,-5.0404,-5.0363,-5.0342,-5.0342,-5.0342,-5.0303,-4.9819,-4.8879,-4.7695,-4.6856,-4.6091,-4.5438,-4.5568,-4.5586,-4.5586,-4.5586,-4.5586,-4.5586,-4.5586,-4.5586,-4.5586,-4.5586,-4.5586,-4.5586,-4.5586,-4.5586,-4.5586,-4.5586,-4.5586,-4.562,-4.5648,-4.5665,-4.5677,-4.5708,-4.5722,-4.5722,-4.5722,-4.579,-4.5828,-4.5783,-4.5825,-4.5899,-4.5908,-4.5889,-4.5899,-4.5899,-4.5899,-4.5899,-4.5908,-4.5979,-4.5949,-4.582,-4.5789,-4.5789,-4.5789,-4.5764,-4.5751,-4.5751,-4.575,-4.5742,-4.5699,-4.5699,-4.5658,-4.5618,-4.5618,-4.5584,-2.0843,-2.2958,-2.5177,-2.5678,0.0,0.0,0.0,0.0,0.0,0.0,0.0,0.0,0.0,0.0,0.0,-4.3521,-4.4798,-4.5871,-4.7578,-4.838,-4.908,-4.9917,-5.0012,-5.0012,-5.0012,-5.0012,-5.0012,-5.0012,-5.0012,-5.0087,-5.0313,-5.0336,-5.0442,-5.0683,-5.0702,-5.0702,-5.0721,-5.074,-5.0721,-5.0702,-5.072,-5.072,-5.0757,-5.0793,-5.081,-5.081,-5.081,-5.0694,-5.0503,-5.0503,-5.0368,-5.0156,-4.9485,-4.8696,-4.7733,-4.6179,-4.5622,-4.5622,-4.5622,-4.5586,-4.5586,-4.5586,-4.5586,-4.5586,-4.5586,-4.5586,-4.5603,-4.5637,-4.5654,-4.5654,-4.5603,-4.562,-4.5654,-4.5654,-4.5668,-4.5692,-4.5789,-4.5815,-4.5841,-4.5889,-4.5899,-4.5899,-4.5899,-4.592,-4.5959,-4.5959,-4.5978,-4.5996,-4.5996,-4.5996,-4.5996,-4.5996,-4.5996,-4.5996,-4.5996,-4.6091,-4.6091,-4.592,-4.592,-4.592,-4.592,-4.5899,-4.5889,-4.5897,-4.5886,-4.584,-4.5777,-4.5777,-4.5756,-4.5746,-4.5746,-4.5731,-2.2917,-2.4343,-2.5726,-2.7954,0.0,0.0,0.0,0.0,0.0,0.0,0.0,0.0,0.0,0.0,-4.1459,-4.3444,-4.5235,-4.6799,-4.8008,0.0,-4.9663,-5.0528,-5.0643,-5.0643,-5.0643,-5.0643,-5.0643,-5.0643,-5.0643,-5.0624,-5.0663,-5.0663,-5.0683,-5.0701,-5.0683,-5.074,-5.0793,-5.0856,-5.0818,-5.0701,-5.0775,-5.0829,-5.0883,-5.0899,-5.0899,-5.0899,-5.0899,-5.0402,-4.9597,-4.9597,-4.9153,-4.8478,-4.8403,-4.7844,-4.6976,-4.6037,-4.5693,-4.5693,-4.5622,-4.5586,-4.5586,-4.5586,-4.5586,-4.5586,-4.5586,-4.5586,-4.562,-4.5742,-4.5786,-4.5757,-4.5637,-4.57,-4.5786,-4.5786,-4.5835,-4.5878,-4.5889,-4.5889,-4.5889,-4.5899,-4.5899,-4.5899,-4.5899,-4.5996,-4.6091,-4.6091,-4.6187,-4.6273,-4.6273,-4.6273,-4.6273,-4.6273,-4.6273,-4.6273,-4.6273,-4.6277,-4.6277,-4.6249,-4.6249,-4.6249,-4.6249,-4.6211,-4.6164,-4.6169,-4.6111,-4.6047,-4.5986,-4.5986,-4.5941,-4.5893,-4.5893,-4.5819,-2.1359,-2.3803,-2.6288,-2.7206,0.0,0.0,0.0,0.0,0.0,0.0,0.0,0.0,0.0,0.0,-4.3312,-4.3804,-4.5495,-4.6896,-4.7335,-4.8067,-4.8702,-4.9048,-4.9086,-4.9086,-4.9086,-4.9105,-4.9143,-4.9086,-4.9161,-4.9199,-4.9143,-4.9179,-4.9216,-4.9215,-4.9256,-4.9295,-4.9311,-4.941,-4.9437,-4.9395,-4.993,-4.9944,-4.9461,-4.9473,-4.947,-4.947,-4.947,-4.9277,-4.8952,-4.8929,-4.8752,-4.8423,-4.7886,-4.7121,-4.6278,-4.5935,-4.5825,-4.5811,-4.5804,-4.5776,-4.5791,-4.5802,-4.5796,-4.5796,-4.5796,-4.5796,-4.5809,-4.584,-4.5852,-4.584,-4.579,-4.5815,-4.5852,-4.5852,-4.5867,-4.592,-4.6005,-4.6013,-4.6049,-4.6138,-4.6144,-4.6144,-4.6144,-4.6181,-4.6216,-4.6216,-4.6273,-4.63,-4.63,-4.63,-4.63,-4.63,-4.63,-4.63,-4.63,-4.63,-4.63,-4.63,-4.63,-4.63,-4.63,-4.6273,-4.624,-4.6189,-4.6177,-4.6123,-4.6066,-4.6066,-4.6037,-4.5953,-4.5953,-4.5929,-2.1012,-2.3398,-2.6073,0.0,0.0,0.0,0.0,0.0,0.0,0.0,0.0,0.0,0.0,0.0,0.0,0.0,-4.5437,-4.6604,-4.6891,-4.7373,-4.7816,-4.8123,-4.8161,-4.8161,-4.8161,-4.8197,-4.8216,-4.8161,-4.8251,-4.8287,-4.8234,-4.8309,-4.8326,-4.8323,-4.8405,-4.8436,-4.8464,-4.8593,-4.8504,-4.8254,-4.8825,-4.8924,-4.8595,-4.8612,-4.8606,-4.8606,-4.8606,-4.8432,-4.8199,-4.8193,-4.8031,-4.7753,-4.7139,-4.6532,-4.5964,-4.5945,-4.5938,-4.593,-4.5917,-4.5891,-4.5891,-4.589,-4.5891,-4.5891,-4.591,-4.5899,-4.591,-4.594,-4.5949,-4.5978,-4.6024,-4.5996,-4.5949,-4.5949,-4.5996,-4.6049,-4.6144,-4.615,-4.6181,-4.6277,-4.63,-4.63,-4.63,-4.63,-4.63,-4.63,-4.63,-4.63,-4.63,-4.63,-4.63,-4.63,-4.63,-4.63,-4.63,-4.63,-4.63,-4.63,-4.63,-4.63,-4.63,-4.63,-4.6273,-4.6206,-4.6206,-4.6183,-4.6138,-4.6102,-4.6075,-4.6027,-4.6007,-4.5997,-2.2577,-2.3443,0.0,0.0,0.0,0.0,0.0,0.0,0.0,0.0,0.0,0.0,0.0,0.0,0.0,-4.3924,-4.5009,-4.5998,-4.686,-4.6923,-4.7232,-4.8152,-4.8285,-4.8285,-4.8285,-4.8285,-4.8285,-4.8285,-4.8285,-4.8285,-4.8285,-4.833,-4.8386,-4.8376,-4.8456,-4.8507,-4.8577,-4.8636,-4.8277,-4.7484,-4.7563,-4.7934,-4.8577,-4.8577,-4.8577,-4.8577,-4.8577,-4.809,-4.7291,-4.7291,-4.6831,-4.6105,-4.6105,-4.6105,-4.6086,-4.602,-4.6001,-4.6001,-4.5935,-4.5891,-4.5901,-4.5899,-4.5896,-4.5907,-4.5911,-4.591,-4.593,-4.6057,-4.6098,-4.6138,-4.6269,-4.6206,-4.6098,-4.6098,-4.6206,-4.63,-4.63,-4.63,-4.63,-4.63,-4.63,-4.63,-4.63,-4.63,-4.63,-4.63,-4.63,-4.63,-4.63,-4.63,-4.63,-4.63,-4.63,-4.63,-4.63,-4.63,-4.63,-4.63,-4.63,-4.63,-4.63,-4.63,-4.6273,-4.6206,-4.6206,-4.6195,-4.6196,-4.6138,-4.6093,-4.6093,-4.6027,-4.5997,-2.1993,-2.4687,0.0,0.0,0.0,0.0,0.0,0.0,0.0,0.0,0.0,0.0,0.0,0.0,0.0,-4.4116,-4.497,-4.578,-4.6047,-4.607,-4.6166,-4.6433,-4.6471,-4.6471,-4.6471,-4.6522,-4.6542,-4.6535,-4.6634,-4.6669,-4.668,-4.675,-4.6784,-4.6776,-4.6849,-4.6892,-4.6918,-4.6981,-4.6876,-4.6658,-4.6677,-4.6786,-4.6981,-4.6981,-4.6981,-4.6981,-4.6981,-4.6844,-4.6608,-4.6608,-4.6454,-4.6241,-4.6241,-4.6241,-4.6241,-4.6221,-4.6202,-4.62,-4.6198,-4.6173,-4.6189,-4.6183,-4.6191,-4.6172,-4.6181,-4.6181,-4.6181,-4.624,-4.624,-4.6245,-4.6296,-4.6273,-4.624,-4.624,-4.6273,-4.63,-4.63,-4.63,-4.63,-4.63,-4.63,-4.63,-4.63,-4.63,-4.63,-4.63,-4.63,-4.63,-4.63,-4.63,-4.63,-4.63,-4.63,-4.63,-4.63,-4.63,-4.63,-4.63,-4.63,-4.63,-4.63,-4.63,-4.6273,-4.6206,-4.6206,-4.6195,-4.6196,-4.6189,-4.6162,-4.6162,-4.6146,-4.6146,-2.3732,0.0,0.0,0.0,0.0,0.0,0.0,0.0,0.0,0.0,0.0,-4.4842,-4.4793,-4.4925,0.0,-4.4741,-4.5269,-4.5715,-4.575,-4.5731,-4.5731,-4.5727,-4.5742,-4.5742,-4.5742,-4.5815,-4.5873,-4.5885,-4.5977,-4.605,-4.6053,-4.6106,-4.6145,-4.6144,-4.621,-4.6247,-4.6247,-4.6288,-4.6286,-4.6309,-4.6306,-4.6308,-4.6308,-4.6308,-4.6308,-4.6308,-4.6308,-4.6308,-4.6308,-4.6308,-4.6308,-4.6308,-4.6308,-4.6308,-4.6308,-4.6308,-4.6308,-4.6308,-4.6308,-4.6308,-4.6308,-4.6307,-4.6303,-4.6297,-4.6303,-4.63,-4.63,-4.63,-4.63,-4.63,-4.63,-4.63,-4.63,-4.63,-4.63,-4.63,-4.63,-4.63,-4.63,-4.63,-4.63,-4.63,-4.63,-4.63,-4.63,-4.63,-4.63,-4.63,-4.63,-4.63,-4.63,-4.63,-4.63,-4.63,-4.63,-4.6309,-4.6295,-4.6295,-4.6295,-4.6295,-4.6295,-4.6306,-4.6277,-4.624,-4.624,-4.6236,-4.624,-4.6203,-4.6196,-4.6196,-4.6203,-4.6196,0.0,0.0,0.0,0.0,0.0,0.0,0.0,0.0,0.0,0.0,0.0,-4.4636,-4.5617,-4.4958,-4.4587,-4.563,-4.5765,-4.5731,-4.5781,-4.5815,-4.581,-4.58,-4.5819,-4.5819,-4.5819,-4.593,-4.6007,-4.6027,-4.6056,-4.6111,-4.6118,-4.6182,-4.6222,-4.6222,-4.6264,-4.6308,-4.6308,-4.6307,-4.6305,-4.6285,-4.6285,-4.6286,-4.6288,-4.6289,-4.6308,-4.6308,-4.6308,-4.6308,-4.6308,-4.6308,-4.6308,-4.6308,-4.6308,-4.6308,-4.6308,-4.6308,-4.6308,-4.6308,-4.6308,-4.6308,-4.6308,-4.6308,-4.6308,-4.6307,-4.6293,-4.6303,-4.63,-4.63,-4.63,-4.63,-4.63,-4.63,-4.63,-4.63,-4.63,-4.63,-4.63,-4.63,-4.63,-4.63,-4.63,-4.63,-4.63,-4.63,-4.63,-4.63,-4.63,-4.63,-4.63,-4.6303,-4.6303,-4.6303,-4.6303,-4.6306,-4.6287,-4.6301,-4.6307,-4.6288,-4.6288,-4.6288,-4.6288,-4.6295,-4.63,-4.63,-4.63,-4.63,-4.63,-4.624,-4.6211,-4.6211,-4.6203,-4.6209,0.0,0.0,0.0,0.0,0.0,0.0,0.0,0.0,0.0,0.0,-4.5478,-4.5519,-4.5757,-4.5611,-4.5503,-4.5761,-4.5791,-4.5786,-4.5786,-4.5896,-4.5916,-4.58,-4.5949,-4.6007,-4.5969,-4.6027,-4.6104,-4.6143,-4.6177,-4.6192,-4.6241,-4.6276,-4.6287,-4.6287,-4.6286,-4.6308,-4.6308,-4.6305,-4.6266,-4.6208,-4.6208,-4.6182,-4.6147,-4.6243,-4.6308,-4.6308,-4.6308,-4.6308,-4.6308,-4.6308,-4.6308,-4.6308,-4.6308,-4.6308,-4.6308,-4.6308,-4.6308,-4.6308,-4.6308,-4.6308,-4.6308,-4.6308,-4.6307,-4.6303,-4.63,-4.629,-4.63,-4.63,-4.63,-4.63,-4.63,-4.63,-4.63,-4.63,-4.63,-4.63,-4.63,-4.63,-4.63,-4.63,-4.63,-4.63,-4.63,-4.63,-4.63,-4.63,-4.63,-4.63,-4.63,-4.6297,-4.6303,-4.6303,-4.6303,-4.6287,-4.623,-4.6269,-4.6289,-4.6228,-4.6228,-4.6228,-4.6228,-4.6262,-4.63,-4.63,-4.63,-4.63,-4.63,-4.6296,-4.6273,-4.6273,-4.6288,-4.6288,0.0,0.0,0.0,0.0,0.0,0.0,0.0,0.0,0.0,-4.553,-4.5692,-4.5791,-4.5791,-4.5791,-4.5791,-4.5791,-4.5786,-4.5819,-4.5877,-4.5969,-4.599,-4.5936,-4.6048,-4.61,-4.6044,-4.6106,-4.6162,-4.6201,-4.6231,-4.627,-4.6308,-4.6308,-4.6308,-4.6308,-4.6308,-4.6278,-4.6248,-4.6244,-4.6229,-4.6152,-4.6151,-4.6145,-4.6095,-4.6162,-4.6206,-4.6206,-4.6206,-4.6206,-4.6206,-4.6206,-4.6206,-4.6206,-4.6206,-4.6206,-4.6206,-4.6206,-4.6206,-4.6206,-4.6206,-4.6206,-4.6206,-4.6206,-4.6192,-4.6198,-4.6204,-4.6204,-4.62,-4.62,-4.6208,-4.6191,-4.6191,-4.6247,-4.63,-4.6267,-4.6278,-4.63,-4.63,-4.63,-4.63,-4.63,-4.63,-4.63,-4.63,-4.629,-4.6295,-4.6303,-4.628,-4.6265,-4.6297,-4.6268,-4.6249,-4.6249,-4.6249,-4.6249,-4.6204,-4.6223,-4.6241,-4.6192,-4.6189,-4.6189,-4.6189,-4.623,-4.6248,-4.6248,-4.6248,-4.6248,-4.6248,-4.6248,-4.6248,-4.6247,-4.6282,-4.6297,0.0,0.0,0.0,0.0,0.0,0.0,0.0,0.0,0.0,-4.5432,-4.5703,-4.58,-4.58,-4.58,-4.58,-4.5819,-4.5819,-4.5877,-4.6007,-4.6027,-4.6041,-4.6084,-4.6115,-4.6133,-4.613,-4.6192,-4.6224,-4.6224,-4.6264,-4.6308,-4.6308,-4.6308,-4.6288,-4.6276,-4.6276,-4.6254,-4.6183,-4.6189,-4.6162,-4.608,-4.6053,-4.6046,-4.6046,-4.6047,-4.608,-4.6099,-4.6099,-4.6099,-4.6099,-4.6099,-4.6099,-4.6099,-4.6099,-4.6099,-4.6099,-4.6099,-4.6099,-4.6099,-4.6099,-4.6099,-4.6099,-4.6099,-4.6096,-4.6098,-4.6105,-4.6112,-4.6096,-4.6096,-4.6092,-4.6101,-4.6101,-4.6182,-4.6249,-4.6202,-4.623,-4.6278,-4.6276,-4.6273,-4.6273,-4.6273,-4.6273,-4.6273,-4.6273,-4.6285,-4.6287,-4.6276,-4.623,-4.6226,-4.6289,-4.6228,-4.62,-4.62,-4.62,-4.6198,-4.6195,-4.6199,-4.6206,-4.6197,-4.6197,-4.6197,-4.6197,-4.6202,-4.6195,-4.6195,-4.6202,-4.6204,-4.6204,-4.6204,-4.6204,-4.6204,-4.6269,-4.6289,0.0,0.0,0.0,0.0,0.0,0.0,0.0,0.0,-4.3794,0.0,-4.5316,-4.58,-4.58,-4.58,-4.5838,-4.5949,-4.5969,-4.6007,-4.6085,-4.6143,-4.6169,-4.6103,-4.6195,-4.6255,-4.6177,-4.6261,-4.6282,-4.6282,-4.6288,-4.6308,-4.6308,-4.6308,-4.6277,-4.622,-4.6208,-4.618,-4.6107,-4.6104,-4.6079,-4.6003,-4.5905,-4.5838,-4.5852,-4.5841,-4.5945,-4.61,-4.61,-4.61,-4.61,-4.61,-4.61,-4.61,-4.61,-4.61,-4.61,-4.61,-4.61,-4.61,-4.61,-4.61,-4.61,-4.61,-4.6102,-4.6099,-4.6107,-4.6105,-4.6098,-4.6098,-4.6108,-4.6094,-4.6094,-4.6104,-4.6128,-4.6123,-4.6128,-4.6144,-4.6205,-4.6208,-4.6208,-4.6208,-4.6208,-4.6208,-4.6208,-4.6207,-4.6207,-4.6208,-4.6205,-4.6204,-4.6207,-4.6212,-4.6195,-4.6195,-4.6195,-4.6201,-4.6203,-4.6192,-4.6192,-4.619,-4.6209,-4.6209,-4.6209,-4.6196,-4.6196,-4.6196,-4.6206,-4.6204,-4.6204,-4.6204,-4.6204,-4.6204,-4.6205,-4.6207,0.0,0.0,0.0,0.0,0.0,0.0,0.0,0.0,-4.2969,-4.3801,-4.4265,-4.48,-4.5742,-4.5949,-4.5988,-4.6046,-4.6057,-4.6072,-4.6137,-4.6181,-4.6197,-4.6214,-4.6265,-4.6284,-4.6254,-4.6276,-4.6308,-4.6308,-4.6275,-4.6251,-4.6251,-4.6206,-4.6176,-4.6144,-4.6145,-4.61,-4.6033,-4.6042,-4.5988,-4.5877,-4.5819,-4.58,-4.58,-4.58,-4.5838,-4.593,-4.593,-4.593,-4.593,-4.593,-4.593,-4.593,-4.593,-4.593,-4.593,-4.593,-4.593,-4.593,-4.593,-4.593,-4.593,-4.593,-4.5938,-4.5933,-4.5933,-4.5928,-4.5939,-4.5939,-4.5959,-4.5978,-4.5978,-4.6029,-4.604,-4.6049,-4.6045,-4.6053,-4.6073,-4.6114,-4.614,-4.614,-4.615,-4.6136,-4.6136,-4.617,-4.6192,-4.6202,-4.6202,-4.6206,-4.6206,-4.6197,-4.6195,-4.6195,-4.6195,-4.6203,-4.6203,-4.6203,-4.6203,-4.6203,-4.6196,-4.6196,-4.6196,-4.6196,-4.6196,-4.6196,-4.6201,-4.6201,-4.6201,-4.6201,-4.6201,-4.6201,-4.6199,-4.6206,0.0,0.0,0.0,0.0,0.0,0.0,0.0,0.0,-4.1571,0.0,-4.3042,-4.365,-4.5109,-4.5602,-4.5776,-4.5794,-4.5975,-4.6153,-4.6231,-4.624,-4.6251,-4.6287,-4.6308,-4.6308,-4.6308,-4.6278,-4.6261,-4.6261,-4.621,-4.6171,-4.6162,-4.6133,-4.6093,-4.6074,-4.6072,-4.6027,-4.5949,-4.5949,-4.5896,-4.58,-4.58,-4.58,-4.58,-4.58,-4.58,-4.58,-4.58,-4.58,-4.58,-4.58,-4.58,-4.58,-4.58,-4.58,-4.58,-4.58,-4.58,-4.58,-4.58,-4.58,-4.58,-4.58,-4.58,-4.58,-4.58,-4.58,-4.58,-4.58,-4.5841,-4.5861,-4.5861,-4.5917,-4.5959,-4.5956,-4.5949,-4.5959,-4.5988,-4.6052,-4.6073,-4.6105,-4.6103,-4.6099,-4.6128,-4.6177,-4.6201,-4.6206,-4.6206,-4.619,-4.6206,-4.6203,-4.6196,-4.6196,-4.6196,-4.6196,-4.6196,-4.6196,-4.6196,-4.6196,-4.6196,-4.6196,-4.6196,-4.6196,-4.6196,-4.6196,-4.6196,-4.6196,-4.6196,-4.6196,-4.6196,-4.6196,-4.6195,-4.6192,0.0,0.0,0.0,0.0,0.0,0.0,0.0,0.0,-3.9135,-4.0707,-4.18,-4.2728,-4.3573,-4.4355,-4.4898,-4.4937,-4.5659,-4.621,-4.628,-4.6288,-4.6308,-4.6308,-4.6308,-4.6308,-4.6308,-4.6244,-4.6203,-4.6203,-4.6144,-4.6114,-4.6118,-4.6098,-4.606,-4.6002,-4.6007,-4.5949,-4.58,-4.58,-4.58,-4.58,-4.58,-4.58,-4.58,-4.58,-4.58,-4.58,-4.58,-4.58,-4.58,-4.58,-4.58,-4.58,-4.58,-4.58,-4.58,-4.58,-4.58,-4.58,-4.58,-4.58,-4.58,-4.58,-4.58,-4.58,-4.58,-4.58,-4.58,-4.58,-4.5814,-4.5814,-4.5814,-4.5814,-4.5808,-4.5814,-4.5808,-4.5835,-4.5975,-4.6007,-4.6027,-4.6093,-4.6102,-4.6119,-4.6176,-4.6203,-4.6203,-4.6203,-4.6203,-4.6196,-4.6203,-4.6203,-4.6196,-4.6196,-4.6196,-4.6196,-4.6196,-4.6196,-4.6196,-4.6196,-4.6196,-4.6196,-4.6196,-4.6196,-4.6196,-4.6196,-4.6196,-4.6196,-4.6196,-4.6196,-4.6196,-4.6196,-4.6203,-4.6203,0.0,0.0,0.0,0.0,0.0,0.0,0.0,-3.5669,-3.8039,-3.9201,-4.0154,-4.1052,-4.1893,-4.3179,-4.4097,-4.4129,-4.4392,-4.4594,-4.4628,-4.4629,-4.4813,-4.5332,-4.5404,-4.5601,-4.6119,-4.6142,-4.6141,-4.6137,-4.608,-4.6053,-4.6046,-4.5949,-4.5896,-4.5858,-4.5858,-4.5838,-4.58,-4.58,-4.58,-4.58,-4.58,-4.58,-4.58,-4.58,-4.58,-4.58,-4.58,-4.58,-4.58,-4.58,-4.58,-4.58,-4.58,-4.58,-4.58,-4.58,-4.58,-4.58,-4.58,-4.58,-4.58,-4.58,-4.58,-4.58,-4.58,-4.58,-4.58,-4.58,-4.58,-4.58,-4.58,-4.58,-4.58,-4.58,-4.58,-4.5814,-4.5848,-4.5861,-4.5893,-4.5898,-4.5953,-4.5986,-4.6007,-4.6084,-4.6111,-4.6084,-4.6146,-4.6162,-4.6084,-4.6146,-4.6189,-4.6146,-4.6162,-4.6196,-4.6196,-4.6196,-4.6196,-4.6196,-4.6196,-4.6196,-4.6196,-4.6196,-4.6196,-4.6196,-4.6196,-4.6196,-4.6196,-4.6196,-4.6196,-4.6196,-4.6196,-4.6196,0.0,0.0,0.0,0.0,0.0,0.0,-3.0664,0.0,-3.5564,-3.6992,-3.8212,-3.9287,-4.0182,-4.1246,-4.2266,-4.3125,-4.3516,-4.3689,-4.3677,-4.3669,-4.3857,-4.4372,-4.4441,-4.4628,-4.5182,-4.5472,-4.5627,-4.5634,-4.5833,-4.593,-4.593,-4.5838,-4.58,-4.58,-4.58,-4.58,-4.58,-4.58,-4.58,-4.58,-4.58,-4.58,-4.58,-4.58,-4.58,-4.58,-4.58,-4.58,-4.58,-4.58,-4.58,-4.58,-4.58,-4.58,-4.58,-4.58,-4.58,-4.58,-4.58,-4.58,-4.58,-4.58,-4.58,-4.58,-4.58,-4.58,-4.58,-4.58,-4.58,-4.58,-4.58,-4.58,-4.58,-4.58,-4.58,-4.58,-4.58,-4.58,-4.5814,-4.5841,-4.588,-4.5917,-4.5941,-4.6007,-4.6037,-4.6007,-4.6075,-4.6093,-4.6007,-4.6093,-4.6146,-4.6102,-4.6154,-4.6196,-4.6196,-4.6196,-4.6196,-4.6196,-4.6196,-4.6196,-4.6196,-4.6196,-4.6196,-4.6196,-4.6196,-4.6196,-4.6196,-4.6196,-4.6196,-4.6196,-4.6196,-4.6196,0.0,0.0,0.0,0.0,0.0,0.0,-2.8437,0.0,-3.1504,-3.4062,-3.5957,-3.7422,-3.8359,-3.8535,-3.9375,-4.1836,-4.3008,-4.357,-4.3535,-4.3524,-4.3516,-4.3454,-4.346,-4.346,-4.3479,-4.4208,-4.4672,-4.4672,-4.533,-4.5722,-4.5722,-4.5742,-4.578,-4.58,-4.58,-4.58,-4.58,-4.58,-4.58,-4.58,-4.58,-4.58,-4.58,-4.58,-4.58,-4.58,-4.58,-4.58,-4.58,-4.58,-4.58,-4.58,-4.58,-4.58,-4.58,-4.58,-4.58,-4.58,-4.58,-4.58,-4.58,-4.58,-4.58,-4.58,-4.58,-4.58,-4.58,-4.58,-4.58,-4.58,-4.58,-4.58,-4.58,-4.58,-4.58,-4.58,-4.58,-4.58,-4.5827,-4.5873,-4.5905,-4.5929,-4.5986,-4.5997,-4.5997,-4.5997,-4.5997,-4.5997,-4.5997,-4.6066,-4.6102,-4.6093,-4.6154,-4.6196,-4.6196,-4.6196,-4.6196,-4.6196,-4.6196,-4.6196,-4.6196,-4.6196,-4.6196,-4.6196,-4.6196,-4.6196,-4.6196,-4.6196,-4.6196,-4.6196,-4.6196,-4.6196,-1.7035,0.0,0.0,0.0,0.0,0.0,0.0,0.0,-2.8803,-3.1351,-3.2765,-3.4185,-3.6267,-3.7109,-3.7749,-3.8452,-3.9877,-4.1071,-4.163,-4.1712,-4.1923,-4.2435,-4.2492,-4.2725,-4.3305,-4.3556,-4.3692,-4.3692,-4.3885,-4.3982,-4.3982,-4.4601,-4.52,-4.578,-4.58,-4.58,-4.58,-4.58,-4.58,-4.58,-4.58,-4.58,-4.58,-4.58,-4.58,-4.58,-4.58,-4.58,-4.58,-4.58,-4.58,-4.58,-4.58,-4.58,-4.58,-4.58,-4.58,-4.58,-4.58,-4.58,-4.58,-4.58,-4.58,-4.58,-4.58,-4.58,-4.58,-4.58,-4.58,-4.58,-4.58,-4.58,-4.58,-4.58,-4.58,-4.58,-4.58,-4.58,-4.5814,-4.5808,-4.5841,-4.5822,-4.5848,-4.5905,-4.5898,-4.5848,-4.5986,-4.6027,-4.5953,-4.6075,-4.6154,-4.6122,-4.6154,-4.6196,-4.6196,-4.6196,-4.6196,-4.6196,-4.6196,-4.6196,-4.6196,-4.6196,-4.6196,-4.6196,-4.6196,-4.6196,-4.6196,-4.6196,-4.6196,-4.6196,-4.6196,-4.6196,0.0,0.0,0.0,0.0,0.0,0.0,-2.4179,-2.532,-2.6634,0.0,-3.0416,-3.156,-3.3401,-3.4413,-3.5196,-3.5889,-3.7182,-3.8515,-3.9712,-4.0186,-4.0558,-4.0965,-4.1351,-4.1738,-4.2202,-4.257,-4.2763,-4.2763,-4.3092,-4.3291,-4.3272,-4.3775,-4.4432,-4.5225,-4.5278,-4.5452,-4.58,-4.58,-4.58,-4.58,-4.58,-4.58,-4.58,-4.58,-4.58,-4.58,-4.58,-4.58,-4.58,-4.58,-4.58,-4.58,-4.58,-4.58,-4.58,-4.58,-4.58,-4.58,-4.58,-4.58,-4.58,-4.58,-4.58,-4.58,-4.58,-4.58,-4.58,-4.58,-4.58,-4.58,-4.58,-4.58,-4.58,-4.58,-4.58,-4.58,-4.58,-4.58,-4.58,-4.58,-4.58,-4.58,-4.58,-4.5822,-4.5854,-4.5814,-4.5905,-4.5953,-4.588,-4.5986,-4.6066,-4.6017,-4.6075,-4.6138,-4.6154,-4.6138,-4.6146,-4.6196,-4.6162,-4.6162,-4.6196,-4.6196,-4.6196,-4.6196,-4.6196,-4.6196,-4.6196,-4.6196,-4.6196,-4.6196,-4.6196,-4.6196,0.0,0.0,0.0,0.0,-2.2763,0.0,-2.5562,-2.5336,-2.5008,0.0,-2.8243,-2.9046,-2.9965,-3.0905,-3.2048,-3.3548,-3.4621,-3.5974,-3.7998,-3.8965,-3.9429,-3.9359,-4.0036,-4.0539,-4.0636,-4.1293,-4.1757,-4.1854,-4.2589,-4.304,-4.3071,-4.3117,-4.3523,-4.4327,-4.4432,-4.4852,-4.5664,-4.5664,-4.5703,-4.58,-4.58,-4.58,-4.58,-4.58,-4.58,-4.58,-4.58,-4.58,-4.58,-4.58,-4.58,-4.58,-4.58,-4.58,-4.58,-4.58,-4.58,-4.58,-4.58,-4.58,-4.58,-4.58,-4.58,-4.58,-4.58,-4.58,-4.58,-4.58,-4.58,-4.58,-4.58,-4.58,-4.58,-4.58,-4.58,-4.58,-4.58,-4.58,-4.58,-4.58,-4.58,-4.58,-4.58,-4.58,-4.58,-4.58,-4.5814,-4.5814,-4.5814,-4.588,-4.5898,-4.5898,-4.5964,-4.6017,-4.6084,-4.6027,-4.6037,-4.6162,-4.6111,-4.613,-4.6181,-4.6189,-4.6189,-4.6189,-4.6196,-4.6196,-4.6196,-4.6196,-4.6196,-4.6196,-4.6196,-4.6196,-2.2254,-2.3269,-2.4694,-2.3626,-2.4562,0.0,-2.3249,-2.3626,-2.4326,0.0,-2.4147,-2.4725,-2.6235,-2.7763,-2.8885,-2.9214,-3.112,-3.3886,-3.7696,-3.8373,-3.847,-3.847,-3.8605,-3.8972,-3.9688,-3.9913,-4.0268,-4.0984,-4.1177,-4.1551,-4.2207,-4.2247,-4.2615,-4.3438,-4.3523,-4.3982,-4.4833,-4.4833,-4.5162,-4.58,-4.5791,-4.5791,-4.58,-4.5791,-4.5791,-4.58,-4.58,-4.58,-4.58,-4.58,-4.58,-4.58,-4.58,-4.58,-4.58,-4.58,-4.58,-4.58,-4.58,-4.58,-4.58,-4.58,-4.58,-4.58,-4.58,-4.58,-4.58,-4.58,-4.58,-4.58,-4.58,-4.58,-4.58,-4.58,-4.58,-4.58,-4.58,-4.58,-4.58,-4.58,-4.58,-4.58,-4.58,-4.58,-4.58,-4.58,-4.5854,-4.5873,-4.5873,-4.5941,-4.5986,-4.5986,-4.5997,-4.6007,-4.6017,-4.6007,-4.6007,-4.6027,-4.6017,-4.6017,-4.6027,-4.6027,-4.6047,-4.613,-4.6162,-4.6196,-4.6196,-4.6196,-4.6196,-4.6196,-4.6196,-4.6196,-2.4313,-2.4687,-2.5644,-2.5599,0.0,0.0,0.0,-2.4612,-2.4401,-2.4767,-2.4176,-2.4118,-2.5801,-2.6459,-2.702,-2.786,-2.9437,-3.1468,-3.406,-3.551,-3.6303,-3.6303,-3.7038,-3.7715,-3.816,-3.8593,-3.9025,-3.947,-3.9883,-4.0275,-4.0693,-4.1073,-4.1685,-4.2541,-4.2626,-4.3065,-4.3943,-4.4388,-4.478,-4.5153,-4.5583,-4.5795,-4.5791,-4.5795,-4.581,-4.58,-4.58,-4.58,-4.58,-4.58,-4.58,-4.58,-4.58,-4.58,-4.58,-4.58,-4.58,-4.58,-4.58,-4.58,-4.58,-4.58,-4.58,-4.58,-4.58,-4.58,-4.58,-4.58,-4.58,-4.58,-4.58,-4.58,-4.58,-4.58,-4.58,-4.58,-4.58,-4.58,-4.58,-4.58,-4.58,-4.58,-4.58,-4.58,-4.58,-4.58,-4.5841,-4.5854,-4.5854,-4.5893,-4.5886,-4.5886,-4.5886,-4.5898,-4.5953,-4.5929,-4.5941,-4.5997,-4.5975,-4.5975,-4.5997,-4.5997,-4.6017,-4.6056,-4.6084,-4.6093,-4.6093,-4.6093,-4.6138,-4.6196,-4.6196,-4.6196,0.0,-2.6334,-2.6786,-2.7643,0.0,-2.6062,0.0,0.0,0.0,-2.5793,-2.4911,-2.4389,0.0,0.0,0.0,-2.6826,-2.8025,-2.8992,-2.9534,-3.1526,-3.3093,-3.3615,-3.5007,-3.5974,-3.6149,-3.6803,-3.7486,-3.815,-3.8338,-3.8697,-3.9359,-4.0009,-4.0761,-4.1629,-4.1668,-4.2102,-4.2994,-4.3661,-4.4133,-4.4427,-4.5105,-4.553,-4.5684,-4.5632,-4.5629,-4.5638,-4.5673,-4.5708,-4.5718,-4.5752,-4.5786,-4.58,-4.58,-4.58,-4.58,-4.58,-4.58,-4.58,-4.58,-4.58,-4.58,-4.58,-4.58,-4.58,-4.58,-4.58,-4.58,-4.58,-4.58,-4.58,-4.58,-4.58,-4.58,-4.58,-4.58,-4.58,-4.58,-4.58,-4.58,-4.58,-4.58,-4.58,-4.58,-4.58,-4.58,-4.58,-4.58,-4.58,-4.58,-4.58,-4.58,-4.58,-4.58,-4.5827,-4.588,-4.5841,-4.5854,-4.5944,-4.5898,-4.5917,-4.5964,-4.5975,-4.5975,-4.5944,-4.5944,-4.5944,-4.5914,-4.5914,-4.6017,-4.6154,-4.6154,-4.6154,0.0,0.0,0.0,0.0,-2.9101,-3.0004,-2.5716,0.0,-2.5971,-2.3777,0.0,-2.3183,0.0,0.0,0.0,0.0,0.0,-2.6779,-2.6169,-2.6942,-2.8431,-3.0752,-3.1835,-3.2687,-3.345,-3.3624,-3.4947,-3.7977,-3.6141,-3.6183,-3.9143,-3.9455,-3.9899,-4.0718,-4.0572,-4.096,-4.1944,-4.1833,-4.2564,-4.4152,-4.4135,-4.4515,-4.5263,-4.5077,-4.4995,-4.5023,-4.5204,-4.5343,-4.5453,-4.5577,-4.5692,-4.58,-4.58,-4.58,-4.58,-4.58,-4.58,-4.58,-4.58,-4.58,-4.58,-4.58,-4.58,-4.58,-4.58,-4.58,-4.58,-4.58,-4.58,-4.58,-4.58,-4.58,-4.58,-4.58,-4.58,-4.58,-4.58,-4.58,-4.58,-4.58,-4.58,-4.58,-4.58,-4.58,-4.58,-4.58,-4.58,-4.58,-4.58,-4.58,-4.58,-4.58,-4.58,-4.5814,-4.5814,-4.5794,-4.5814,-4.5827,-4.5827,-4.5808,-4.5827,-4.5893,-4.5861,-4.5747,-4.5783,-4.575,-4.565,-4.565,-4.5783,-4.6017,-4.6017,-4.6017,0.0,0.0,0.0,0.0,-2.8982,-2.9107,-2.6931,-2.6254,-2.5906,-2.524,0.0,0.0,0.0,0.0,0.0,0.0,-2.4138,0.0,-2.4041,-2.4273,-2.5646,-2.8722,-2.9379,-3.0124,-3.1458,-3.1593,-3.2182,-3.3608,-3.3141,-3.3775,-3.6065,-3.7552,-3.8712,-3.9468,-3.9853,-4.0253,-4.0691,-4.1094,-4.1665,-4.2409,-4.2824,-4.3221,-4.3586,-4.4011,-4.4201,-4.4249,-4.4786,-4.5123,-4.5284,-4.5343,-4.5437,-4.5563,-4.5563,-4.5661,-4.58,-4.5708,-4.5723,-4.58,-4.58,-4.58,-4.58,-4.58,-4.58,-4.58,-4.58,-4.58,-4.58,-4.58,-4.58,-4.58,-4.58,-4.58,-4.58,-4.58,-4.58,-4.58,-4.58,-4.58,-4.58,-4.58,-4.58,-4.58,-4.58,-4.58,-4.58,-4.58,-4.58,-4.58,-4.58,-4.58,-4.58,-4.58,-4.58,-4.5771,-4.5692,-4.5677,-4.5645,-4.558,-4.5563,-4.5563,-4.5563,-4.5594,-4.5577,-4.5526,-4.556,-4.5543,-4.5472,-4.5472,-4.5524,-4.5638,-4.5728,-4.5769,-2.9515,0.0,-3.0114,-2.9186,-2.8644,-2.8161,-2.7464,-2.6729,-2.6227,-2.6354,-2.5762,0.0,0.0,0.0,0.0,0.0,0.0,-2.3171,0.0,-2.2706,0.0,0.0,0.0,0.0,-3.0008,-2.9332,-2.9245,-3.0351,-3.0125,-3.1079,-3.37,-3.5541,-3.7185,-3.8629,-3.9193,-3.957,-3.9844,-4.0388,-4.0821,-4.1082,-4.1647,-4.2025,-4.2271,-4.3094,-4.3453,-4.3502,-4.4378,-4.4853,-4.5011,-4.5096,-4.5201,-4.5342,-4.5341,-4.5475,-4.5677,-4.558,-4.5613,-4.5692,-4.5692,-4.5708,-4.5757,-4.5757,-4.5786,-4.58,-4.58,-4.58,-4.58,-4.58,-4.58,-4.58,-4.58,-4.58,-4.58,-4.58,-4.58,-4.58,-4.58,-4.5766,-4.5757,-4.5757,-4.5708,-4.5692,-4.5692,-4.5737,-4.58,-4.58,-4.58,-4.58,-4.5737,-4.5757,-4.5757,-4.5757,-4.5708,-4.5661,-4.5613,-4.5563,-4.5493,-4.5419,-4.54,-4.54,-4.54,-4.54,-4.5381,-4.5341,-4.5341,-4.5321,-4.5262,-4.5262,-4.5262,-4.5281,-4.5454,-4.5558,-3.2145,-3.2309,-3.2184,-2.8876,-2.8644,-2.8606,-2.6149,-2.6787,-2.7464,-2.5878,-2.6787,-2.7387,-2.584,0.0,0.0,0.0,0.0,0.0,0.0,0.0,0.0,0.0,0.0,0.0,0.0,-2.6343,-2.6032,-3.0016,-2.7255,-2.7835,-3.3405,-3.3767,-3.5287,-3.8512,-3.8445,-3.879,-3.9698,-3.9496,-3.9851,-4.0829,-4.0712,-4.1062,-4.1856,-4.2526,-4.2828,-4.2895,-4.3882,-4.4402,-4.4546,-4.48,-4.503,-4.5201,-4.5216,-4.53,-4.5419,-4.5419,-4.5419,-4.54,-4.54,-4.5493,-4.5613,-4.5613,-4.5692,-4.58,-4.58,-4.58,-4.58,-4.58,-4.58,-4.58,-4.58,-4.58,-4.58,-4.58,-4.58,-4.58,-4.58,-4.5692,-4.5613,-4.5613,-4.5493,-4.54,-4.54,-4.5629,-4.58,-4.58,-4.58,-4.5752,-4.5629,-4.5613,-4.5613,-4.5613,-4.5493,-4.5456,-4.5596,-4.5475,-4.54,-4.54,-4.54,-4.54,-4.54,-4.54,-4.5341,-4.5213,-4.5213,-4.5125,-4.4919,-4.4919,-4.4919,-4.4919,-4.5241,-4.5419,-3.2812,-3.3305,-3.3286,-3.0424,-2.994,-2.9476,-2.6904,-2.7174,-2.7522,-2.5859,-2.6826,-2.7484,-2.582,0.0,0.0,0.0,0.0,0.0,0.0,0.0,0.0,0.0,0.0,0.0,0.0,0.0,-2.5187,-2.6009,-2.5913,-2.7053,-2.9961,-3.2241,-3.4381,-3.648,-3.7524,-3.845,-3.9279,-3.9219,-3.9341,-3.9674,-3.9639,-3.9742,-4.004,-4.0857,-4.1497,-4.2036,-4.2932,-4.3714,-4.4374,-4.4568,-4.4726,-4.4876,-4.4967,-4.5038,-4.5087,-4.5216,-4.5321,-4.54,-4.54,-4.5438,-4.5456,-4.5456,-4.5493,-4.5528,-4.5528,-4.5528,-4.5563,-4.5645,-4.5613,-4.558,-4.5752,-4.5723,-4.5661,-4.5661,-4.5661,-4.5645,-4.5563,-4.5493,-4.5456,-4.5456,-4.5419,-4.54,-4.54,-4.5475,-4.5528,-4.5528,-4.5528,-4.551,-4.5475,-4.5456,-4.5456,-4.5456,-4.5438,-4.5381,-4.5341,-4.5175,-4.5065,-4.5065,-4.5065,-4.5065,-4.5065,-4.5065,-4.5061,-4.4991,-4.4991,-4.4967,-4.4895,-4.4895,-4.4895,-4.4895,-4.5038,-4.5065,-3.3624,-3.3901,-3.3751,-3.1564,-3.1013,-3.0327,-2.7746,-2.8083,-2.8423,-2.6687,-2.7207,-2.7834,-2.7258,0.0,0.0,0.0,0.0,0.0,0.0,-2.1746,0.0,0.0,0.0,0.0,0.0,0.0,-2.364,-2.4148,-2.4246,0.0,0.0,-3.0558,-3.3019,-3.5429,-3.6779,-3.7986,-3.9082,-3.9101,-3.9101,-3.9101,-3.9101,-3.9101,-3.912,-3.9993,-4.068,-4.1219,-4.2333,-4.3155,-4.3797,-4.4242,-4.4487,-4.4578,-4.4712,-4.4789,-4.4846,-4.5033,-4.5151,-4.522,-4.522,-4.5281,-4.5321,-4.5321,-4.5361,-4.54,-4.54,-4.54,-4.5419,-4.551,-4.5456,-4.5438,-4.5613,-4.5596,-4.5528,-4.5528,-4.5528,-4.551,-4.5419,-4.5361,-4.5321,-4.5321,-4.5281,-4.522,-4.522,-4.522,-4.5262,-4.5381,-4.54,-4.5381,-4.5341,-4.5321,-4.5321,-4.5321,-4.526,-4.5197,-4.5084,-4.4967,-4.4895,-4.4895,-4.4895,-4.4895,-4.4895,-4.4895,-4.4895,-4.4895,-4.4895,-4.4895,-4.4895,-4.4895,-4.4895,-4.4895,-4.4895,-4.4895]}]]